[[{"header":{"parameterUnit":"m.s-1","parameterCategory":1,"la1":30.6,"la2":29.2853,"lo1":-89.7004,"lo2":-87.6739,"dy":0.0162,"dx":0.0183,"nx":112,"ny":82,"refTime":"2024-07-12T18:00:00:Z","depth":0,"parameterNumber":2,"parameterNumberName":"U-component_of_WINDS"},"data":[0.0,0.0,0.0,0.0,0.0,0.0,0.0,0.0,0.0,0.0,0.0,0.0,0.0,0.0,0.0,0.0,0.0,0.0,0.0,0.0,0.0,0.0,0.0,0.0,0.0,0.0,0.0,0.0,0.0,0.0,0.0,0.0,0.0,0.0,0.0,0.0,0.0,0.0,0.0,0.0,0.0,0.0,0.0,0.0,0.0,0.0,0.0,0.0,0.0,0.0,0.0,0.0,0.0,0.0,0.0,0.0,0.0,0.0,0.0,0.0,0.0,0.0,0.0,0.0,0.0,0.0,0.0,0.0,0.0,0.0,0.0,0.0,0.0,0.0,0.0,0.0,0.0,0.0,0.0,0.0,0.0,0.0,0.0,0.0,0.0,0.0,0.0,0.0,0.0,0.0,0.0652,0.0731,0.0834,0.0887,0.0915,0.0855,0.0743,0.0611,0.0,0.0,0.0,0.0,0.0,0.0,0.0,0.0,0.0,0.0,0.0,0.0,0.0,0.0,0.0,0.0,0.0,0.0,0.0,0.0,0.0,0.0,0.0,0.0,0.0,0.0,0.0,0.0,0.0,0.0,0.0,0.0,0.0,0.0,0.0,0.0,0.0,0.0,0.0,0.0,0.0,0.0,0.0,0.0,0.0,0.0,0.0,0.0,0.0,0.0,0.0,0.0,0.0,0.0,0.0,0.0,0.0,0.0,0.0,0.0,0.0,0.0,0.0,0.0,0.0,0.0,0.0,0.0,0.0,0.0,0.0,0.0,0.0,0.0,0.0,0.0,0.0,0.0,0.0,0.0,0.0,0.0,0.0,0.0,0.0,0.0,0.0,0.0,0.0,0.0,0.0,0.0,0.0,0.0,0.0,0.0,0.0,0.0,0.0,0.0,0.0,0.0,0.0,0.0,0.0652,0.0865,0.0871,0.0896,0.0891,0.0867,0.081,0.0712,0.0,0.0,0.0,0.0,0.0,0.0,0.0,0.0,0.0,0.0,0.0,0.0,0.0,0.0,0.0,0.0,0.0,0.0,0.0,0.0,0.0,0.0,0.0,0.0,0.0,0.0,0.0,0.0,0.0,0.0,0.0,0.0,0.0,0.0,0.0,0.0,0.0,0.0,0.0,0.0,0.0,0.0,0.0,0.0,0.0,0.0,0.0,0.0,0.0,0.0,0.0,0.0,0.0,0.0,0.0,0.0,0.0,0.0,0.0,0.0,0.0,0.0,0.0,0.0,0.0,0.0,0.0,0.0,0.0,0.0,0.0,0.0,0.0,0.0,0.0,0.0,0.0,0.0,0.0,0.0,0.0,0.0,0.0,0.0,0.0,0.0,0.0,0.0,0.0,0.0,0.0,0.0,0.0,0.0,0.0,0.0,0.0,0.0,0.0,0.0,0.0,0.0,0.0,0.064,0.0714,0.0861,0.0889,0.0898,0.0898,0.0924,0.0916,0.104,0.0712,0.0,0.0,0.0,0.0,0.0,0.0,0.0,0.0,0.0,0.0,0.0,0.0,0.0,0.0,0.0,0.0,0.0,0.0,0.0,0.0,0.0,0.0,0.0,0.0,0.0,0.0,0.0,0.0,0.0,0.0,0.0,0.0,0.0,0.0,0.0,0.0,0.0,0.0,0.0,0.0,0.0,0.0,0.0,0.0,0.0,0.0,0.0,0.0,0.0,0.0,0.0,0.0,0.0,0.0,0.0,0.0,0.0,0.0,0.0,0.0,0.0,0.0,0.0,0.0,0.0,0.0,0.0,0.0,0.0,0.0,0.0,0.0,0.0,0.0,0.0,0.0,0.0,0.0,0.0,0.0,0.0,0.0,0.0,0.0,0.0,0.0,0.0,0.0,0.0,0.0,0.0,0.0,0.0,0.0,0.0,0.0,0.0,0.0,0.0,0.0,0.0,0.0,0.0723,0.078,0.0886,0.0898,0.0898,0.0898,0.0863,0.0957,0.1129,0.0861,0.0,0.0,0.0,0.0,0.0,0.0,0.0,0.0,0.0,0.0,0.0,0.0,0.0,0.0,0.0,0.0,0.0,0.0,0.0,0.0,0.0,0.0,0.0,0.0,0.0,0.0,0.0,0.0,0.0,0.0,0.0,0.0,0.0,0.0,0.0,0.0,0.0,0.0,0.0,0.0,0.0,0.0,0.0,0.0,0.0,0.0,0.0,0.0,0.0,0.0,0.0,0.0,0.0,0.0,0.0,0.0,0.0,0.0,0.0,0.0,0.0,0.0,0.0,0.0,0.0,0.0,0.0,0.0,0.0,0.0,0.0,0.0,0.0,0.0,0.0,0.0,0.0,0.0,0.0,0.0,0.0,0.0,0.0,0.0,0.0,0.0,0.0,0.0,0.0,0.0,0.0,0.0,0.0,0.0,0.0,0.0,0.0,0.0,0.0,0.0,0.0,0.0,0.0732,0.0825,0.089,0.0898,0.0898,0.0898,0.0844,0.0784,0.0723,0.0835,0.0,0.0,0.0,0.0,0.0,0.0,0.0,0.0,0.0,0.0,0.0,0.0,0.0,0.0,0.0,0.0,0.0,0.0,0.0,0.0,0.0,0.0,0.0,0.0,0.0,0.0,0.0,0.0,0.0,0.0,0.0,0.0,0.0,0.0,0.0,0.0,0.0,0.0,0.0,0.0,0.0,0.0,0.0,0.0,0.0,0.0,0.0,0.0,0.0,0.0,0.0,0.0,0.0,0.0,0.0,0.0,0.0,0.0,0.0,0.0,0.0,0.0,0.0,0.0,0.0,0.0,0.0,0.0,0.0,0.0,0.0,0.0,0.0,0.0,0.0,0.0,0.0,0.0,0.0,0.0,0.0,0.0,0.0,0.0,0.0,0.0,0.0,0.0,0.0,0.0,0.0,0.0,0.0,0.0,0.0,0.0,0.0,0.0,0.0,0.0,0.0,0.0,0.0701,0.0789,0.0887,0.0898,0.0898,0.0898,0.0859,0.0902,0.1084,0.0,0.0,0.0,0.0,0.0,0.0,0.0,0.0,0.0,0.0,0.0,0.0,0.0,0.0,0.0,0.0,0.0,0.0,0.0,0.0,0.0,0.0,0.0,0.0,0.0,0.0,0.0,0.0,0.0,0.0,0.0,0.0,0.0,0.0,0.0,0.0,0.0,0.0,0.0,0.0,0.0,0.0,0.0,0.0,0.0,0.0,0.0,0.0,0.0,0.0,0.0,0.0,0.0,0.0,0.0,0.0,0.0,0.0,0.0,0.0,0.0,0.0,0.0,0.0,0.0,0.0,0.0,0.0,0.0,0.0,0.0,0.0,0.0,0.0,0.0,0.0,0.0,0.0,0.0,0.0,0.0,0.0,0.0,0.0,0.0,0.0,0.0,0.0,0.0,0.0,0.0,0.0,0.0,0.0,0.0,0.0,0.0,0.0,0.0,0.0,0.0,0.0,0.0629,0.0704,0.0786,0.0887,0.0898,0.0898,0.0898,0.0905,0.0937,0.1106,0.0,0.0,0.0,0.0,0.0,0.0,0.0,0.0,0.0,0.0,0.0,0.0,0.0,0.0,0.0,0.0,0.0,0.0,0.0,0.0,0.0,0.0,0.0,0.0,0.0,0.0,0.0,0.0,0.0,0.0,0.0,0.0,0.0,0.0,0.0,0.0,0.0,0.0,0.0,0.0,0.0,0.0,0.0,0.0,0.0,0.0,0.0,0.0,0.0,0.0,0.0,0.0,0.0,0.0,0.0,0.0,0.0,0.0,0.0,0.0,0.0,0.0,0.0,0.0,0.0,0.0,0.0,0.0,0.0,0.0,0.0,0.0,0.0,0.0,0.0,0.0,0.0,0.0,0.0,0.0,0.0,0.0,0.0,0.0,0.0,0.0,0.0,0.0,0.0,0.0,0.0,0.0,0.0,0.0,0.0,0.0,0.0,0.0,0.0,0.0,0.0,0.0,0.0662,0.0752,0.083,0.0891,0.0898,0.0898,0.0898,0.0814,0.0783,0.0,0.0,0.0,0.0,0.0,0.0,0.0,0.0,0.0,0.0,0.0,0.0,0.0,0.0,0.0,0.0,0.0,0.0,0.0,0.0,0.0,0.0,0.0,0.0,0.0,0.0,0.0,0.0,0.0,0.0,0.0,0.0,0.0,0.0,0.0,0.0,0.0,0.0,0.0,0.0,0.0,0.0,0.0,0.0,0.0,0.0,0.0,0.0,0.0,0.0,0.0,0.0,0.0,0.0,0.0,0.0,0.0,0.0,0.0,0.0,0.0,0.0,0.0,0.0,0.0,0.0,0.0,0.0,0.0,0.0,0.0,0.0,0.0,0.0,0.0,0.0,0.0,0.0,0.0,0.0,0.0,0.0,0.0,0.0,0.0,0.0,0.0,0.0,0.0,0.0,0.0,0.0,0.0,0.0,0.0,0.0,0.0,0.0,0.0,0.0,0.0,0.0,0.0,0.0662,0.0752,0.083,0.0891,0.0898,0.0898,0.0898,0.0834,0.0759,0.0721,0.0,0.0,0.0,0.0,0.0,0.0,0.0,0.0,0.0,0.0,0.0,0.0,0.0,0.0,0.0,0.0,0.0,0.0,0.0,0.0,0.0,0.0,0.0,0.0,0.0,0.0,0.0,0.0,0.0,0.0,0.0,0.0,0.0,0.0,0.0,0.0,0.0,0.0,0.0,0.0,0.0,0.0,0.0,0.0,0.0,0.0,0.0,0.0,0.0,0.0,0.0,0.0,0.0,0.0,0.0,0.0,0.0,0.0,0.0,0.0,0.0,0.0,0.0,0.0,0.0,0.0,0.0,0.0,0.0,0.0,0.0,0.0,0.0,0.0,0.0,0.0,0.0,0.0,0.0,0.0,0.0,0.0,0.0,0.0,0.0,0.0,0.0,0.0,0.0,0.0,0.0,0.0,0.0,0.0,0.0,0.0,0.0,0.0,0.0,0.0,0.0,0.0,0.068,0.077,0.0843,0.0892,0.0898,0.0898,0.0898,0.0842,0.0769,0.0722,0.0,0.0,0.0,0.0,0.0,0.0,0.0,0.0,0.0,0.0,0.0,0.0,0.0,0.0,0.0,0.0,0.0,0.0,0.0,0.0,0.0,0.0,0.0,0.0,0.0,0.0,0.0,0.0,0.0,0.0,0.0,0.0,0.0,0.0,0.0,0.0,0.0,0.0,0.0,0.0,0.0,0.0,0.0,0.0,0.0,0.0,0.0,0.0,0.0,0.0,0.0,0.0,0.0,0.0,0.0,0.0,0.0,0.0,0.0,0.0,0.0,0.0,0.0,0.0,0.0,0.0,0.0,0.0,0.0,0.0,0.0,0.0,0.0,0.0,0.0,0.0,0.0,0.0,0.0,0.0,0.0,0.0,0.0,0.0,0.0,0.0,0.0,0.0,0.0,0.0,0.0,0.0,0.0,0.0,0.0,0.0,0.0,0.0,0.0,0.0,0.0,0.0,0.0708,0.0797,0.0918,0.0894,0.0898,0.0898,0.0898,0.0845,0.0773,0.0684,0.0,0.0,0.0,0.0,0.0,0.0,0.0,0.0,0.0,0.0,0.0,0.0,0.0,0.0,0.0,0.0,0.0,0.0,0.0,0.0,0.0,0.0,0.0,0.0,0.0,0.0,0.0,0.0,0.0,0.0,0.0,0.0,0.0,0.0,0.0,0.0,0.0,0.0,0.0,0.0,0.0,0.0,0.0,0.0,0.0,0.0,0.0,0.0,0.0,0.0,0.0,0.0,0.0,0.0,0.0,0.0,0.0,0.0,0.0,0.0,0.1482,0.1818,0.0,0.0,0.0,0.0,0.0,0.0,0.0,0.0,0.0,0.0,0.0,0.0,0.0,0.0,0.0,0.0,0.0,0.0,0.0,0.0,0.0,0.0,0.0,0.0,0.0,0.0,0.0,0.0,0.0,0.0,0.0,0.0,0.0,0.0,0.0,0.0,0.0,0.0,0.0,0.0,0.0708,0.0797,0.0918,0.0894,0.0898,0.0898,0.0898,0.0864,0.0804,0.0715,0.0606,0.0,0.0,0.0,0.0,0.0,0.0,0.0,0.0,0.0,0.0,0.0,0.0,0.0,0.0,0.0,0.0,0.0,0.0,0.0,0.0,0.0,0.0,0.0,0.0,0.0,0.0,0.0,0.0,0.0,0.0,0.0,0.0,0.0,0.0,0.0,0.0,0.0,0.0,0.0,0.0,0.0,0.0,0.0,0.0,0.0,0.0,0.0,0.0,0.0,0.0,0.0,0.0,0.0,0.0,0.0,0.0,0.0,0.0,0.0,0.1444,0.1659,0.0,0.0,0.0,0.0,0.0,0.0,0.0,0.0,0.0,0.0,0.0,0.0,0.0,0.0,0.0,0.0,0.0,0.0,0.0,0.0,0.0,0.0,0.0,0.0,0.0,0.0,0.0,0.0,0.0,0.0,0.0,0.0,0.0,0.0,0.0,0.0,0.0,0.0,0.0,0.0,0.0728,0.0818,0.088,0.0896,0.0898,0.0898,0.0898,0.0924,0.0871,0.0746,0.0684,0.0,0.0,0.0,0.0,0.0,0.0,0.0,0.0,0.0,0.0,0.0,0.0,0.0,0.0,0.0,0.0,0.0,0.0,0.0,0.0,0.0,0.0,0.0,0.0,0.0,0.0,0.0,0.0,0.0,0.0,0.0,0.0,0.0,0.0,0.0,0.0,0.0,0.0,0.0,0.0,0.0,0.0,0.0,0.0,0.0,0.0,0.0,0.0,0.0,0.0,0.0,0.0,0.0,0.164,0.1672,0.1672,0.1672,0.1507,0.1248,0.1404,0.144,0.1337,0.1409,0.0,0.0,0.0,0.0,0.0,0.0,0.0,0.0,0.0,0.0,0.0,0.0,0.0,0.0,0.0,0.0,0.0,0.0,0.0,0.0,0.0,0.0,0.0807,0.115,0.124,0.1135,0.0734,0.0,0.0,0.0,0.0,0.0,0.0,0.0,0.0,0.0,0.0,0.0,0.0806,0.0845,0.0898,0.0898,0.0898,0.0898,0.0898,0.0875,0.0889,0.0832,0.0768,0.0531,0.0,0.0,0.0,0.0,0.0,0.0,0.0,0.0,0.0,0.0,0.0,0.0,0.0,0.0,0.0,0.0,0.0,0.0,0.0,0.0,0.0,0.0,0.0,0.0,0.0,0.0,0.0,0.0,0.0,0.0,0.0,0.0,0.0838,0.1104,0.0,0.0,0.0,0.0,0.0,0.0,0.0,0.0,0.0,0.0,0.0,0.0,0.0,0.1703,0.1999,0.1625,0.1495,0.1698,0.1288,0.1131,0.1131,0.1131,0.1074,0.1018,0.1069,0.0,0.1447,0.1377,0.0,0.0,0.0,0.0,0.0,0.0,0.0,0.0,0.0,0.0,0.0,0.0,0.0,0.0,0.0,0.0,0.0,0.0,0.0,0.0,0.0,0.0,0.0862,0.0945,0.0965,0.0923,0.0878,0.1198,0.1407,0.1138,0.0985,0.0782,0.0,0.0,0.0,0.0,0.0,0.0,0.0793,0.0857,0.0898,0.0898,0.0898,0.0898,0.0898,0.0894,0.0877,0.0895,0.0834,0.0598,0.0218,0.0147,0.0,0.0,0.0,0.0,0.0,0.0,0.0,0.0,0.0,0.0,0.0,0.0,0.0,0.0,0.0,0.0,0.0,0.0,0.0,0.0,0.0,0.0,0.0,0.0,0.0,0.0,0.0,0.0,0.0,0.0749,0.086,0.0878,0.0873,0.0843,0.0,0.0,0.0,0.0,0.0,0.0,0.0,0.0,0.0,0.1495,0.131,0.1276,0.1474,0.1268,0.1236,0.133,0.1104,0.0988,0.0988,0.0988,0.0988,0.0988,0.0988,0.1078,0.1189,0.1125,0.1179,0.1281,0.0,0.0,0.0,0.0,0.1152,0.1142,0.1171,0.123,0.12,0.106,0.0,0.0,0.0,0.0,0.0,0.0,0.0,0.0797,0.0835,0.0829,0.092,0.0906,0.0913,0.0915,0.0884,0.1044,0.1176,0.1008,0.0922,0.0795,0.0618,0.056,0.0,0.0,0.0,0.0764,0.0825,0.087,0.0898,0.0898,0.0898,0.0898,0.0898,0.0898,0.0774,0.0534,0.0466,0.0099,-0.0652,-0.0412,-0.0443,0.0,0.0,0.0,0.0,0.0,0.0,0.0,0.0,0.0,0.0,0.0,0.0,0.0,0.0,0.0,0.0,0.0,0.0,0.0,0.0,0.0,0.0,0.0,0.0,0.0,0.0,0.0,0.0,0.0809,0.0787,0.064,0.064,0.0652,0.0,0.0,0.0,0.0,0.0,0.0,0.1593,0.1351,0.123,0.1274,0.1047,0.0969,0.0999,0.1,0.1003,0.1011,0.1011,0.1011,0.1011,0.1011,0.1015,0.1022,0.1022,0.1027,0.1028,0.0952,0.0907,0.0938,0.0892,0.0808,0.0793,0.0837,0.084,0.0884,0.0898,0.0906,0.0939,0.086,0.0834,0.0802,0.0757,0.0,0.0,0.0,0.0,0.0869,0.0937,0.0954,0.0954,0.0954,0.0954,0.0946,0.0915,0.0909,0.0887,0.0813,0.0842,0.0813,0.0697,0.0679,0.0,0.076,0.0804,0.0854,0.091,0.0883,0.0898,0.0898,0.0898,0.0898,0.0898,0.0898,0.0666,0.0108,0.016,-0.0312,-0.1376,-0.0945,-0.0906,-0.1285,0.0,0.0,0.0,0.0,0.0,0.0,0.0,0.0,0.0,0.0,0.0,0.0,0.0,0.0,0.0,0.0,0.0,0.0,0.0,0.0,0.0,0.0,0.0,0.0,0.0,0.0,0.0,0.0,0.0,0.0708,0.0767,0.0,0.0,0.0,0.0,0.1455,0.137,0.1391,0.1595,0.1146,0.095,0.1042,0.0984,0.1001,0.1031,0.1031,0.1045,0.1071,0.1071,0.1071,0.1071,0.1071,0.1087,0.1114,0.1114,0.1131,0.1149,0.1031,0.0983,0.0982,0.0978,0.0976,0.0975,0.0978,0.0978,0.0977,0.0982,0.0983,0.0982,0.098,0.0958,0.0875,0.0872,0.0871,0.0,0.0,0.0957,0.098,0.0985,0.0986,0.0986,0.0986,0.0986,0.0977,0.0888,0.0882,0.0872,0.0897,0.0922,0.0899,0.0894,0.0,0.0808,0.0891,0.0899,0.0913,0.0891,0.0896,0.0898,0.0898,0.0898,0.0898,0.0898,0.0898,0.0616,-0.0111,0.0054,-0.0319,-0.1426,-0.1332,-0.1268,-0.1294,-0.1196,0.0,0.0,0.0,0.0,0.0,0.0,0.0,0.0,0.0,0.0,0.0,0.0,0.0,0.0,0.0,0.0,0.0,0.0,0.0,0.0,0.0,0.0,0.0,0.0,0.0,0.0,0.0,0.0,0.0754,0.0846,0.0,0.0806,0.0976,0.1057,0.1095,0.1133,0.1166,0.1193,0.1046,0.1006,0.1017,0.1054,0.1079,0.109,0.111,0.1124,0.1134,0.1134,0.1134,0.1134,0.1134,0.114,0.1151,0.1151,0.1156,0.1164,0.1121,0.108,0.1043,0.1024,0.1005,0.0988,0.0988,0.0988,0.0988,0.0988,0.0988,0.0988,0.0988,0.0981,0.0972,0.0972,0.0972,0.0976,0.0934,0.1009,0.1022,0.1039,0.1044,0.104,0.1022,0.1018,0.1009,0.0978,0.0972,0.0969,0.0958,0.0915,0.0875,0.0909,0.086,0.0862,0.0907,0.0923,0.0885,0.0896,0.0898,0.0898,0.0898,0.0898,0.0729,0.0336,0.0336,-0.0,-0.0728,-0.0665,-0.109,-0.2128,-0.1704,-0.1597,-0.1881,-0.1616,-0.1287,0.0,0.0,0.0,0.0,0.0,0.0,0.0,0.0,0.0,0.0,0.0,0.0,0.0,0.0,0.0,0.0,0.0,0.0,0.0,0.0,0.0,0.0,0.0,0.0,0.0,0.08,0.0767,0.0816,0.0858,0.0883,0.0883,0.0911,0.0937,0.0957,0.0986,0.1008,0.1017,0.1046,0.1068,0.1078,0.1116,0.1136,0.1136,0.1156,0.1166,0.1166,0.1166,0.1166,0.1166,0.1166,0.1172,0.1182,0.1182,0.1187,0.1197,0.1197,0.1167,0.1119,0.109,0.1066,0.1048,0.1048,0.1048,0.1048,0.1048,0.1048,0.1048,0.1048,0.1048,0.1048,0.1048,0.1042,0.1037,0.1057,0.1056,0.1052,0.1071,0.1076,0.1071,0.1052,0.1048,0.1039,0.101,0.1003,0.1001,0.099,0.0947,0.0907,0.0886,0.0891,0.089,0.0925,0.0885,0.0898,0.0898,0.0898,0.0898,0.0898,0.0561,0.0112,-0.028,-0.0392,-0.0784,-0.1512,-0.1441,-0.1744,-0.2607,-0.2132,-0.1882,-0.2104,-0.1821,-0.1518,-0.1175,0.0,0.0,0.0,0.0,0.0,0.0,0.0,0.0,0.0,0.0,0.0,0.0,0.0,0.0,0.0,0.0,0.0,0.0,0.0,0.0,0.0,0.0,0.0,0.0723,0.0773,0.0821,0.0906,0.0909,0.0886,0.0886,0.0973,0.0991,0.0992,0.102,0.105,0.1077,0.1106,0.1136,0.1166,0.1168,0.1168,0.1168,0.1169,0.1169,0.1169,0.1169,0.1169,0.1169,0.1169,0.1185,0.1213,0.1213,0.123,0.1335,0.1335,0.124,0.121,0.118,0.1167,0.1166,0.1166,0.1166,0.1166,0.1166,0.1166,0.1166,0.1166,0.1166,0.1166,0.1166,0.1146,0.1122,0.1121,0.1099,0.1077,0.1076,0.1076,0.1076,0.1076,0.1076,0.1068,0.1041,0.1035,0.1027,0.0997,0.0967,0.0886,0.0886,0.092,0.09,0.0899,0.0899,0.0,0.0898,0.0842,0.0842,0.0898,-0.0168,-0.0898,-0.0954,-0.1175,-0.1676,-0.2456,-0.2057,-0.2177,-0.2971,-0.2477,-0.2095,-0.1908,-0.1855,-0.1725,-0.153,0.0,0.0,0.0,0.0,0.0,0.0,0.0,0.0,0.0,0.0,0.0,0.0,0.0,0.0,0.0,0.0,0.0,0.0,0.0,0.0,0.0,0.082,0.0867,0.0867,0.0849,0.0892,0.0945,0.0966,0.0984,0.0943,0.1035,0.1061,0.1083,0.1112,0.1133,0.1141,0.1149,0.1157,0.1166,0.1187,0.1199,0.1199,0.1221,0.1309,0.1309,0.1309,0.1309,0.1309,0.1309,0.1237,0.1245,0.1245,0.1249,0.1335,0.1335,0.1252,0.1242,0.1211,0.1186,0.1166,0.1166,0.1166,0.1166,0.1166,0.1166,0.1166,0.1166,0.1166,0.1166,0.1166,0.116,0.1149,0.1127,0.1115,0.1104,0.1081,0.1076,0.1076,0.1076,0.1076,0.1074,0.1066,0.1064,0.1061,0.1053,0.1029,0.1001,0.098,0.0969,0.0956,0.0992,0.093,0.0807,0.0562,-0.0,-0.0056,0.0785,0.0449,-0.0616,-0.2693,-0.2015,-0.1789,-0.2575,-0.2439,-0.2497,-0.2971,-0.2592,-0.2399,-0.2476,-0.2171,-0.2054,0.0,0.0,0.0,0.0,0.0,0.0,0.0,0.0,0.0,0.0,0.0,0.0,0.0,0.0,0.0,0.0,0.0,0.0,0.0,0.0,0.0,0.0,0.0851,0.0899,0.0925,0.0932,0.0954,0.1001,0.1007,0.1024,0.1066,0.1085,0.1108,0.1138,0.1156,0.1172,0.1185,0.1185,0.1191,0.1204,0.1221,0.123,0.123,0.1249,0.1335,0.1335,0.1335,0.1335,0.1335,0.1335,0.1335,0.1335,0.1335,0.1335,0.1257,0.1021,0.1021,0.1334,0.0,0.0,0.0,0.0,0.1204,0.1204,0.1204,0.1204,0.1204,0.1204,0.1204,0.1204,0.1204,0.1196,0.1182,0.1164,0.115,0.1133,0.1102,0.1095,0.1091,0.1079,0.1076,0.1076,0.1076,0.1076,0.1076,0.1077,0.1064,0.0,0.1029,0.1005,0.0982,0.1025,0.0951,0.0585,-0.0229,-0.1301,-0.174,-0.1064,-0.1063,-0.1846,-0.3479,-0.2856,0.0,0.0,0.0,-0.2904,-0.2963,-0.2752,0.0,0.0,0.0,0.0,0.0,-0.2522,0.0,0.0,-0.2067,-0.1982,0.0,0.0,0.0,0.0,0.0,0.0,0.0,0.0,0.0,0.0,0.0,0.0,0.0,0.0,0.0,0.0,0.0915,0.0913,0.097,0.102,0.1012,0.1035,0.1042,0.1064,0.1116,0.1127,0.1142,0.117,0.1174,0.1188,0.1215,0.1217,0.0,0.0,0.0,0.1335,0.1335,0.1335,0.1335,0.1335,0.1335,0.1335,0.1335,0.1335,0.1257,0.1178,0.1178,0.1178,0.11,0.0471,0.055,0.11,0.1257,0.1335,0.1335,0.1335,0.1335,0.1335,0.1335,0.0,0.0,0.1335,0.1335,0.1335,0.1335,0.1239,0.1216,0.1213,0.1192,0.1165,0.1134,0.1126,0.1119,0.1093,0.1083,0.1081,0.1081,0.1078,0.1076,0.1079,0.1079,0.1079,0.1012,0.084,0.0685,0.0683,0.0606,0.0119,-0.1176,-0.2703,-0.3621,-0.3602,-0.3532,0.0,-0.3583,-0.3527,-0.3527,-0.3585,-0.3482,-0.3263,-0.2948,-0.2955,-0.2854,-0.2585,-0.2842,-0.2938,-0.2926,-0.3134,-0.3142,-0.2936,-0.2452,-0.2236,0.0,0.0,0.0,0.0,0.0,0.0,0.0,0.0,0.0,0.0,0.0,0.0,0.0,0.0,0.0,0.0948,0.0992,0.0972,0.1096,0.1099,0.1089,0.1069,0.1089,0.1108,0.112,0.1166,0.1197,0.1202,0.1226,0.132,0.1248,0.1249,0.1251,0.1335,0.1335,0.1335,0.1335,0.1335,0.1335,0.1335,0.1335,0.0,0.1335,0.1335,0.1021,0.0471,0.0471,0.0471,0.0471,-0.0157,-0.0314,-0.0157,0.0864,0.1335,0.1335,0.1335,0.1335,0.1335,0.1335,0.1335,0.1335,0.1335,0.1335,0.1335,0.1335,0.1253,0.0,0.1219,0.1208,0.1196,0.1166,0.1157,0.1156,0.1151,0.113,0.1112,0.1112,0.1093,0.1076,0.1079,0.1079,0.1012,0.0674,-0.0334,-0.1116,-0.109,-0.1333,-0.1552,-0.1715,-0.2926,-0.3699,-0.3607,-0.3079,-0.2961,-0.3527,-0.3074,-0.2961,-0.3583,-0.3561,-0.3493,-0.3318,-0.3409,-0.3415,-0.3211,-0.3263,-0.3267,-0.3118,-0.3267,-0.3368,-0.331,-0.2648,-0.235,0.0,0.0,0.0,0.0,0.0,0.0,0.0,0.0,0.0,0.0,0.0,0.0786,0.0861,0.0,0.0945,0.1021,0.1046,0.1076,0.1064,0.1072,0.1067,0.1123,0.1134,0.115,0.1165,0.1194,0.1218,0.1234,0.1249,0.1335,0.1335,0.1335,0.1335,0.1335,0.1272,0.128,0.128,0.1295,0.1295,0.128,0.1295,0.097,0.0399,0.0162,-0.0325,-0.0973,-0.0642,-0.0559,-0.0559,-0.0552,-0.0785,-0.102,-0.0,0.0314,0.0314,0.0314,0.0314,0.0314,0.0314,0.0314,0.0393,0.0707,0.0786,0.0864,0.1178,0.1335,0.1254,0.1239,0.1234,0.1228,0.1197,0.1189,0.1185,0.117,0.1155,0.114,0.1124,0.1109,0.1095,0.1082,0.0337,-0.0606,-0.1684,-0.249,-0.2674,-0.1715,-0.2535,-0.3105,-0.2847,-0.3387,-0.3721,-0.3604,-0.3246,-0.3188,-0.3583,-0.3244,-0.3188,-0.3583,-0.3585,-0.3555,-0.3496,-0.3553,-0.3555,-0.3493,-0.3493,-0.3463,-0.34,-0.3463,-0.3493,-0.349,-0.3002,-0.2817,0.0,0.0,0.0,0.0,0.0,0.0,0.0,0.0,0.0741,0.0825,0.0862,0.0897,0.0898,0.0989,0.1026,0.1018,0.1026,0.0903,0.051,0.0881,0.0957,0.0591,0.0958,0.1185,0.1209,0.1217,0.123,0.1334,0.1335,0.1335,0.1335,0.1262,0.1187,0.1187,0.1052,0.0903,0.0824,0.0671,0.0588,0.058,0.0507,-0.0,-0.0911,-0.1265,-0.1781,-0.2361,-0.1906,-0.1728,-0.1726,-0.1136,-0.1207,-0.1761,-0.1196,-0.1032,-0.0948,-0.0708,-0.0628,-0.0628,-0.0628,-0.0628,-0.055,-0.0,0.0157,0.0236,0.0786,0.0943,0.0943,0.11,0.11,0.1095,0.1227,0.1221,0.1215,0.119,0.118,0.1167,0.0923,0.0773,0.0695,0.0677,-0.0538,-0.2085,-0.3984,-0.4311,-0.383,-0.2351,-0.3366,-0.4185,-0.3872,-0.3835,-0.3789,-0.3664,-0.3653,-0.3642,-0.3621,-0.3596,-0.3585,-0.3585,-0.3585,-0.3585,-0.3585,-0.3585,-0.3585,-0.3585,-0.3585,-0.3585,-0.3585,-0.3585,-0.3585,-0.3583,-0.3302,-0.3302,-0.276,-0.1692,-0.0399,0.0324,0.0656,0.0827,0.0,0.0,0.089,0.0955,0.0971,0.0992,0.0987,0.0999,0.102,0.1076,0.0795,0.0073,-0.1424,-0.0,0.0532,-0.1319,0.0076,0.1208,0.1211,0.1236,0.1254,0.1335,0.1335,0.1335,0.1335,0.1042,0.0892,0.0648,0.0083,-0.0422,-0.0946,-0.1637,-0.2087,-0.2123,-0.2128,-0.2216,-0.2388,-0.2394,-0.2724,-0.3278,-0.2672,-0.2756,-0.3194,-0.2195,-0.21,-0.2661,-0.2524,-0.2392,-0.2262,-0.1029,-0.0628,-0.0628,-0.0628,-0.0628,-0.055,-0.055,-0.0471,-0.0471,-0.0393,-0.0393,-0.0314,0.0236,0.0393,0.0549,0.1175,0.1252,0.1251,0.1326,0.1226,0.1049,0.0365,-0.0356,-0.0834,-0.0879,-0.1007,-0.1811,-0.3907,-0.4308,-0.4233,-0.403,-0.4156,-0.4238,-0.4115,-0.4085,-0.4031,-0.3909,-0.3895,-0.3852,-0.3801,-0.3642,-0.3585,-0.3585,-0.3585,-0.3585,-0.3585,-0.3585,-0.3585,-0.3585,-0.3585,-0.3585,-0.3585,-0.3585,-0.3585,-0.3585,-0.3583,-0.3413,-0.2723,-0.1346,-0.0,0.0,0.0385,0.0908,0.0958,0.0839,0.0605,-0.0064,0.0064,0.0129,-0.0139,-0.0417,-0.063,0.0,-0.0818,-0.1274,-0.2382,-0.1448,-0.0759,-0.1302,-0.1141,-0.038,0.1081,0.125,0.1335,0.1335,0.1021,0.0395,-0.064,-0.0808,-0.1145,-0.1739,-0.2055,-0.2087,-0.182,-0.2246,-0.245,-0.2502,-0.3023,-0.3408,-0.3639,-0.428,-0.4504,-0.4416,-0.4204,-0.4111,-0.407,-0.3571,-0.3566,-0.3802,-0.3767,-0.3533,-0.3025,-0.2078,-0.1726,-0.1726,-0.1726,-0.1726,-0.1648,-0.1333,-0.1333,-0.1491,-0.1098,-0.1176,-0.1331,-0.1018,-0.1018,-0.094,-0.0626,-0.0548,-0.0548,-0.0548,-0.0621,-0.061,-0.0514,-0.101,-0.1769,-0.2781,-0.2956,-0.3222,-0.4169,-0.4303,-0.43,-0.43,-0.43,-0.4257,-0.4132,-0.4118,-0.4072,-0.3886,-0.3872,-0.3887,-0.382,-0.3768,-0.371,-0.3588,-0.3585,-0.3585,-0.3585,-0.3585,-0.3585,-0.3585,-0.3585,-0.3585,-0.3585,-0.3585,-0.3585,-0.3585,-0.3585,-0.3527,-0.2778,0.0,0.0,-0.0817,-0.0303,0.0312,0.05,0.0314,-0.0192,-0.1067,-0.0925,-0.0798,-0.135,-0.1567,-0.1937,-0.2705,-0.2811,-0.2914,-0.3437,-0.2994,-0.2425,-0.1752,-0.2504,-0.2368,-0.0626,0.0078,0.047,0.0549,0.0237,-0.072,-0.2375,-0.2571,-0.3039,-0.4142,-0.3933,-0.3614,-0.3295,-0.346,-0.3482,-0.3455,-0.4171,-0.4577,-0.4833,-0.5681,-0.5839,-0.542,-0.541,-0.5122,-0.4782,-0.4623,-0.4603,-0.4559,-0.4559,-0.4216,-0.3743,-0.3215,-0.2814,-0.2556,-0.2758,-0.2756,-0.261,-0.2277,-0.243,-0.2586,-0.2116,-0.2192,-0.2347,-0.2189,-0.2111,-0.2111,-0.1955,-0.1877,-0.1955,-0.2111,-0.2189,-0.2088,-0.1928,-0.2216,-0.2921,-0.3995,-0.4311,-0.4376,-0.4311,-0.43,-0.43,-0.43,-0.43,-0.4268,-0.4181,-0.4167,-0.4134,-0.4045,-0.4004,-0.3936,-0.3814,-0.3831,-0.3762,-0.3591,-0.3585,-0.3585,-0.3585,-0.3585,-0.3585,-0.3585,-0.3585,-0.3585,-0.3585,-0.3585,-0.3585,-0.3585,-0.3585,-0.3585,0.0,0.0,-0.2344,-0.182,-0.1659,-0.1412,-0.0709,-0.1052,-0.1607,-0.1747,-0.1678,-0.1757,-0.2368,-0.1857,-0.2125,-0.4535,-0.4876,-0.4945,-0.494,-0.4772,-0.4282,-0.3348,-0.407,-0.4675,-0.4784,-0.2976,-0.1641,-0.1251,-0.1358,-0.1963,-0.3099,-0.3403,-0.4328,-0.6004,-0.4886,-0.4838,-0.6083,-0.6107,-0.6104,-0.5984,-0.6214,-0.6206,-0.6078,-0.6081,-0.6143,-0.6252,-0.5672,-0.5477,-0.5482,-0.4984,-0.4718,-0.4565,-0.466,-0.4547,-0.4372,-0.4274,-0.3587,-0.2837,-0.3506,-0.3501,-0.3231,-0.3634,-0.3763,-0.3763,-0.3763,-0.3763,-0.3604,-0.2974,-0.2738,-0.266,-0.2033,-0.1877,-0.2033,-0.2738,-0.2896,-0.311,-0.3871,-0.4464,-0.467,-0.4043,-0.4349,-0.4569,-0.4341,-0.43,-0.43,-0.43,-0.43,-0.43,-0.4295,-0.4295,-0.4295,-0.4289,-0.4183,-0.4064,-0.3878,-0.3822,-0.3762,-0.3591,-0.3585,-0.3585,-0.3585,-0.3585,-0.3585,-0.3585,-0.3585,-0.3585,-0.3585,-0.3585,-0.3585,-0.3585,-0.3585,-0.3585,0.0,0.0,-0.281,-0.319,-0.2315,-0.1586,-0.2786,-0.2603,-0.2429,-0.3372,-0.295,-0.2664,-0.3624,-0.3515,-0.3666,-0.4729,-0.4879,-0.4928,-0.5007,-0.4923,-0.4787,-0.4351,-0.4642,-0.4866,-0.4898,-0.4349,-0.3921,-0.3763,-0.3928,-0.4296,-0.4803,-0.5032,-0.5461,-0.6123,-0.5761,-0.5746,-0.5972,-0.6168,-0.6165,-0.5966,-0.6208,-0.6285,-0.6208,-0.6285,-0.6255,-0.6157,-0.6116,-0.5997,-0.587,-0.5786,-0.5746,-0.5613,-0.5613,-0.5334,-0.4931,-0.5257,-0.4773,-0.3911,-0.3938,-0.3838,-0.3649,-0.3782,-0.4049,-0.4229,-0.4229,-0.4387,-0.4545,-0.4309,-0.4229,-0.4229,-0.3992,-0.3992,-0.3992,-0.4229,-0.4309,-0.4358,-0.4558,-0.4715,-0.4782,-0.4517,-0.4541,-0.4602,-0.4534,-0.4404,-0.43,-0.43,-0.43,-0.43,-0.43,-0.43,-0.43,-0.43,-0.4265,-0.4189,-0.4066,-0.4018,-0.3909,-0.3768,-0.3754,-0.3721,-0.3588,-0.3585,-0.3585,-0.3585,-0.3585,-0.3585,-0.3585,-0.3585,-0.3585,-0.3585,-0.3585,-0.3585,-0.3841,-0.3623,-0.3418,-0.4048,-0.3179,-0.2549,-0.3768,-0.3563,-0.3364,-0.4004,-0.3697,-0.3459,-0.4162,-0.4244,-0.4341,-0.4659,-0.4743,-0.4828,-0.4993,-0.4994,-0.4949,-0.495,-0.5007,-0.5018,-0.5018,-0.5102,-0.5116,-0.5031,-0.53,-0.5504,-0.5703,-0.5955,-0.6062,-0.6203,-0.6249,-0.617,-0.5969,-0.6124,-0.6124,-0.5969,-0.6043,-0.6121,-0.6203,-0.6233,-0.6187,-0.6094,-0.6246,-0.6225,-0.6092,-0.617,-0.613,-0.6026,-0.607,-0.5823,-0.5445,-0.5812,-0.5535,-0.4947,-0.4679,-0.4482,-0.4277,-0.4335,-0.4496,-0.4671,-0.4633,-0.4779,-0.5018,-0.5018,-0.5018,-0.5018,-0.5018,-0.5018,-0.5018,-0.5018,-0.5018,-0.4996,-0.4917,-0.4931,-0.4936,-0.4852,-0.4743,-0.4648,-0.4668,-0.4428,-0.43,-0.43,-0.43,-0.43,-0.43,-0.43,-0.43,-0.43,-0.43,-0.4251,-0.4126,-0.4118,-0.4031,-0.383,-0.3837,-0.3779,-0.3648,-0.3604,-0.3604,-0.3642,-0.3645,-0.3645,-0.3645,-0.3645,-0.3623,-0.3585,-0.3585,-0.3604,-0.4064,-0.4132,-0.4164,-0.4278,-0.4308,-0.4175,-0.3768,-0.3961,-0.4191,-0.3749,-0.3849,-0.4064,-0.3947,0.0,-0.4186,-0.4423,-0.464,-0.4738,-0.4982,-0.492,-0.4936,0.0,0.0,0.0,0.0,0.0,-0.5292,-0.5061,-0.5366,-0.5526,-0.5735,-0.5961,-0.6192,-0.642,-0.6317,-0.62,-0.6078,-0.607,-0.607,-0.6072,-0.585,-0.5863,-0.6081,-0.5964,-0.5972,-0.6078,-0.6083,-0.6078,-0.607,-0.6075,-0.6005,-0.5907,-0.6024,-0.5996,-0.5893,-0.5899,-0.5904,-0.5871,-0.5646,-0.5282,-0.5039,-0.5149,-0.5197,-0.5167,-0.5059,-0.5021,-0.5018,-0.5018,-0.5018,-0.5018,-0.5018,-0.5018,-0.5018,-0.5018,-0.5018,-0.5018,-0.5018,-0.5102,-0.5113,-0.4896,-0.4947,-0.4909,-0.4542,-0.439,-0.4314,-0.4303,-0.43,-0.43,-0.43,-0.43,-0.43,-0.43,-0.43,-0.4254,-0.4137,-0.4126,-0.4075,-0.3891,-0.3835,-0.3826,-0.382,-0.3659,-0.3653,-0.3818,-0.382,-0.382,-0.382,-0.382,-0.3765,-0.3602,-0.3602,-0.3661,-0.4213,-0.4317,-0.4387,-0.442,-0.4425,-0.4404,-0.4185,-0.4164,-0.4092,-0.3995,-0.391,-0.3838,-0.3806,-0.3898,0.0,-0.4306,-0.4518,0.0,-0.4982,-0.5061,0.0,-0.5178,0.0,-0.5439,-0.5499,-0.5589,-0.5578,-0.5426,-0.5583,-0.5738,-0.5852,-0.6002,-0.6154,-0.6306,-0.6195,-0.6072,-0.595,-0.5866,-0.5866,-0.595,-0.5888,-0.5939,-0.6083,-0.6053,-0.6007,-0.5956,-0.6045,-0.5986,-0.5831,-0.5915,-0.5882,-0.5779,-0.5812,-0.5803,-0.5787,-0.5871,-0.5904,-0.5893,-0.5833,-0.5628,-0.5405,-0.54,-0.5336,-0.5181,-0.5151,-0.5086,-0.5018,-0.5018,-0.5018,-0.5018,-0.5018,-0.5018,-0.5018,-0.5018,-0.5018,-0.5018,-0.5018,-0.504,-0.5067,-0.5091,-0.5121,-0.5029,-0.474,-0.4654,-0.4504,-0.4327,-0.43,-0.43,-0.43,-0.43,-0.43,-0.43,-0.43,-0.4287,-0.4257,-0.4254,-0.4202,-0.4077,-0.4042,-0.3985,-0.3892,-0.386,-0.386,-0.3887,-0.389,-0.389,-0.389,-0.389,-0.3873,-0.3844,-0.3844,-0.386,-0.4344,-0.4461,-0.4607,-0.4485,-0.4469,-0.4425,-0.4259,-0.4167,-0.4072,-0.3914,-0.3773,0.0,-0.3539,-0.3618,0.0,0.0,0.0,0.0,-0.4896,-0.508,-0.5205,0.0,-0.5483,0.0,-0.57,-0.5768,-0.5779,-0.5708,-0.5722,-0.5763,-0.5825,-0.5939,-0.6062,-0.6184,-0.607,-0.595,-0.5831,-0.5765,-0.5765,-0.5828,-0.5828,-0.5863,-0.5931,-0.5931,-0.5893,-0.5833,-0.5901,-0.5855,-0.5738,-0.5803,-0.5793,-0.5733,-0.5733,-0.5733,-0.5741,-0.5806,-0.5828,-0.5828,-0.5828,-0.5741,-0.5534,-0.548,-0.5458,-0.5336,-0.5284,-0.5184,-0.5091,-0.5091,-0.5056,-0.5018,-0.5018,-0.5018,-0.5018,-0.5018,-0.5018,-0.5018,-0.5018,-0.5018,-0.5034,-0.5099,-0.511,-0.5015,-0.4778,-0.4726,-0.4643,-0.4336,-0.43,-0.43,-0.43,-0.43,-0.43,-0.43,-0.43,-0.43,-0.43,-0.43,-0.427,-0.4202,-0.4148,-0.4085,-0.4018,-0.3902,-0.3899,-0.4012,-0.4015,-0.4015,-0.4015,-0.4015,-0.3988,-0.3872,-0.3872,-0.3963,-0.4439,-0.4618,-0.4676,-0.4496,-0.4458,-0.439,-0.4167,-0.408,-0.3958,-0.3648,0.0,-0.3466,-0.3237,-0.3322,-0.3531,-0.3857,0.0,-0.4425,-0.4784,-0.5037,-0.5233,-0.5355,-0.5613,-0.582,-0.5918,-0.5942,-0.5953,-0.5953,-0.5844,-0.5773,-0.5757,-0.585,-0.5945,-0.6037,-0.5934,-0.5833,-0.5735,-0.5733,-0.5733,-0.5733,-0.5733,-0.5733,-0.5733,-0.5733,-0.5733,-0.5733,-0.5733,-0.5733,-0.5733,-0.5733,-0.5733,-0.5733,-0.5733,-0.5733,-0.5733,-0.5733,-0.5733,-0.5733,-0.5733,-0.5733,-0.5716,-0.5523,-0.5478,-0.5532,-0.5426,-0.5295,-0.5186,-0.5186,-0.5105,-0.5018,-0.5018,-0.5018,-0.5018,-0.5018,-0.5018,-0.5018,-0.5018,-0.5018,-0.5021,-0.5037,-0.5053,-0.498,-0.4722,-0.4764,-0.461,-0.4341,-0.43,-0.43,-0.43,-0.43,-0.43,-0.43,-0.43,-0.43,-0.43,-0.43,-0.43,-0.43,-0.42,-0.4143,-0.4143,-0.4039,-0.4034,-0.414,-0.4143,-0.4143,-0.4143,-0.4143,-0.4085,-0.3985,-0.3985,-0.4039,-0.4439,-0.4485,-0.4496,-0.4474,-0.4398,-0.4292,-0.4151,-0.389,0.0,0.0,-0.3422,-0.324,-0.3056,-0.3338,-0.3604,-0.3818,0.0,0.0,0.0,0.0,-0.5233,0.0,-0.5757,-0.6032,-0.6051,-0.6146,-0.6206,-0.6206,-0.6092,-0.598,-0.588,-0.589,-0.5869,-0.5798,-0.5773,-0.5754,-0.5733,-0.5733,-0.5733,-0.5733,-0.5733,-0.5733,-0.5733,-0.5733,-0.5733,-0.5733,-0.5733,-0.5733,-0.5733,-0.5733,-0.5733,-0.5733,-0.5733,-0.5733,-0.5733,-0.5733,-0.5733,-0.5733,-0.5733,-0.5733,-0.573,-0.5708,-0.5632,-0.5459,-0.5526,-0.5363,-0.5186,-0.5186,-0.5105,-0.5018,-0.5018,-0.5018,-0.5018,-0.5018,-0.5018,-0.5018,-0.5018,-0.5018,-0.5045,-0.5137,-0.5238,-0.52,-0.486,-0.4887,-0.4806,-0.4365,-0.43,-0.43,-0.43,-0.43,-0.43,-0.43,-0.43,-0.43,-0.43,-0.43,-0.43,-0.43,-0.4281,-0.4268,-0.4268,-0.4249,-0.4246,-0.4268,-0.4268,-0.4268,-0.4268,-0.4268,-0.4259,-0.4238,-0.4238,-0.4249,-0.4439,-0.4515,-0.4621,-0.4485,-0.4384,-0.4235,-0.3985,0.0,0.0,0.0,-0.3161,-0.302,-0.2963,0.0,0.0,0.0,0.0,0.0,0.0,0.0,0.0,0.0,-0.5793,-0.6086,0.0,-0.614,-0.6173,-0.6173,-0.6005,-0.5931,-0.5994,-0.5937,-0.585,-0.5738,-0.5733,-0.5733,-0.5733,-0.5733,-0.5733,-0.5733,-0.5733,-0.5733,-0.5733,-0.5733,-0.5733,-0.5733,-0.5733,-0.5733,-0.5733,-0.5733,-0.5733,-0.5733,-0.5733,-0.5733,-0.5733,-0.5733,-0.5733,-0.5733,-0.5733,-0.5733,-0.5725,-0.5659,-0.5643,-0.5632,-0.5483,-0.5426,-0.5268,-0.5205,-0.5105,-0.5018,-0.5018,-0.5018,-0.5018,-0.5018,-0.5018,-0.5018,-0.5018,-0.5018,-0.5031,-0.5089,-0.5246,-0.5254,-0.4896,-0.4936,-0.4874,-0.4452,-0.4338,-0.43,-0.43,-0.43,-0.43,-0.43,-0.43,-0.43,-0.43,-0.43,-0.43,-0.43,-0.43,-0.43,-0.43,-0.43,-0.43,-0.43,-0.43,-0.43,-0.43,-0.43,-0.43,-0.43,-0.43,-0.43,-0.4371,-0.4485,-0.4553,-0.4458,-0.4327,-0.414,-0.3884,-0.3531,0.0,0.0,-0.2914,-0.2871,-0.2871,0.0,0.0,0.0,0.0,0.0,0.0,0.0,0.0,0.0,-0.5733,0.0,-0.6081,-0.6111,-0.6135,-0.6159,-0.5988,-0.592,-0.6005,-0.592,-0.5825,-0.5735,-0.5733,-0.5733,-0.5733,-0.5733,-0.5733,-0.5733,-0.5733,-0.5733,-0.5733,-0.5733,-0.5733,-0.5733,-0.5733,-0.5733,-0.5733,-0.5733,-0.5733,-0.5733,-0.5733,-0.5733,-0.5733,-0.5733,-0.5716,-0.5695,-0.5695,-0.5678,-0.564,-0.5542,-0.5594,-0.567,-0.5551,-0.5426,-0.5311,-0.5214,-0.5105,-0.5018,-0.5018,-0.5018,-0.5018,-0.5018,-0.5018,-0.5018,-0.5018,-0.5018,-0.5018,-0.5018,-0.5186,-0.5216,-0.4857,-0.4896,-0.4855,-0.4488,-0.4357,-0.43,-0.43,-0.43,-0.43,-0.43,-0.43,-0.43,-0.43,-0.43,-0.43,-0.43,-0.43,-0.43,-0.43,-0.43,-0.43,-0.43,-0.43,-0.43,-0.43,-0.43,-0.43,-0.43,-0.43,-0.43,-0.4148,-0.424,-0.433,-0.4319,-0.414,-0.3931,-0.3845,0.0,0.0,-0.2911,-0.2786,-0.2702,-0.2702,-0.2892,0.0,0.0,0.0,0.0,0.0,0.0,0.0,0.0,0.0,0.0,-0.6064,-0.6187,-0.6293,-0.6396,-0.6385,-0.6195,-0.5787,-0.5754,-0.5744,-0.5733,-0.5733,-0.5733,-0.5733,-0.5733,-0.5733,-0.5733,-0.5733,-0.5733,-0.5733,-0.5733,-0.5733,-0.5733,-0.5733,-0.5733,-0.5733,-0.5733,-0.5733,-0.5733,-0.5733,-0.5733,-0.5733,-0.5733,-0.5662,-0.548,-0.548,-0.5494,-0.5401,-0.539,-0.5469,-0.5545,-0.5423,-0.5301,-0.52,-0.5189,-0.5105,-0.5018,-0.5018,-0.5018,-0.5018,-0.5018,-0.5018,-0.5018,-0.5018,-0.5018,-0.5018,-0.5018,-0.5118,-0.5089,-0.4732,-0.477,-0.473,-0.4368,-0.4308,-0.43,-0.43,-0.43,-0.43,-0.43,-0.43,-0.43,-0.43,-0.43,-0.43,-0.43,-0.43,-0.43,-0.43,-0.43,-0.43,-0.43,-0.43,-0.43,-0.43,-0.43,-0.43,-0.43,-0.43,-0.43,-0.4099,-0.4208,-0.4284,-0.4284,-0.4066,-0.3868,-0.3722,0.0,-0.2906,-0.2783,-0.2622,-0.2564,-0.2672,-0.2824,-0.3017,0.0,-0.3333,-0.3531,-0.4012,0.0,0.0,0.0,-0.5339,0.0,0.0,-0.6021,-0.604,-0.6015,-0.6013,-0.5931,-0.5744,-0.5869,-0.588,-0.5738,-0.5733,-0.5733,-0.5733,-0.5801,-0.5801,-0.5735,-0.5803,-0.5801,-0.5733,-0.5733,-0.5733,-0.5733,-0.5733,-0.5733,-0.5733,-0.5733,-0.5733,-0.5733,-0.5733,-0.5733,-0.5725,-0.5651,-0.5505,-0.5454,-0.5466,-0.5409,-0.5358,-0.5284,-0.5292,-0.5322,-0.5273,-0.5224,-0.5173,-0.5102,-0.5053,-0.5018,-0.5018,-0.5018,-0.5018,-0.5018,-0.5018,-0.5018,-0.5018,-0.5018,-0.5018,-0.5018,-0.5108,-0.5118,-0.4909,-0.4852,-0.4762,-0.4545,-0.4393,-0.43,-0.43,-0.43,-0.43,-0.43,-0.43,-0.43,-0.43,-0.43,-0.43,-0.43,-0.43,-0.43,-0.43,-0.43,-0.43,-0.43,-0.43,-0.43,-0.43,-0.43,-0.43,-0.43,-0.43,-0.43,-0.3977,-0.4102,-0.4243,-0.4229,-0.3853,-0.3502,0.0,-0.3231,-0.2876,-0.2713,-0.2513,-0.2349,-0.2247,-0.2611,-0.2936,0.0,-0.3199,-0.3365,-0.3773,-0.3966,0.0,0.0,0.0,-0.5311,-0.5706,-0.5874,-0.5923,-0.5844,-0.5839,-0.5822,-0.5784,-0.5939,-0.5939,-0.5738,-0.5733,-0.5733,-0.5733,-0.5812,-0.5812,-0.5735,-0.5814,-0.5812,-0.5733,-0.5733,-0.5733,-0.5733,-0.5733,-0.5733,-0.5733,-0.5733,-0.5711,-0.5681,-0.5681,-0.5657,-0.5616,-0.5529,-0.5474,-0.5431,-0.5344,-0.5292,-0.5252,-0.5165,-0.5137,-0.5137,-0.5137,-0.5137,-0.5121,-0.504,-0.5018,-0.5018,-0.5018,-0.5018,-0.5018,-0.5018,-0.5018,-0.5018,-0.5018,-0.5018,-0.5018,-0.5018,-0.5053,-0.5045,-0.4928,-0.4809,-0.4686,-0.4567,-0.4409,-0.43,-0.43,-0.43,-0.43,-0.43,-0.43,-0.43,-0.43,-0.43,-0.43,-0.43,-0.43,-0.43,-0.43,-0.43,-0.43,-0.43,-0.43,-0.43,-0.43,-0.43,-0.43,-0.43,-0.43,-0.43,-0.3785,-0.3974,-0.4078,-0.4078,-0.337,-0.2772,0.0,-0.3231,-0.2835,-0.2634,-0.2478,-0.2151,-0.129,-0.2093,-0.2919,-0.289,-0.3104,-0.3368,-0.3555,-0.3789,0.0,0.0,0.0,-0.4925,-0.5328,-0.5803,-0.6083,-0.6081,-0.6081,-0.6029,-0.5907,-0.5904,-0.5852,-0.5738,-0.5733,-0.5733,-0.5733,-0.5735,-0.5735,-0.5733,-0.5735,-0.5735,-0.5733,-0.5733,-0.5733,-0.5733,-0.5733,-0.5733,-0.5733,-0.5733,-0.5662,-0.5464,-0.5464,-0.548,-0.5374,-0.5371,-0.5295,-0.5189,-0.5189,-0.5113,-0.5021,-0.5021,-0.5018,-0.5018,-0.5018,-0.5018,-0.5018,-0.5018,-0.5018,-0.5018,-0.5018,-0.5018,-0.5018,-0.5018,-0.5018,-0.5018,-0.5018,-0.5018,-0.5018,-0.5018,-0.492,-0.48,-0.4751,-0.4624,-0.4433,-0.4322,-0.4303,-0.43,-0.43,-0.43,-0.43,-0.43,-0.43,-0.43,-0.43,-0.43,-0.43,-0.43,-0.43,-0.43,-0.43,-0.43,-0.43,-0.43,-0.43,-0.43,-0.43,-0.43,-0.43,-0.43,-0.43,-0.43,-0.3376,-0.3597,-0.3605,-0.3059,-0.3047,-0.313,-0.3124,-0.2998,-0.2819,-0.2576,-0.2359,-0.1955,-0.1248,-0.1,-0.1108,-0.1772,0.0,0.0,0.0,0.0,0.0,-0.4387,-0.492,-0.5325,-0.5477,-0.5708,-0.5844,-0.5844,-0.5844,-0.5828,-0.5787,-0.5787,-0.5771,-0.5735,-0.5733,-0.5733,-0.5733,-0.5812,-0.5809,-0.5735,-0.5812,-0.5809,-0.5733,-0.5733,-0.5733,-0.5733,-0.5733,-0.5733,-0.5727,-0.5643,-0.5499,-0.5456,-0.5458,-0.5404,-0.536,-0.5276,-0.5219,-0.5175,-0.5097,-0.5048,-0.5018,-0.5018,-0.5018,-0.5018,-0.5018,-0.5018,-0.5018,-0.5018,-0.5018,-0.5018,-0.5018,-0.5018,-0.5018,-0.5018,-0.5018,-0.5018,-0.5018,-0.5018,-0.4991,-0.4909,-0.4928,-0.4893,-0.4762,-0.4693,-0.4624,-0.4433,-0.4349,-0.43,-0.43,-0.43,-0.43,-0.43,-0.43,-0.43,-0.43,-0.43,-0.43,-0.43,-0.43,-0.43,-0.43,-0.43,-0.43,-0.43,-0.43,-0.43,-0.43,-0.43,-0.43,-0.43,-0.43,-0.3761,0.0,-0.3235,-0.3245,-0.2797,-0.2966,-0.3174,-0.2942,-0.2669,-0.2501,-0.2631,-0.2374,-0.1798,-0.0875,-0.0305,-0.0322,-0.1383,-0.2197,0.0,0.0,0.0,0.0,-0.4436,0.0,-0.5216,-0.5344,-0.554,-0.5665,-0.5665,-0.5665,-0.5665,-0.5665,-0.5621,-0.5597,-0.5597,-0.564,-0.5665,-0.5665,-0.5735,-0.5735,-0.5665,-0.5782,-0.5801,-0.5733,-0.5733,-0.5733,-0.5733,-0.5733,-0.5706,0.0,-0.5494,-0.5496,-0.5407,-0.533,-0.5273,-0.5227,-0.5151,-0.5124,-0.5113,-0.5042,-0.5018,-0.5018,-0.5018,-0.5018,-0.5018,-0.5018,-0.5018,-0.5018,-0.5018,-0.5018,-0.5018,-0.5018,-0.5018,-0.5018,-0.5018,-0.5018,-0.5018,-0.5018,-0.5018,-0.4993,-0.4917,-0.489,-0.483,-0.4753,-0.4651,-0.4493,-0.4417,-0.4346,-0.43,-0.43,-0.43,-0.43,-0.43,-0.43,-0.43,-0.43,-0.43,-0.43,-0.43,-0.43,-0.43,-0.43,-0.43,-0.43,-0.43,-0.43,-0.43,-0.43,-0.43,-0.4303,-0.4306,-0.3761,-0.2952,0.0,-0.2866,-0.2877,-0.2954,-0.2916,-0.29,-0.2884,-0.2377,0.0,-0.2567,-0.229,-0.156,-0.0252,-0.0,-0.0407,-0.1596,-0.1794,0.0,0.0,-0.3868,0.0,0.0,-0.4716,-0.4904,-0.5018,-0.5336,-0.5451,-0.5451,-0.5451,-0.5451,-0.5451,-0.5431,-0.5368,-0.5368,-0.5472,-0.5443,-0.5451,-0.5451,-0.5451,-0.5454,-0.5654,-0.5708,-0.5708,-0.5708,-0.5708,-0.5708,-0.5708,-0.5643,-0.5451,-0.5443,-0.539,-0.5184,-0.5178,-0.511,-0.5018,-0.5018,-0.5018,-0.5018,-0.5018,-0.5018,-0.5018,-0.5018,-0.5018,-0.5018,-0.5018,-0.5018,-0.5018,-0.5018,-0.5018,-0.5018,-0.5018,-0.5018,-0.5018,-0.5018,-0.5018,-0.5018,-0.5018,-0.5018,-0.5015,-0.5007,-0.4828,-0.4745,-0.4729,-0.4471,-0.4322,-0.4314,-0.4306,-0.43,-0.43,-0.43,-0.43,-0.43,-0.43,-0.43,-0.43,-0.43,-0.43,-0.43,-0.43,-0.43,-0.43,-0.43,-0.43,-0.4303,-0.43,-0.43,-0.43,-0.43,-0.4306,-0.4247,-0.2889,-0.2283,-0.2099,0.0,-0.2496,-0.1769,-0.2247,-0.2891,0.0,-0.2772,-0.2261,0.0,0.0,-0.0403,-0.0044,-0.0,-0.0388,-0.1584,0.0,0.0,-0.3682,0.0,0.0,-0.4844,-0.5015,-0.5116,-0.5143,-0.5306,-0.5412,-0.5412,-0.5412,-0.5412,-0.5412,-0.5385,-0.5368,-0.5368,-0.5306,-0.5317,-0.5412,-0.5412,-0.5412,-0.5412,-0.5442,-0.5455,-0.5455,-0.5455,-0.5455,-0.5455,-0.5455,-0.5439,-0.5404,-0.5311,-0.5238,-0.5178,-0.5091,-0.504,-0.5018,-0.5018,-0.5018,-0.5018,-0.5018,-0.5018,-0.5018,-0.5018,-0.5018,-0.5018,-0.5018,-0.5018,-0.5018,-0.5018,-0.5018,-0.5018,-0.5018,-0.5018,-0.5018,-0.5018,-0.5018,-0.5018,-0.5018,-0.5018,-0.4988,-0.4896,-0.4906,-0.4874,-0.4759,-0.4679,-0.4539,-0.4444,-0.4355,-0.43,-0.43,-0.43,-0.43,-0.43,-0.43,-0.43,-0.43,-0.43,-0.43,-0.43,-0.43,-0.43,-0.43,-0.43,-0.4303,-0.4311,-0.4306,-0.43,-0.43,-0.43,-0.4306,-0.4314,-0.3912,-0.378,-0.1935,-0.2106,-0.1935,-0.1253,-0.135,-0.1786,-0.269,0.0,0.0,0.0,0.0,0.0,-0.1468,0.0,0.0,0.0,-0.2697,0.0,0.0,0.0,-0.467,-0.498,-0.5069,-0.5108,-0.5108,-0.5216,-0.5284,-0.5284,-0.5284,-0.5284,-0.5284,-0.5235,-0.5208,-0.5208,-0.5143,-0.5165,-0.5284,-0.5284,-0.5284,-0.5287,-0.5341,-0.5368,-0.5368,-0.5368,-0.5368,-0.5368,-0.5368,-0.5336,-0.5281,-0.5214,-0.5156,-0.5102,-0.504,-0.5018,-0.5018,-0.5018,-0.5018,-0.5018,-0.5018,-0.5018,-0.5018,-0.5018,-0.5018,-0.5018,-0.5018,-0.5018,-0.5018,-0.5018,-0.5018,-0.5018,-0.5018,-0.5018,-0.5018,-0.5018,-0.5018,-0.5018,-0.5018,-0.5018,-0.4996,-0.4931,-0.4925,-0.489,-0.476,-0.4689,-0.4682,-0.4488,-0.4417,-0.436,-0.4308,-0.43,-0.43,-0.43,-0.43,-0.43,-0.43,-0.43,-0.43,-0.43,-0.43,-0.4303,-0.4306,-0.3627,-0.3291,-0.3295,-0.3969,-0.4308,-0.4308,-0.4308,-0.4311,-0.4322,-0.4322,-0.3912,-0.1749,-0.165,-0.1429,-0.1155,-0.0538,-0.0458,0.0,0.0,0.0,0.0,0.0,0.0,0.0,0.0,0.0,0.0,0.0,0.0,-0.4464,-0.4646,-0.4743,-0.4988,-0.5018,-0.5018,-0.5018,-0.5105,-0.5162,-0.5162,-0.5162,-0.5162,-0.5162,-0.5069,-0.5018,-0.5018,-0.5018,-0.5064,-0.5159,-0.5162,-0.5162,-0.5162,-0.5265,-0.5317,-0.5317,-0.5317,-0.5317,-0.5317,-0.5317,-0.5257,-0.5162,-0.5162,-0.5105,-0.5018,-0.5018,-0.5018,-0.5018,-0.5018,-0.5018,-0.5018,-0.5018,-0.5018,-0.5018,-0.5018,-0.5018,-0.5018,-0.5018,-0.5018,-0.5018,-0.5018,-0.5018,-0.5018,-0.5018,-0.5018,-0.5018,-0.5018,-0.5018,-0.5018,-0.5018,-0.5018,-0.5018,-0.5018,-0.4934,-0.4863,-0.4863,-0.4762,-0.4637,-0.4515,-0.4482,-0.4428,-0.4314,-0.43,-0.43,-0.43,-0.43,-0.43,-0.43,-0.43,-0.4303,-0.4306,-0.41,-0.4036,-0.4317,-0.2688,-0.1812,-0.1811,-0.3025,-0.377,-0.3974,-0.418,-0.4319,-0.426,-0.3845,-0.3228,-0.0765,-0.1015,-0.1324,-0.1029,-0.0462,-0.0199,0.0,0.0,0.0,0.0,0.0,0.0,0.0,0.0,0.0,0.0,0.0,-0.4277,0.0,-0.4646,-0.4743,-0.4988,-0.5018,-0.5018,-0.5018,-0.5031,-0.5042,-0.5042,-0.5042,-0.5042,-0.5042,-0.5026,-0.5018,-0.5018,-0.5018,-0.5026,-0.5042,-0.5042,-0.5042,-0.5045,-0.5061,-0.5069,-0.5069,-0.5069,-0.5069,-0.5069,-0.5069,-0.5061,-0.5042,-0.5042,-0.5031,-0.5018,-0.5018,-0.5018,-0.5018,-0.5018,-0.5018,-0.5018,-0.5018,-0.5018,-0.5018,-0.5018,-0.5018,-0.5018,-0.5018,-0.5018,-0.5018,-0.5018,-0.5018,-0.5018,-0.5018,-0.5018,-0.5018,-0.5018,-0.5018,-0.5018,-0.5018,-0.5018,-0.5018,-0.5018,-0.5002,-0.4988,-0.4988,-0.4887,-0.4765,-0.4715,-0.4607,-0.4428,-0.4314,-0.43,-0.43,-0.43,-0.43,-0.43,-0.43,-0.43,-0.4308,-0.4322,-0.3161,-0.3025,-0.4258,-0.1752,-0.0336,-0.0336,-0.0537,-0.1276,-0.2417,-0.3708,-0.4327,-0.426,-0.1819,-0.1817,-0.0479,-0.065,-0.0908,-0.0904,-0.0708,-0.045,0.0,0.0,0.0,0.0,0.0,0.0,0.0,0.0,-0.2854,-0.3641,0.0,-0.4369,-0.4599,-0.469,-0.4743,-0.4988,-0.5018,-0.5018,-0.5018,-0.5018,-0.5018,-0.5018,-0.5018,-0.5018,-0.5018,-0.5018,-0.5018,-0.5018,-0.5018,-0.5018,-0.5018,-0.5018,-0.5018,-0.5018,-0.5018,-0.5018,-0.5018,-0.5018,-0.5018,-0.5018,-0.5018,-0.5018,-0.5018,-0.5018,-0.5018,-0.5018,-0.5018,-0.5018,-0.5018,-0.5018,-0.5018,-0.5018,-0.5018,-0.5018,-0.5018,-0.5018,-0.5018,-0.5018,-0.5018,-0.5018,-0.5018,-0.5018,-0.5018,-0.5018,-0.5018,-0.5018,-0.5018,-0.5018,-0.5018,-0.5018,-0.5018,-0.5018,-0.5018,-0.5018,-0.5018,-0.5018,-0.5018,-0.4972,-0.4868,-0.4753,-0.4676,-0.4504,-0.4322,-0.43,-0.43,-0.43,-0.43,-0.43,-0.43,-0.3558,-0.3431,-0.4258,-0.2221,-0.1278,-0.1955,-0.0674,-0.0,-0.0,-0.0,-0.0336,-0.0941,-0.1616,-0.1955,-0.1955,-0.1412,-0.1814,-0.0414,-0.0435,-0.0523,-0.076,0.0,0.0,-0.029,0.0,0.0,0.0,0.0,0.0,0.0,-0.1706,0.0,-0.3651,-0.4069,-0.4408,-0.464,-0.4682,-0.4692,-0.4906,-0.4931,-0.4942,-0.4972,-0.4974,-0.4985,-0.5015,-0.5018,-0.5018,-0.5018,-0.5018,-0.5018,-0.5018,-0.5018,-0.5018,-0.5018,-0.5018,-0.5018,-0.5018,-0.5018,-0.5018,-0.5018,-0.5018,-0.5018,-0.5018,-0.5018,-0.5018,-0.5018,-0.5018,-0.5018,-0.5018,-0.5018,-0.5018,-0.5018,-0.5018,-0.5018,-0.5018,-0.5018,-0.5018,-0.5018,-0.5018,-0.5018,-0.5018,-0.5018,-0.5018,-0.5018,-0.5018,-0.5018,-0.5018,-0.5018,-0.5015,-0.5093,-0.5018,-0.5096,-0.5093,-0.5018,-0.5015,-0.5093,-0.5018,-0.5018,-0.5018,-0.5018,-0.4993,-0.4901,-0.4759,-0.4701,-0.4534,-0.4327,-0.43,-0.43,-0.43,-0.43,-0.4303,-0.4303,-0.3293,-0.2825,-0.3238,-0.1212,-0.0,-0.0,-0.0,-0.0,-0.0,-0.0,-0.0,-0.0,-0.0,-0.0,-0.0067,-0.1816,-0.2621,-0.0463,-0.0414,-0.0378,-0.0574,0.0,0.0,-0.0736,0.0,0.0,0.0,0.0,0.0,0.0,-0.2648,-0.3992,-0.3572,-0.3942,-0.4403,-0.4677,-0.4624,-0.4531,-0.4737,-0.4753,-0.4722,-0.4836,-0.4847,-0.4896,-0.501,-0.5018,-0.5018,-0.5018,-0.5018,-0.5018,-0.5018,-0.5018,-0.5018,-0.5018,-0.5018,-0.5018,-0.5018,-0.5018,-0.5018,-0.5018,-0.5018,-0.5018,-0.5018,-0.5018,-0.5018,-0.5018,-0.5018,-0.5018,-0.5018,-0.5018,-0.5018,-0.5018,-0.5018,-0.5018,-0.5018,-0.5018,-0.5018,-0.5018,-0.5018,-0.5018,-0.5018,-0.5018,-0.5018,-0.5018,-0.5018,-0.5018,-0.5018,-0.5018,-0.5168,-0.5243,-0.5015,-0.5249,-0.5482,-0.5096,-0.5168,-0.5246,-0.5015,-0.5018,-0.5018,-0.5018,-0.4923,-0.4803,-0.4745,-0.4626,-0.4439,-0.4317,-0.43,-0.43,-0.43,-0.43,-0.4306,-0.4314,-0.4185,-0.3032,-0.047,-0.0135,-0.0,-0.0,-0.0,-0.0,-0.0,-0.0,-0.0,-0.0,-0.0,-0.0,-0.0067,-0.2833,-0.4118,-0.0426,-0.0443,-0.048,-0.0626,0.0,0.0,0.0,0.0,0.0,0.0,0.0,0.0,0.0,0.0,-0.3454,-0.3505,-0.4137,-0.4678,-0.4876,-0.4752,-0.4658,-0.4784,-0.4726,-0.4742,-0.4716,-0.4722,-0.477,-0.4896,-0.4904,-0.4936,-0.5012,-0.4944,-0.4939,-0.5015,-0.4942,-0.4939,-0.5015,-0.5018,-0.5018,-0.5018,-0.5018,-0.5018,-0.5018,-0.5018,-0.5018,-0.5018,-0.5171,-0.5168,-0.5168,-0.5326,-0.5404,-0.5404,-0.5404,-0.5404,-0.5404,-0.5404,-0.5404,-0.5404,-0.5404,-0.5404,-0.5404,-0.5404,-0.5404,-0.5404,-0.5404,-0.5404,-0.5404,-0.5404,-0.5404,-0.5326,-0.5246,-0.5243,-0.5243,-0.5168,-0.5323,-0.5323,-0.5096,-0.5093,-0.5093,-0.5018,-0.5018,-0.4993,-0.4915,-0.4866,-0.4768,-0.4569,-0.4499,-0.4428,-0.4314,-0.43,-0.43,-0.43,-0.3758,-0.3692,-0.4244,-0.4322,-0.3849,-0.2762,-0.101,-0.0,-0.0,-0.1752,-0.182,-0.0067,-0.0,-0.0,-0.0,-0.182,-0.2698,-0.2698,-0.3773,-0.4308,-0.041,-0.0461,-0.0513,0.0,0.0,0.0,0.0,0.0,0.0,0.0,0.0,0.0,0.0,0.0,0.0,-0.3359,-0.4159,-0.4861,-0.5024,-0.4831,-0.4795,-0.4886,-0.4754,-0.4697,-0.4808,-0.4668,-0.4718,-0.4842,-0.4776,-0.4814,-0.4898,-0.4822,-0.4814,-0.4898,-0.4822,-0.4894,-0.4977,-0.5053,-0.5053,-0.5053,-0.5053,-0.5095,-0.5093,-0.5171,-0.5174,-0.5174,-0.5323,-0.5401,-0.5401,-0.5559,-0.5637,-0.5637,-0.5637,-0.5637,-0.5637,-0.5637,-0.5637,-0.5637,-0.5637,-0.5637,-0.5637,-0.5637,-0.5637,-0.5637,-0.5637,-0.5637,-0.5637,-0.5637,-0.5637,-0.5559,-0.5476,-0.5476,-0.5398,-0.5321,-0.5398,-0.5398,-0.5093,-0.5065,-0.5126,-0.501,-0.4985,-0.4944,-0.4901,-0.4828,-0.4719,-0.4553,-0.4463,-0.4387,-0.4311,-0.43,-0.43,-0.43,-0.3756,-0.3625,-0.4244,-0.3842,-0.3777,-0.4258,-0.2426,-0.1145,-0.0673,-0.2559,-0.2896,-0.1414,-0.0873,-0.0672,-0.0673,-0.2626,-0.3847,-0.4325,-0.4308,-0.43,-0.0387,-0.0463,0.0,0.0,0.0,0.0,0.0,0.0,0.0,0.0,0.0,-0.1012,-0.0983,-0.2344,-0.342,-0.3259,-0.408,-0.4894,-0.509,-0.496,-0.4831,-0.4831,-0.4694,-0.4678,-0.4951,-0.468,-0.4591,-0.4862,-0.4798,-0.4723,-0.4726,-0.4723,-0.4723,-0.4726,-0.4798,-0.4873,-0.4873,-0.5084,-0.5225,-0.5225,-0.5225,-0.522,-0.5318,-0.5479,-0.5637,-0.5637,-0.5637,-0.5637,-0.5637,-0.5637,-0.5637,-0.5637,-0.5637,-0.5637,-0.5637,-0.5637,-0.5637,-0.5637,-0.5637,-0.5637,-0.5637,-0.5637,-0.5637,-0.5637,-0.5637,-0.5637,-0.5637,-0.5637,-0.5637,-0.5637,-0.5864,-0.5789,-0.5559,-0.5321,-0.5631,-0.5709,-0.5093,-0.5228,-0.54,-0.5068,-0.4917,-0.4871,-0.4991,-0.4811,-0.4723,-0.4723,-0.445,-0.43,-0.43,-0.43,-0.43,-0.43,-0.43,-0.4306,-0.4314,-0.2956,-0.2753,-0.418,-0.4322,-0.3641,-0.2214,-0.2147,-0.282,-0.4247,-0.2889,-0.2147,-0.2147,-0.2147,-0.2889,-0.4314,-0.4306,-0.43,-0.0396,-0.0476,0.0,0.0,0.0,0.0,0.0,0.0,0.0,0.0,-0.0975,-0.0984,-0.1014,-0.2224,-0.3242,-0.3204,-0.4341,-0.5226,-0.5292,-0.516,-0.5024,-0.5024,-0.4827,-0.4779,-0.4818,-0.4754,-0.481,-0.4944,-0.4953,-0.4921,-0.5078,-0.493,-0.4921,-0.5081,-0.5,-0.4997,-0.5084,-0.5156,-0.5225,-0.5225,-0.5375,-0.5396,-0.5339,-0.5418,-0.5545,-0.5631,-0.5682,-0.5695,-0.5786,-0.6025,-0.6106,-0.6106,-0.6106,-0.6106,-0.6106,-0.6106,-0.6106,-0.6106,-0.6106,-0.6106,-0.6106,-0.6106,-0.6106,-0.6106,-0.6106,-0.6106,-0.6106,-0.6106,-0.6106,-0.6106,-0.618,-0.587,-0.5637,-0.5709,-0.5709,-0.5634,-0.5246,-0.514,-0.5101,-0.4898,-0.493,-0.4935,-0.4656,-0.4646,-0.4638,-0.4417,-0.4346,-0.43,-0.43,-0.43,-0.43,-0.43,-0.43,-0.4303,-0.4306,-0.3286,-0.322,-0.4509,-0.4375,-0.4105,-0.3634,-0.3627,-0.3832,-0.4314,-0.3899,-0.3627,-0.3634,-0.3627,-0.3897,-0.4306,-0.4303,-0.43,-0.0471,0.0,0.0,0.0,0.0,0.0,0.0,0.0,0.0,0.0,0.0,-0.1711,-0.1701,-0.2717,-0.3547,-0.3523,-0.4602,-0.5428,-0.5428,-0.5292,-0.5223,-0.5223,-0.5027,-0.496,-0.503,-0.4897,-0.4864,-0.5015,-0.4953,-0.4989,-0.5066,-0.4996,-0.4989,-0.5066,-0.5061,-0.5058,-0.5136,-0.5208,-0.5278,-0.5278,-0.5421,-0.5496,-0.5495,-0.5549,-0.5619,-0.5695,-0.5754,-0.5764,-0.5845,-0.6002,-0.6115,-0.6162,-0.6101,-0.6115,-0.6162,-0.6101,-0.6078,-0.6088,-0.6149,-0.6169,-0.6179,-0.624,-0.6338,-0.6338,-0.6338,-0.6338,-0.6247,-0.6186,-0.6166,-0.6076,-0.6095,-0.5852,-0.5578,-0.5761,-0.5591,-0.5399,-0.5243,-0.5089,-0.5015,-0.4987,-0.5015,-0.5017,-0.4841,-0.4714,-0.4657,-0.4515,-0.4397,-0.43,-0.4431,-0.4431,-0.4431,-0.4498,-0.45,-0.45,-0.4436,-0.3961,-0.3894,-0.4643,-0.4573,-0.4439,-0.4308,-0.4303,-0.4303,-0.4308,-0.4303,-0.437,-0.4439,-0.4434,-0.4431,-0.4431,-0.4431,-0.4364,0.0,0.0,0.0,0.0,0.0,0.0,0.0,0.0,-0.2805,-0.2696,0.0,-0.2726,-0.2814,-0.3444,-0.4033,-0.4085,-0.4789,-0.5411,-0.5425,-0.5428,-0.5428,-0.5428,-0.5223,-0.5223,-0.5362,-0.5096,-0.496,-0.5087,-0.496,-0.4831,-0.4831,-0.4831,-0.4831,-0.4831,-0.5024,-0.5153,-0.5153,-0.5292,-0.5428,-0.5428,-0.5428,-0.5433,-0.5576,-0.5718,-0.5783,-0.5783,-0.5796,-0.5793,-0.5783,-0.5796,-0.5884,-0.5993,-0.5857,-0.5884,-0.5993,-0.585,-0.58,-0.582,-0.5962,-0.601,-0.603,-0.6173,-0.6217,-0.6217,-0.6217,-0.6217,-0.619,-0.6047,-0.5858,-0.5825,-0.5765,-0.5663,-0.5514,-0.5542,-0.5351,-0.511,-0.511,-0.5144,-0.5145,-0.5188,-0.5115,-0.5069,-0.5173,-0.495,-0.4732,-0.4735,-0.4504,-0.4431,-0.4628,-0.4625,-0.4694,-0.4764,-0.4831,-0.4767,-0.4709,-0.4709,-0.4709,-0.4706,-0.4709,-0.4573,-0.4367,-0.43,-0.43,-0.43,-0.43,-0.4431,-0.4625,-0.4625,-0.4625,-0.4625,-0.4625,-0.4495,0.0,0.0,0.0,0.0,0.0,0.0,0.0,0.0,-0.3863,-0.2917,-0.2698,-0.2726,-0.2814,-0.3383,-0.391,-0.4085,-0.4705,-0.5223,-0.5411,-0.5428,-0.5428,-0.5428,-0.5362,-0.5359,-0.5428,-0.5296,-0.5296,-0.5359,-0.5292,-0.5296,-0.5296,-0.5296,-0.5296,-0.5296,-0.5296,-0.5359,-0.5359,-0.5362,-0.5428,-0.5428,-0.5428,-0.5446,-0.5416,-0.5566,-0.5637,-0.564,-0.5752,-0.5739,-0.5644,-0.5755,-0.582,-0.5847,-0.5813,-0.582,-0.5847,-0.5813,-0.58,-0.5806,-0.5837,-0.585,-0.5857,-0.5888,-0.5901,-0.5901,-0.5901,-0.5901,-0.5895,-0.5861,-0.585,-0.5771,-0.581,-0.5663,-0.5535,-0.5526,-0.5444,-0.5419,-0.5419,-0.53,-0.516,-0.509,-0.512,-0.5142,-0.4928,-0.4956,-0.4934,-0.4803,-0.4715,-0.4697,-0.4761,-0.4761,-0.4764,-0.4831,-0.4831,-0.4764,-0.4767,-0.4767,-0.4831,-0.5027,-0.4897,-0.4764,-0.4697,-0.4434,-0.4367,-0.4561,-0.4561,-0.4628,-0.4761,-0.4761,-0.4694,-0.4625,-0.4625,-0.4495,0.0,0.0,0.0,0.0,0.0,0.0,0.0,0.0,-0.4317,-0.3707,-0.355,-0.3569,-0.3629,-0.3926,-0.4288,-0.4354,-0.4732,-0.5057,-0.5138,-0.5206,-0.5226,-0.5159,-0.5274,-0.5332,-0.5257,-0.5318,-0.5428,-0.5428,-0.5428,-0.5428,-0.5428,-0.5428,-0.5428,-0.5428,-0.5428,-0.5428,-0.5428,-0.5428,-0.5428,-0.5428,-0.5428,-0.5428,-0.5432,-0.5443,-0.5481,-0.5484,-0.5559,-0.5549,-0.5488,-0.5559,-0.5633,-0.5691,-0.562,-0.5637,-0.5691,-0.562,-0.5589,-0.5599,-0.5674,-0.5701,-0.5711,-0.5779,-0.58,-0.58,-0.58,-0.58,-0.5786,-0.5718,-0.5627,-0.554,-0.561,-0.5451,-0.5316,-0.5458,-0.537,-0.5281,-0.5419,-0.5291,-0.5152,-0.5154,-0.5274,-0.5315,-0.5106,-0.509,-0.5024,-0.4831,-0.4831,-0.4831,-0.496,-0.4957,-0.496,-0.5096,-0.5096,-0.5096,-0.5096,-0.5096,-0.5093,-0.5087,-0.5024,-0.4894,-0.4831,-0.4631,-0.4564,-0.4625,-0.4694,-0.4761,-0.4957,-0.4827,-0.4764,-0.4694,-0.4625,-0.4495,0.0,0.0,0.0,0.0,0.0,0.0,0.0,-0.4519,-0.4519,-0.4519,-0.4519,-0.4519,-0.4519,-0.4565,-0.466,-0.4687,-0.4799,-0.4891,-0.4914,-0.502,-0.505,-0.4931,-0.5135,-0.5237,-0.5104,-0.5209,-0.5284,-0.5284,-0.5284,-0.5298,-0.5321,-0.5321,-0.5332,-0.5428,-0.5428,-0.5428,-0.5428,-0.5428,-0.5428,-0.5428,-0.5428,-0.5428,-0.5428,-0.5428,-0.5428,-0.5428,-0.5428,-0.5428,-0.5428,-0.5428,-0.5437,-0.5538,-0.541,-0.544,-0.5535,-0.541,-0.5428,-0.5446,-0.5508,-0.5552,-0.5569,-0.5688,-0.5725,-0.5725,-0.5725,-0.5725,-0.5701,-0.5583,-0.548,-0.531,-0.5393,-0.5292,-0.5223,-0.5359,-0.5254,-0.5136,-0.5271,-0.5241,-0.5223,-0.5362,-0.5428,-0.5428,-0.5428,-0.5292,-0.509,-0.496,-0.4897,-0.496,-0.5156,-0.5156,-0.5223,-0.5362,-0.5428,-0.5428,-0.5428,-0.5428,-0.5359,-0.5156,-0.5156,-0.509,-0.4827,-0.4894,-0.4827,-0.4691,-0.4827,-0.496,-0.5156,-0.496,-0.4831,-0.4831,-0.4694,-0.4495,0.0,0.0,0.0,0.0,0.0,0.0,0.0,0.0,-0.4519,0.0,-0.4519,-0.4519,-0.4519,-0.4536,-0.4591,-0.467,-0.4707,-0.4769,-0.4901,-0.4935,-0.4942,-0.4921,-0.4955,-0.4969,-0.4948,-0.4965,-0.4979,-0.4979,-0.4979,-0.5033,-0.5155,-0.5162,-0.5223,-0.5425,-0.5428,-0.5428,-0.5428,-0.5428,-0.5428,-0.5428,-0.5428,-0.5428,-0.5428,-0.5428,-0.5428,-0.5428,-0.5428,-0.5428,-0.5428,-0.5428,-0.5439,-0.5456,-0.5435,-0.5439,-0.5456,-0.5435,-0.5428,-0.5432,-0.5452,-0.5459,-0.5463,-0.548,-0.542,-0.542,-0.542,-0.542,-0.5483,-0.5463,-0.5389,-0.5386,-0.5365,-0.5362,-0.5362,-0.5362,-0.5379,-0.5326,-0.5393,-0.5376,-0.5362,-0.5428,-0.5428,-0.5428,-0.5428,-0.5362,-0.5359,-0.5296,-0.5296,-0.5362,-0.5359,-0.5359,-0.5362,-0.5428,-0.5428,-0.5428,-0.5428,-0.5428,-0.5362,-0.5362,-0.5359,-0.5292,-0.5087,-0.5226,-0.5226,-0.502,-0.502,-0.5156,-0.5359,-0.5156,-0.4957,-0.4831,-0.4694,-0.4495,0.0,0.0,0.0,0.0,0.0,0.0,0.0,0.0,-0.4519,-0.4519,-0.4519,-0.4519,-0.4519,-0.4519,-0.4539,-0.4551,-0.4562,-0.4585,-0.4653,-0.4735,-0.4758,-0.4674,-0.4816,-0.4884,-0.4799,-0.4867,-0.4918,-0.4918,-0.4918,-0.4945,-0.5009,-0.5013,-0.5043,-0.5111,-0.5114,-0.5114,-0.5114,-0.5114,-0.5155,-0.5233,-0.5233,-0.5277,-0.5428,-0.5428,-0.5428,-0.5428,-0.5428,-0.5428,-0.5428,-0.5428,-0.5428,-0.5428,-0.5428,-0.5428,-0.5428,-0.5428,-0.5428,-0.5428,-0.5428,-0.5428,-0.5428,-0.5428,-0.5428,-0.5428,-0.5428,-0.5428,-0.5428,-0.5428,-0.5428,-0.5428,-0.5428,-0.5428,-0.5428,-0.5428,-0.5428,-0.5428,-0.5428,-0.5428,-0.5428,-0.5428,-0.5428,-0.5428,-0.5428,-0.5428,-0.5428,-0.5428,-0.5428,-0.5428,-0.5428,-0.5428,-0.5428,-0.5428,-0.5428,-0.5428,-0.5428,-0.5428,-0.5428,-0.5428,-0.5428,-0.5359,-0.5292,-0.5359,-0.5359,-0.5292,-0.5292,-0.5292,-0.5428,-0.5093,-0.4894,-0.4764,-0.4564,-0.4431,0.0,0.0,0.0,0.0,0.0,0.0,0.0,0.0,-0.4419,-0.4512,-0.4519,-0.4519,-0.4519,-0.4519,-0.4519,-0.4519,-0.4519,-0.4519,-0.4519,-0.4562,-0.4589,-0.4532,-0.4663,-0.4758,-0.4643,-0.4735,-0.4802,-0.4802,-0.4802,-0.4819,-0.486,-0.486,-0.4877,-0.4918,-0.4918,-0.4918,-0.4918,-0.4918,-0.4989,-0.5131,-0.5131,-0.5213,-0.5428,-0.5428,-0.5428,-0.5428,-0.5428,-0.5428,-0.5428,-0.5428,-0.5428,-0.5428,-0.5428,-0.5428,-0.5428,-0.5428,-0.5428,-0.5428,-0.5428,-0.5428,-0.5428,-0.5428,-0.5428,-0.5428,-0.5428,-0.5428,-0.5428,-0.5428,-0.5428,-0.5428,-0.5428,-0.5428,-0.5428,-0.5428,-0.5428,-0.5428,-0.5428,-0.5428,-0.5428,-0.5428,-0.5428,-0.5428,-0.5428,-0.5428,-0.5428,-0.5428,-0.5428,-0.5428,-0.5428,-0.5428,-0.5428,-0.5428,-0.5428,-0.5428,-0.5428,-0.5428,-0.5428,-0.5428,-0.5428,-0.5428,-0.5428,-0.5428,-0.5428,-0.5428,-0.5428,-0.5428,-0.5428,-0.5027,-0.4894,-0.4894,-0.4564,-0.4498,0.0,0.0,0.0,0.0,0.0,0.0,0.0,0.0,-0.4244,-0.4433,-0.4519,-0.4519,-0.4519,-0.4519,-0.4519,-0.4519,-0.4519,-0.4519,-0.4519,-0.4525,-0.4525,-0.4519,-0.4532,-0.4539,-0.4529,-0.4536,-0.4543,-0.4543,-0.4543,-0.4551,-0.4694,-0.4704,-0.4769,-0.4914,-0.4918,-0.4918,-0.4918,-0.4918,-0.4989,-0.5131,-0.5131,-0.5213,-0.5428,-0.5428,-0.5428,-0.5428,-0.5428,-0.5428,-0.5428,-0.5428,-0.5428,-0.5428,-0.5428,-0.5428,-0.5428,-0.5428,-0.5428,-0.5428,-0.5428,-0.5428,-0.5428,-0.5428,-0.5428,-0.5428,-0.5428,-0.5428,-0.5428,-0.5428,-0.5428,-0.5428,-0.5428,-0.5428,-0.5428,-0.5428,-0.5428,-0.5428,-0.5428,-0.5428,-0.5428,-0.5428,-0.5428,-0.5428,-0.5428,-0.5428,-0.5428,-0.5428,-0.5428,-0.5428,-0.5428,-0.5428,-0.5428,-0.5428,-0.5428,-0.5428,-0.5428,-0.5428,-0.5428,-0.5428,-0.5428,-0.5428,-0.5428,-0.5428,-0.5428,-0.5428,-0.5428,-0.5428,-0.5428,-0.5156,-0.509,-0.509,-0.4894,-0.4764,0.0,0.0,0.0,0.0,0.0,-0.3633,-0.3887,-0.4029,-0.4093,-0.4294,-0.4324,-0.4355,-0.4498,-0.4519,-0.4519,-0.4519,-0.4519,-0.4519,-0.4519,-0.4519,-0.4519,-0.4519,-0.4519,-0.4519,-0.4519,-0.4519,-0.4519,-0.4519,-0.4519,-0.4543,-0.4541,-0.4545,-0.4568,-0.4623,-0.4626,-0.4626,-0.4626,-0.4626,-0.4701,-0.485,-0.485,-0.4928,-0.5081,-0.5172,-0.5162,-0.5087,-0.5277,-0.5428,-0.5428,-0.5428,-0.5428,-0.5428,-0.5428,-0.5428,-0.5428,-0.5428,-0.5428,-0.5428,-0.5428,-0.5428,-0.5428,-0.5428,-0.5428,-0.5428,-0.5428,-0.5428,-0.5428,-0.5428,-0.5428,-0.5428,-0.5428,-0.5428,-0.5428,-0.5428,-0.5428,-0.5428,-0.5428,-0.5428,-0.5428,-0.5428,-0.5428,-0.5428,-0.5428,-0.5428,-0.5428,-0.5428,-0.5428,-0.5428,-0.5428,-0.5428,-0.5428,-0.5428,-0.5428,-0.5428,-0.5428,-0.5428,-0.5428,-0.5428,-0.5428,-0.5428,-0.5428,-0.5428,-0.5428,-0.5428,-0.5428,-0.5428,-0.5428,-0.5223,-0.5087,-0.5087,-0.4894,-0.4894,0.0,0.0,0.0,0.0,0.0,-0.3221,-0.368,-0.3792,-0.3819,-0.407,-0.4313,-0.4534,-0.4689,-0.4914,-0.4956,-0.4574,-0.4625,-0.4791,-0.4791,-0.4952,-0.5066,-0.5066,-0.5066,-0.5066,-0.5066,-0.4901,-0.4791,-0.4791,-0.4625,-0.4519,-0.4519,-0.4519,-0.4519,-0.4519,-0.4519,-0.4519,-0.4519,-0.4519,-0.4538,-0.4691,-0.4691,-0.4772,-0.4921,-0.5016,-0.5009,-0.4928,-0.5128,-0.524,-0.5287,-0.5342,-0.5428,-0.5428,-0.5428,-0.5428,-0.5428,-0.5428,-0.5428,-0.5428,-0.5428,-0.5428,-0.5428,-0.5428,-0.5428,-0.5428,-0.5428,-0.5428,-0.5428,-0.5428,-0.5428,-0.5428,-0.5428,-0.5428,-0.5428,-0.5428,-0.5428,-0.5428,-0.5428,-0.5428,-0.5428,-0.5428,-0.5428,-0.5428,-0.5428,-0.5428,-0.5428,-0.5428,-0.5428,-0.5428,-0.5428,-0.5428,-0.5428,-0.5428,-0.5428,-0.5428,-0.5428,-0.5428,-0.5428,-0.5428,-0.5428,-0.5428,-0.5428,-0.5428,-0.5428,-0.5428,-0.5428,-0.5428,-0.5428,-0.5292,-0.5223,-0.5223,-0.5093,-0.5027,0.0,0.0,0.0,0.0,0.0,0.0,-0.3602,-0.3534,-0.3456,-0.3914,-0.4564,-0.5087,-0.5103,-0.5681,-0.5819,-0.4728,-0.5003,-0.5332,-0.5332,-0.5823,-0.6209,-0.6209,-0.6209,-0.6209,-0.6209,-0.5664,-0.5332,-0.5332,-0.4846,-0.4515,-0.4515,-0.4519,-0.4519,-0.4519,-0.4519,-0.4519,-0.4519,-0.4519,-0.4591,-0.4684,-0.4684,-0.4762,-0.4904,-0.4911,-0.4911,-0.4908,-0.4914,-0.4996,-0.5131,-0.5287,-0.5422,-0.5422,-0.5425,-0.5428,-0.5428,-0.5428,-0.5428,-0.5428,-0.5428,-0.5428,-0.5428,-0.5428,-0.5428,-0.5428,-0.5428,-0.5428,-0.5428,-0.5428,-0.5428,-0.5428,-0.5428,-0.5428,-0.5428,-0.5428,-0.5428,-0.5428,-0.5428,-0.5428,-0.5428,-0.5428,-0.5428,-0.5428,-0.5428,-0.5428,-0.5428,-0.5428,-0.5428,-0.5428,-0.5428,-0.5428,-0.5428,-0.5428,-0.5428,-0.5428,-0.5428,-0.5428,-0.5428,-0.5428,-0.5428,-0.5428,-0.5428,-0.5428,-0.5428,-0.5428,-0.5428,-0.5428,-0.5428,-0.5428,-0.5428,-0.5428,-0.5428,-0.5292,-0.1833,0.0,0.0,0.0,0.0,0.0,-0.327,-0.3353,-0.361,-0.4416,-0.4576,-0.4726,-0.5251,-0.564,-0.5829,-0.5514,-0.5735,-0.5937,-0.5937,-0.61,-0.6209,-0.6209,-0.6209,-0.6209,-0.6209,-0.6041,-0.5937,-0.5937,-0.5391,-0.5062,-0.5062,-0.4736,-0.4519,-0.4519,-0.4519,-0.4519,-0.4519,-0.4519,-0.4539,-0.458,-0.458,-0.4548,-0.4592,-0.4704,-0.4694,-0.4602,-0.4823,-0.4877,-0.4833,-0.5087,-0.5196,-0.5206,-0.5318,-0.5428,-0.5428,-0.5428,-0.5428,-0.5428,-0.5428,-0.5428,-0.5428,-0.5428,-0.5428,-0.5428,-0.5428,-0.5428,-0.5428,-0.5428,-0.5428,-0.5428,-0.5428,-0.5428,-0.5428,-0.5428,-0.5428,-0.5428,-0.5428,-0.5428,-0.5428,-0.5428,-0.5428,-0.5428,-0.5428,-0.5428,-0.5428,-0.5428,-0.5428,-0.5428,-0.5428,-0.5428,-0.5428,-0.5428,-0.5428,-0.5428,-0.5428,-0.5428,-0.5428,-0.5428,-0.5428,-0.5428,-0.5428,-0.5428,-0.5428,-0.5428,-0.5428,-0.5428,-0.5428,-0.5428,-0.5428,-0.5428,-0.5428,-0.5362,0.0,0.0,0.0,0.0,0.0,0.0,-0.35,-0.3486,-0.357,-0.44,-0.4683,-0.4912,-0.5433,-0.5889,-0.6269,-0.6363,-0.6618,-0.6749,-0.6578,-0.6756,-0.6918,-0.6918,-0.6918,-0.6918,-0.6918,-0.6696,-0.6593,-0.6593,-0.5991,-0.555,-0.5336,-0.4791,-0.4519,-0.4519,-0.4519,-0.4519,-0.4519,-0.4519,-0.4519,-0.4519,-0.4519,-0.4519,-0.4522,-0.4555,-0.4548,-0.4529,-0.465,-0.4677,-0.4613,-0.485,-0.4986,-0.505,-0.5142,-0.5213,-0.5267,-0.5267,-0.5308,-0.5418,-0.5287,-0.5308,-0.5408,-0.5216,-0.526,-0.5415,-0.5284,-0.5311,-0.5428,-0.5428,-0.5428,-0.5428,-0.5428,-0.5428,-0.5428,-0.5428,-0.5428,-0.5428,-0.5428,-0.5428,-0.5428,-0.5428,-0.5428,-0.5428,-0.5428,-0.5428,-0.5428,-0.5428,-0.5428,-0.5428,-0.5428,-0.5428,-0.5428,-0.5428,-0.5428,-0.5428,-0.5428,-0.5428,-0.5428,-0.5428,-0.5428,-0.5428,-0.5428,-0.5428,-0.5428,-0.5428,-0.5428,-0.5428,-0.5428,-0.5428,-0.5428,-0.5428,-0.5428,-0.5428,-0.3331,-0.3384,0.0,-0.363,-0.3413,0.0,-0.4012,-0.3775,-0.357,-0.413,-0.4719,-0.5274,-0.5611,-0.6223,-0.6763,-0.7024,-0.7315,-0.7455,-0.7164,-0.761,-0.7901,-0.7901,-0.7901,-0.7901,-0.7901,-0.7467,-0.7192,-0.7192,-0.6642,-0.5987,-0.5332,-0.4842,-0.457,-0.4519,-0.4519,-0.4519,-0.4519,-0.4519,-0.4519,-0.4519,-0.4519,-0.4519,-0.4519,-0.4519,-0.4519,-0.4519,-0.4519,-0.4519,-0.4529,-0.4609,-0.4755,-0.4897,-0.4911,-0.4996,-0.5108,-0.5108,-0.5196,-0.5291,-0.5155,-0.5196,-0.527,-0.5003,-0.5098,-0.5287,-0.5169,-0.5226,-0.5335,-0.5335,-0.5335,-0.5335,-0.5335,-0.5415,-0.5428,-0.5428,-0.5428,-0.5428,-0.5428,-0.5428,-0.5428,-0.5428,-0.5428,-0.5428,-0.5428,-0.5428,-0.5428,-0.5428,-0.5428,-0.5428,-0.5428,-0.5428,-0.5428,-0.5428,-0.5428,-0.5428,-0.5428,-0.5428,-0.5428,-0.5428,-0.5428,-0.5428,-0.5428,-0.5428,-0.5428,-0.5428,-0.5428,-0.5428,-0.5428,-0.5428,-0.5428,-0.5428,-0.5428,-0.5428,-0.3551,-0.3812,-0.4074,-0.3651,-0.4025,0.0,-0.3984,-0.3945,-0.4113,-0.4399,-0.4382,-0.4569,-0.5334,-0.577,-0.6094,-0.6362,-0.6767,-0.7162,-0.7455,-0.7705,-0.7901,-0.7901,-0.7901,-0.7901,-0.7901,-0.7788,-0.7741,-0.7741,-0.7246,-0.6426,-0.5336,-0.5222,-0.4952,-0.4519,-0.4519,-0.4519,-0.4519,-0.4519,-0.4519,-0.4519,-0.4519,-0.4519,-0.4519,-0.4519,-0.4519,-0.4519,-0.4519,-0.4519,-0.4519,-0.4549,-0.4599,-0.4748,-0.487,-0.4938,-0.4958,-0.4958,-0.4979,-0.4999,-0.4969,-0.4982,-0.4996,-0.4938,-0.4958,-0.5023,-0.5104,-0.5152,-0.5176,-0.5176,-0.5176,-0.5176,-0.5176,-0.5267,-0.5428,-0.5428,-0.5428,-0.5428,-0.5428,-0.5428,-0.5428,-0.5428,-0.5428,-0.5428,-0.5428,-0.5428,-0.5428,-0.5428,-0.5428,-0.5428,-0.5428,-0.5428,-0.5428,-0.5428,-0.5428,-0.5428,-0.5428,-0.5428,-0.5428,-0.5428,-0.5428,-0.5428,-0.5428,-0.5428,-0.5428,-0.5428,-0.5428,-0.5428,-0.5428,-0.5428,-0.5428,-0.5428,-0.5428,-0.5428,-0.4346,-0.4465,-0.4668,-0.4531,-0.4624,0.0,0.0,-0.4533,-0.4508,-0.4903,-0.477,-0.4789,-0.5519,-0.5767,-0.5876,-0.597,-0.6573,-0.698,-0.6896,-0.7267,-0.7556,-0.7556,-0.7556,-0.7605,-0.7737,-0.775,-0.7804,-0.7889,-0.7408,-0.681,-0.6209,-0.5609,-0.5171,-0.4897,-0.4625,-0.4519,-0.4519,-0.4519,-0.4519,-0.4519,-0.4519,-0.4519,-0.4519,-0.4519,-0.4519,-0.4519,-0.4519,-0.4519,-0.4519,-0.4519,-0.4563,-0.4585,-0.466,-0.4738,-0.4806,-0.4806,-0.4853,-0.4908,-0.483,-0.4857,-0.4894,-0.4741,-0.4796,-0.4918,-0.4911,-0.4965,-0.5023,-0.5023,-0.5077,-0.5131,-0.5131,-0.5247,-0.5428,-0.5428,-0.5428,-0.5428,-0.5428,-0.5428,-0.5428,-0.5428,-0.5428,-0.5428,-0.5428,-0.5428,-0.5428,-0.5428,-0.5428,-0.5428,-0.5428,-0.5428,-0.5428,-0.5428,-0.5428,-0.5428,-0.5428,-0.5428,-0.5428,-0.5428,-0.5428,-0.5428,-0.5428,-0.5428,-0.5428,-0.5428,-0.5428,-0.5428,-0.5428,-0.5428,-0.5428,-0.5428,-0.5428,-0.5428,-0.5325,-0.526,-0.533,-0.5486,-0.5254,-0.503,0.0,0.0,0.0,-0.5196,-0.5087,-0.5049,-0.5596,-0.5686,-0.5705,-0.5714,-0.6314,-0.6645,-0.6154,-0.6582,-0.6979,-0.7083,-0.7187,-0.7267,-0.7431,-0.7443,-0.7559,-0.7727,-0.7372,-0.7072,-0.7015,-0.6131,-0.5555,-0.5336,-0.4901,-0.4625,-0.4519,-0.4519,-0.4519,-0.4519,-0.4519,-0.4519,-0.4519,-0.4519,-0.4519,-0.4519,-0.4519,-0.4519,-0.4519,-0.4519,-0.4519,-0.4519,-0.4519,-0.4594,-0.4646,-0.4646,-0.4724,-0.4813,-0.4691,-0.4728,-0.4792,-0.4545,-0.465,-0.4853,-0.4728,-0.4775,-0.4874,-0.4874,-0.4958,-0.5053,-0.5084,-0.5182,-0.5291,-0.5415,-0.5338,-0.5325,-0.5422,-0.5428,-0.5428,-0.5428,-0.5428,-0.5428,-0.5428,-0.5428,-0.5428,-0.5428,-0.5428,-0.5428,-0.5428,-0.5428,-0.5428,-0.5428,-0.5428,-0.5428,-0.5428,-0.5428,-0.5428,-0.5428,-0.5428,-0.5428,-0.5428,-0.5428,-0.5428,-0.5428,-0.5428,-0.5428,-0.5428,-0.5428,-0.5428,-0.5428,-0.5428,-0.5428,-0.6242,-0.6133,-0.6143,-0.5768,-0.595,-0.5961,-0.5071,0.0,-0.5104,-0.4621,0.0,-0.4575,-0.4871,0.0,0.0,-0.5305,-0.5548,-0.565,-0.5586,-0.5794,-0.6146,-0.6612,-0.7059,-0.7228,-0.7019,-0.6948,-0.7006,-0.7273,-0.7243,-0.7049,-0.6762,-0.686,-0.6426,-0.5332,-0.5222,-0.5007,-0.4519,-0.4519,-0.4519,-0.4519,-0.4519,-0.4519,-0.4519,-0.4519,-0.4519,-0.4519,-0.4519,-0.4519,-0.4519,-0.4519,-0.4519,-0.4519,-0.4519,-0.4529,-0.4543,-0.4543,-0.4556,-0.4567,-0.4549,-0.4556,-0.4563,-0.4529,-0.4579,-0.4714,-0.4697,-0.4704,-0.4718,-0.4718,-0.4728,-0.4772,-0.4908,-0.4955,-0.5036,-0.5301,-0.5257,-0.5196,-0.5332,-0.5428,-0.5428,-0.5428,-0.5428,-0.5428,-0.5428,-0.5428,-0.5428,-0.5428,-0.5428,-0.5428,-0.5428,-0.5428,-0.5428,-0.5428,-0.5428,-0.5428,-0.5428,-0.5428,-0.5428,-0.5428,-0.5428,-0.5428,-0.5428,-0.5428,-0.5428,-0.5428,-0.5428,-0.5428,-0.5428,-0.5428,-0.5428,-0.5428,-0.5428,-0.5428,-0.6419,-0.6426,-0.6535,-0.6104,-0.6206,-0.6194,-0.549,-0.5311,-0.5257,-0.5177,0.0,0.0,0.0,0.0,0.0,0.0,-0.5346,-0.5438,-0.494,-0.5366,-0.5828,-0.6123,-0.6294,-0.6476,-0.6637,-0.6612,-0.6744,-0.7224,-0.6954,-0.6888,-0.7267,-0.7034,-0.6728,-0.6367,-0.566,-0.5171,-0.4952,-0.468,-0.4519,-0.4519,-0.4519,-0.4519,-0.4519,-0.4519,-0.4519,-0.4519,-0.4519,-0.4519,-0.4519,-0.4519,-0.4519,-0.4519,-0.4519,-0.4519,-0.4519,-0.4519,-0.4519,-0.4519,-0.4519,-0.4519,-0.4519,-0.4519,-0.4563,-0.4558,-0.4558,-0.4558,-0.4558,-0.4558,-0.4623,-0.4704,-0.4769,-0.4853,-0.4952,-0.5074,-0.5118,-0.5148,-0.5213,-0.5298,-0.5428,-0.5428,-0.5428,-0.5428,-0.5428,-0.5428,-0.5428,-0.5428,-0.5428,-0.5428,-0.5428,-0.5428,-0.5428,-0.5428,-0.5428,-0.5428,-0.5428,-0.5428,-0.5428,-0.5428,-0.5428,-0.5428,-0.5428,-0.5428,-0.5428,-0.5428,-0.5428,-0.5428,-0.5428,-0.5428,-0.5428,-0.5428,-0.5428,-0.5428,-0.6946,-0.6995,-0.7093,-0.6629,-0.6591,-0.6499,-0.5994,-0.5786,-0.5783,-0.6003,-0.6172,0.0,0.0,0.0,-0.5873,0.0,0.0,-0.5344,-0.4623,-0.5003,-0.5399,-0.551,-0.564,-0.5857,-0.6253,-0.612,-0.6262,-0.6822,-0.6373,-0.6465,-0.7285,-0.7016,-0.6899,-0.6982,-0.623,-0.5719,-0.555,-0.5171,-0.4901,-0.4736,-0.4736,-0.4625,-0.4519,-0.4519,-0.4519,-0.4519,-0.4519,-0.4519,-0.4519,-0.4519,-0.4519,-0.4519,-0.4519,-0.4519,-0.4519,-0.4519,-0.4519,-0.4519,-0.4519,-0.4519,-0.4519,-0.4519,-0.4519,-0.4519,-0.4519,-0.4519,-0.4519,-0.4519,-0.4545,-0.4636,-0.468,-0.4741,-0.4816,-0.4901,-0.4965,-0.502,-0.5064,-0.5192,-0.5298,-0.5298,-0.5332,-0.5428,-0.5428,-0.5428,-0.5428,-0.5428,-0.5428,-0.5428,-0.5428,-0.5428,-0.5428,-0.5428,-0.5428,-0.5428,-0.5428,-0.5428,-0.5428,-0.5428,-0.5428,-0.5428,-0.5428,-0.5428,-0.5428,-0.5428,-0.5428,-0.5428,-0.5428,-0.5428,-0.5428,-0.5428,-0.5428,-0.5428,-0.8366,-0.8244,-0.8079,-0.7439,-0.7257,-0.711,-0.6419,-0.6578,-0.6843,-0.6851,-0.7184,-0.7446,-0.7463,-0.7054,0.0,0.0,0.0,0.0,0.0,-0.4575,-0.4549,-0.4814,-0.5222,-0.5606,-0.5813,-0.5358,-0.5242,-0.5733,-0.548,-0.5639,-0.641,-0.6939,-0.7046,-0.674,-0.6913,-0.6756,-0.6154,-0.6154,-0.5828,-0.5281,-0.5281,-0.5007,-0.4519,-0.4519,-0.4519,-0.4519,-0.4519,-0.4519,-0.4519,-0.4519,-0.4519,-0.4519,-0.4519,-0.4519,-0.4519,-0.4519,-0.4519,-0.4519,-0.4519,-0.4519,-0.4519,-0.4519,-0.4519,-0.4519,-0.4519,-0.4519,-0.4519,-0.4519,-0.4522,-0.456,-0.4653,-0.4582,-0.4551,-0.485,-0.4809,-0.4745,-0.4894,-0.5036,-0.5138,-0.5138,-0.5257,-0.5428,-0.5428,-0.5428,-0.5428,-0.5428,-0.5428,-0.5428,-0.5428,-0.5428,-0.5428,-0.5428,-0.5428,-0.5428,-0.5428,-0.5428,-0.5428,-0.5428,-0.5428,-0.5428,-0.5428,-0.5428,-0.5428,-0.5428,-0.5428,-0.5428,-0.5428,-0.5428,-0.5428,-0.5428,-0.5428,-0.5428,-0.8447,-0.8521,-0.8608,-0.7867,-0.7723,-0.7575,-0.6852,-0.6803,-0.6892,-0.6892,-0.7407,-0.7763,-0.755,-0.7388,0.0,0.0,0.0,0.0,0.0,-0.4182,-0.4222,-0.4516,-0.4955,-0.5203,-0.5074,-0.5068,-0.5189,-0.5487,-0.5424,-0.5701,-0.644,-0.6954,-0.7224,-0.7285,-0.7172,-0.7025,-0.681,-0.6372,-0.5882,-0.5277,-0.5277,-0.5007,-0.4519,-0.4519,-0.4519,-0.4519,-0.4519,-0.4519,-0.4519,-0.4519,-0.4519,-0.4519,-0.4519,-0.4519,-0.4519,-0.4519,-0.4519,-0.4519,-0.4519,-0.4519,-0.4519,-0.4519,-0.4519,-0.4519,-0.4519,-0.4519,-0.4519,-0.4519,-0.4519,-0.4529,-0.458,-0.4556,-0.4543,-0.4592,-0.4653,-0.4704,-0.4758,-0.4887,-0.5016,-0.5111,-0.5172,-0.524,-0.5411,-0.5428,-0.5428,-0.5428,-0.5428,-0.5428,-0.5428,-0.5428,-0.5428,-0.5428,-0.5428,-0.5428,-0.5428,-0.5428,-0.5428,-0.5428,-0.5428,-0.5428,-0.5428,-0.5264,-0.5257,-0.5425,-0.526,-0.5257,-0.5428,-0.5428,-0.5428,-0.5428,-0.5428,-0.5428,-0.8895,-0.9016,-0.9124,-0.866,-0.8573,-0.8414,-0.7637,-0.7586,-0.7646,-0.7543,-0.7991,-0.8379,-0.8392,-0.8069,0.0,0.0,0.0,0.0,0.0,-0.4086,-0.4115,-0.4095,-0.4533,0.0,-0.4913,-0.4772,-0.4873,-0.5286,-0.5074,-0.5302,-0.6185,-0.6575,-0.6981,-0.7443,-0.735,-0.7317,-0.7413,-0.7025,-0.6534,-0.5937,-0.5719,-0.5336,-0.4791,-0.457,-0.4519,-0.4519,-0.4519,-0.4519,-0.4519,-0.4519,-0.4519,-0.4519,-0.4519,-0.4519,-0.4519,-0.4519,-0.4519,-0.4519,-0.4519,-0.4519,-0.4519,-0.4519,-0.4519,-0.4519,-0.4519,-0.4519,-0.4519,-0.4519,-0.4519,-0.4519,-0.4519,-0.4519,-0.4519,-0.4519,-0.4594,-0.4609,-0.4609,-0.4728,-0.4863,-0.4955,-0.5016,-0.5087,-0.5186,-0.5203,-0.524,-0.5411,-0.5428,-0.5428,-0.5428,-0.5315,-0.5301,-0.5422,-0.5311,-0.5301,-0.5422,-0.5428,-0.5338,-0.5284,-0.5281,-0.5257,-0.5206,-0.5108,-0.5101,-0.5203,-0.5155,-0.5179,-0.5281,-0.5281,-0.5281,-0.5277,-0.5226,-0.5203]},{"header":{"parameterUnit":"m.s-1","parameterCategory":1,"la1":30.6,"la2":29.2853,"lo1":-89.7004,"lo2":-87.6739,"dy":0.0162,"dx":0.0183,"nx":112,"ny":82,"refTime":"2024-07-12T18:00:00:Z","depth":0,"parameterNumber":3,"parameterNumberName":"V-component_of_WINDS"},"data":[0.0,0.0,0.0,0.0,0.0,0.0,0.0,0.0,0.0,0.0,0.0,0.0,0.0,0.0,0.0,0.0,0.0,0.0,0.0,0.0,0.0,0.0,0.0,0.0,0.0,0.0,0.0,0.0,0.0,0.0,0.0,0.0,0.0,0.0,0.0,0.0,0.0,0.0,0.0,0.0,0.0,0.0,0.0,0.0,0.0,0.0,0.0,0.0,0.0,0.0,0.0,0.0,0.0,0.0,0.0,0.0,0.0,0.0,0.0,0.0,0.0,0.0,0.0,0.0,0.0,0.0,0.0,0.0,0.0,0.0,0.0,0.0,0.0,0.0,0.0,0.0,0.0,0.0,0.0,0.0,0.0,0.0,0.0,0.0,0.0,0.0,0.0,0.0,0.0,0.0,-1.866,-2.0944,-2.3892,-2.5395,-2.4651,-2.4477,-2.2683,-1.8662,0.0,0.0,0.0,0.0,0.0,0.0,0.0,0.0,0.0,0.0,0.0,0.0,0.0,0.0,0.0,0.0,0.0,0.0,0.0,0.0,0.0,0.0,0.0,0.0,0.0,0.0,0.0,0.0,0.0,0.0,0.0,0.0,0.0,0.0,0.0,0.0,0.0,0.0,0.0,0.0,0.0,0.0,0.0,0.0,0.0,0.0,0.0,0.0,0.0,0.0,0.0,0.0,0.0,0.0,0.0,0.0,0.0,0.0,0.0,0.0,0.0,0.0,0.0,0.0,0.0,0.0,0.0,0.0,0.0,0.0,0.0,0.0,0.0,0.0,0.0,0.0,0.0,0.0,0.0,0.0,0.0,0.0,0.0,0.0,0.0,0.0,0.0,0.0,0.0,0.0,0.0,0.0,0.0,0.0,0.0,0.0,0.0,0.0,0.0,0.0,0.0,0.0,0.0,0.0,-1.868,-2.3324,-2.4946,-2.5648,-2.5512,-2.4829,-2.3208,-2.0378,0.0,0.0,0.0,0.0,0.0,0.0,0.0,0.0,0.0,0.0,0.0,0.0,0.0,0.0,0.0,0.0,0.0,0.0,0.0,0.0,0.0,0.0,0.0,0.0,0.0,0.0,0.0,0.0,0.0,0.0,0.0,0.0,0.0,0.0,0.0,0.0,0.0,0.0,0.0,0.0,0.0,0.0,0.0,0.0,0.0,0.0,0.0,0.0,0.0,0.0,0.0,0.0,0.0,0.0,0.0,0.0,0.0,0.0,0.0,0.0,0.0,0.0,0.0,0.0,0.0,0.0,0.0,0.0,0.0,0.0,0.0,0.0,0.0,0.0,0.0,0.0,0.0,0.0,0.0,0.0,0.0,0.0,0.0,0.0,0.0,0.0,0.0,0.0,0.0,0.0,0.0,0.0,0.0,0.0,0.0,0.0,0.0,0.0,0.0,0.0,0.0,0.0,0.0,-1.8329,-2.0437,-2.4653,-2.5453,-2.5707,-2.5707,-2.4905,-2.3302,-2.0716,-1.8131,0.0,0.0,0.0,0.0,0.0,0.0,0.0,0.0,0.0,0.0,0.0,0.0,0.0,0.0,0.0,0.0,0.0,0.0,0.0,0.0,0.0,0.0,0.0,0.0,0.0,0.0,0.0,0.0,0.0,0.0,0.0,0.0,0.0,0.0,0.0,0.0,0.0,0.0,0.0,0.0,0.0,0.0,0.0,0.0,0.0,0.0,0.0,0.0,0.0,0.0,0.0,0.0,0.0,0.0,0.0,0.0,0.0,0.0,0.0,0.0,0.0,0.0,0.0,0.0,0.0,0.0,0.0,0.0,0.0,0.0,0.0,0.0,0.0,0.0,0.0,0.0,0.0,0.0,0.0,0.0,0.0,0.0,0.0,0.0,0.0,0.0,0.0,0.0,0.0,0.0,0.0,0.0,0.0,0.0,0.0,0.0,0.0,0.0,0.0,0.0,0.0,0.0,-2.069,-2.235,-2.5375,-2.5707,-2.5707,-2.5707,-2.4711,-2.3066,-2.0672,-1.7929,0.0,0.0,0.0,0.0,0.0,0.0,0.0,0.0,0.0,0.0,0.0,0.0,0.0,0.0,0.0,0.0,0.0,0.0,0.0,0.0,0.0,0.0,0.0,0.0,0.0,0.0,0.0,0.0,0.0,0.0,0.0,0.0,0.0,0.0,0.0,0.0,0.0,0.0,0.0,0.0,0.0,0.0,0.0,0.0,0.0,0.0,0.0,0.0,0.0,0.0,0.0,0.0,0.0,0.0,0.0,0.0,0.0,0.0,0.0,0.0,0.0,0.0,0.0,0.0,0.0,0.0,0.0,0.0,0.0,0.0,0.0,0.0,0.0,0.0,0.0,0.0,0.0,0.0,0.0,0.0,0.0,0.0,0.0,0.0,0.0,0.0,0.0,0.0,0.0,0.0,0.0,0.0,0.0,0.0,0.0,0.0,0.0,0.0,0.0,0.0,0.0,0.0,-2.0964,-2.3638,-2.5492,-2.5707,-2.5707,-2.5707,-2.4165,-2.2447,-2.071,-1.7382,0.0,0.0,0.0,0.0,0.0,0.0,0.0,0.0,0.0,0.0,0.0,0.0,0.0,0.0,0.0,0.0,0.0,0.0,0.0,0.0,0.0,0.0,0.0,0.0,0.0,0.0,0.0,0.0,0.0,0.0,0.0,0.0,0.0,0.0,0.0,0.0,0.0,0.0,0.0,0.0,0.0,0.0,0.0,0.0,0.0,0.0,0.0,0.0,0.0,0.0,0.0,0.0,0.0,0.0,0.0,0.0,0.0,0.0,0.0,0.0,0.0,0.0,0.0,0.0,0.0,0.0,0.0,0.0,0.0,0.0,0.0,0.0,0.0,0.0,0.0,0.0,0.0,0.0,0.0,0.0,0.0,0.0,0.0,0.0,0.0,0.0,0.0,0.0,0.0,0.0,0.0,0.0,0.0,0.0,0.0,0.0,0.0,0.0,0.0,0.0,0.0,0.0,-2.0066,-2.2603,-2.5395,-2.5707,-2.5707,-2.5707,-2.4594,-2.2951,-2.0675,0.0,0.0,0.0,0.0,0.0,0.0,0.0,0.0,0.0,0.0,0.0,0.0,0.0,0.0,0.0,0.0,0.0,0.0,0.0,0.0,0.0,0.0,0.0,0.0,0.0,0.0,0.0,0.0,0.0,0.0,0.0,0.0,0.0,0.0,0.0,0.0,0.0,0.0,0.0,0.0,0.0,0.0,0.0,0.0,0.0,0.0,0.0,0.0,0.0,0.0,0.0,0.0,0.0,0.0,0.0,0.0,0.0,0.0,0.0,0.0,0.0,0.0,0.0,0.0,0.0,0.0,0.0,0.0,0.0,0.0,0.0,0.0,0.0,0.0,0.0,0.0,0.0,0.0,0.0,0.0,0.0,0.0,0.0,0.0,0.0,0.0,0.0,0.0,0.0,0.0,0.0,0.0,0.0,0.0,0.0,0.0,0.0,0.0,0.0,0.0,0.0,0.0,-1.8016,-2.0163,-2.2506,-2.5395,-2.5707,-2.5707,-2.5707,-2.4397,-2.2598,-2.0263,0.0,0.0,0.0,0.0,0.0,0.0,0.0,0.0,0.0,0.0,0.0,0.0,0.0,0.0,0.0,0.0,0.0,0.0,0.0,0.0,0.0,0.0,0.0,0.0,0.0,0.0,0.0,0.0,0.0,0.0,0.0,0.0,0.0,0.0,0.0,0.0,0.0,0.0,0.0,0.0,0.0,0.0,0.0,0.0,0.0,0.0,0.0,0.0,0.0,0.0,0.0,0.0,0.0,0.0,0.0,0.0,0.0,0.0,0.0,0.0,0.0,0.0,0.0,0.0,0.0,0.0,0.0,0.0,0.0,0.0,0.0,0.0,0.0,0.0,0.0,0.0,0.0,0.0,0.0,0.0,0.0,0.0,0.0,0.0,0.0,0.0,0.0,0.0,0.0,0.0,0.0,0.0,0.0,0.0,0.0,0.0,0.0,0.0,0.0,0.0,0.0,0.0,-1.8953,-2.153,-2.3775,-2.5512,-2.5707,-2.5707,-2.5707,-2.3306,-2.1099,0.0,0.0,0.0,0.0,0.0,0.0,0.0,0.0,0.0,0.0,0.0,0.0,0.0,0.0,0.0,0.0,0.0,0.0,0.0,0.0,0.0,0.0,0.0,0.0,0.0,0.0,0.0,0.0,0.0,0.0,0.0,0.0,0.0,0.0,0.0,0.0,0.0,0.0,0.0,0.0,0.0,0.0,0.0,0.0,0.0,0.0,0.0,0.0,0.0,0.0,0.0,0.0,0.0,0.0,0.0,0.0,0.0,0.0,0.0,0.0,0.0,0.0,0.0,0.0,0.0,0.0,0.0,0.0,0.0,0.0,0.0,0.0,0.0,0.0,0.0,0.0,0.0,0.0,0.0,0.0,0.0,0.0,0.0,0.0,0.0,0.0,0.0,0.0,0.0,0.0,0.0,0.0,0.0,0.0,0.0,0.0,0.0,0.0,0.0,0.0,0.0,0.0,0.0,-1.8953,-2.153,-2.3775,-2.5512,-2.5707,-2.5707,-2.5707,-2.3872,-2.1745,-1.944,0.0,0.0,0.0,0.0,0.0,0.0,0.0,0.0,0.0,0.0,0.0,0.0,0.0,0.0,0.0,0.0,0.0,0.0,0.0,0.0,0.0,0.0,0.0,0.0,0.0,0.0,0.0,0.0,0.0,0.0,0.0,0.0,0.0,0.0,0.0,0.0,0.0,0.0,0.0,0.0,0.0,0.0,0.0,0.0,0.0,0.0,0.0,0.0,0.0,0.0,0.0,0.0,0.0,0.0,0.0,0.0,0.0,0.0,0.0,0.0,0.0,0.0,0.0,0.0,0.0,0.0,0.0,0.0,0.0,0.0,0.0,0.0,0.0,0.0,0.0,0.0,0.0,0.0,0.0,0.0,0.0,0.0,0.0,0.0,0.0,0.0,0.0,0.0,0.0,0.0,0.0,0.0,0.0,0.0,0.0,0.0,0.0,0.0,0.0,0.0,0.0,0.0,-1.948,-2.2037,-2.4145,-2.5551,-2.5707,-2.5707,-2.5707,-2.4106,-2.2018,-1.9459,0.0,0.0,0.0,0.0,0.0,0.0,0.0,0.0,0.0,0.0,0.0,0.0,0.0,0.0,0.0,0.0,0.0,0.0,0.0,0.0,0.0,0.0,0.0,0.0,0.0,0.0,0.0,0.0,0.0,0.0,0.0,0.0,0.0,0.0,0.0,0.0,0.0,0.0,0.0,0.0,0.0,0.0,0.0,0.0,0.0,0.0,0.0,0.0,0.0,0.0,0.0,0.0,0.0,0.0,0.0,0.0,0.0,0.0,0.0,0.0,0.0,0.0,0.0,0.0,0.0,0.0,0.0,0.0,0.0,0.0,0.0,0.0,0.0,0.0,0.0,0.0,0.0,0.0,0.0,0.0,0.0,0.0,0.0,0.0,0.0,0.0,0.0,0.0,0.0,0.0,0.0,0.0,0.0,0.0,0.0,0.0,0.0,0.0,0.0,0.0,0.0,0.0,-2.0261,-2.2818,-2.4729,-2.5609,-2.5707,-2.5707,-2.5707,-2.4184,-2.2135,-1.9578,0.0,0.0,0.0,0.0,0.0,0.0,0.0,0.0,0.0,0.0,0.0,0.0,0.0,0.0,0.0,0.0,0.0,0.0,0.0,0.0,0.0,0.0,0.0,0.0,0.0,0.0,0.0,0.0,0.0,0.0,0.0,0.0,0.0,0.0,0.0,0.0,0.0,0.0,0.0,0.0,0.0,0.0,0.0,0.0,0.0,0.0,0.0,0.0,0.0,0.0,0.0,0.0,0.0,0.0,0.0,0.0,0.0,0.0,0.0,0.0,-1.5044,-1.4043,0.0,0.0,0.0,0.0,0.0,0.0,0.0,0.0,0.0,0.0,0.0,0.0,0.0,0.0,0.0,0.0,0.0,0.0,0.0,0.0,0.0,0.0,0.0,0.0,0.0,0.0,0.0,0.0,0.0,0.0,0.0,0.0,0.0,0.0,0.0,0.0,0.0,0.0,0.0,0.0,-2.0261,-2.2818,-2.4729,-2.5609,-2.5707,-2.5707,-2.5707,-2.4731,-2.3033,-2.0476,-1.8506,0.0,0.0,0.0,0.0,0.0,0.0,0.0,0.0,0.0,0.0,0.0,0.0,0.0,0.0,0.0,0.0,0.0,0.0,0.0,0.0,0.0,0.0,0.0,0.0,0.0,0.0,0.0,0.0,0.0,0.0,0.0,0.0,0.0,0.0,0.0,0.0,0.0,0.0,0.0,0.0,0.0,0.0,0.0,0.0,0.0,0.0,0.0,0.0,0.0,0.0,0.0,0.0,0.0,0.0,0.0,0.0,0.0,0.0,0.0,-1.7852,-1.7225,0.0,0.0,0.0,0.0,0.0,0.0,0.0,0.0,0.0,0.0,0.0,0.0,0.0,0.0,0.0,0.0,0.0,0.0,0.0,0.0,0.0,0.0,0.0,0.0,0.0,0.0,0.0,0.0,0.0,0.0,0.0,0.0,0.0,0.0,0.0,0.0,0.0,0.0,0.0,0.0,-2.0847,-2.3423,-2.5199,-2.5648,-2.5707,-2.5707,-2.5707,-2.4905,-2.348,-2.1354,-1.9597,0.0,0.0,0.0,0.0,0.0,0.0,0.0,0.0,0.0,0.0,0.0,0.0,0.0,0.0,0.0,0.0,0.0,0.0,0.0,0.0,0.0,0.0,0.0,0.0,0.0,0.0,0.0,0.0,0.0,0.0,0.0,0.0,0.0,0.0,0.0,0.0,0.0,0.0,0.0,0.0,0.0,0.0,0.0,0.0,0.0,0.0,0.0,0.0,0.0,0.0,0.0,0.0,0.0,-2.1441,-2.185,-2.185,-2.185,-2.2254,-2.2857,-2.1419,-2.126,-2.1854,-1.9539,0.0,0.0,0.0,0.0,0.0,0.0,0.0,0.0,0.0,0.0,0.0,0.0,0.0,0.0,0.0,0.0,0.0,0.0,0.0,0.0,0.0,0.0,-2.0531,-2.1062,-2.184,-2.165,-1.8677,0.0,0.0,0.0,0.0,0.0,0.0,0.0,0.0,0.0,0.0,0.0,-2.1723,-2.4184,-2.5707,-2.5707,-2.5707,-2.5707,-2.5707,-2.5043,-2.3968,-2.2426,-2.0708,-1.8723,0.0,0.0,0.0,0.0,0.0,0.0,0.0,0.0,0.0,0.0,0.0,0.0,0.0,0.0,0.0,0.0,0.0,0.0,0.0,0.0,0.0,0.0,0.0,0.0,0.0,0.0,0.0,0.0,0.0,0.0,0.0,0.0,-1.2785,-1.3647,0.0,0.0,0.0,0.0,0.0,0.0,0.0,0.0,0.0,0.0,0.0,0.0,0.0,-1.9967,-2.2293,-2.3244,-2.4446,-2.5901,-2.6824,-2.7262,-2.7262,-2.7262,-2.7323,-2.7422,-2.7206,0.0,-2.2845,-2.1734,0.0,0.0,0.0,0.0,0.0,0.0,0.0,0.0,0.0,0.0,0.0,0.0,0.0,0.0,0.0,0.0,0.0,0.0,0.0,0.0,0.0,0.0,-2.4692,-2.4044,-2.4551,-2.4866,-2.3656,-2.1099,-1.8932,-1.8598,-1.7355,-1.629,0.0,0.0,0.0,0.0,0.0,0.0,-2.2701,-2.4555,-2.5707,-2.5707,-2.5707,-2.5707,-2.5707,-2.559,-2.5102,-2.4124,-2.2484,-2.1066,-1.996,-1.6796,0.0,0.0,0.0,0.0,0.0,0.0,0.0,0.0,0.0,0.0,0.0,0.0,0.0,0.0,0.0,0.0,0.0,0.0,0.0,0.0,0.0,0.0,0.0,0.0,0.0,0.0,0.0,0.0,0.0,-1.3182,-1.4584,-1.5463,-1.5992,-1.6091,0.0,0.0,0.0,0.0,0.0,0.0,0.0,0.0,0.0,-2.2078,-2.3068,-2.4342,-2.5954,-2.6395,-2.6964,-2.7683,-2.8103,-2.8303,-2.8303,-2.8303,-2.8303,-2.8303,-2.8303,-2.744,-2.593,-2.4544,-2.3486,-2.2561,0.0,0.0,0.0,0.0,-2.1101,-2.0926,-2.2352,-2.2525,-2.1979,-2.1106,0.0,0.0,0.0,0.0,0.0,0.0,0.0,-2.2818,-2.3911,-2.5318,-2.6332,-2.5941,-2.6156,-2.6195,-2.5317,-2.3922,-2.243,-2.0991,-2.0116,-1.9163,-1.7684,-1.712,0.0,0.0,0.0,-2.1881,-2.3618,-2.4926,-2.5707,-2.5707,-2.5707,-2.5707,-2.5707,-2.5707,-2.534,-2.4467,-2.3706,-2.2695,-2.1338,-1.8902,-1.6928,0.0,0.0,0.0,0.0,0.0,0.0,0.0,0.0,0.0,0.0,0.0,0.0,0.0,0.0,0.0,0.0,0.0,0.0,0.0,0.0,0.0,0.0,0.0,0.0,0.0,0.0,0.0,0.0,-1.4822,-1.6387,-1.7254,-1.8329,-1.866,0.0,0.0,0.0,0.0,0.0,0.0,-2.0818,-2.2909,-2.45,-2.5378,-2.6659,-2.7756,-2.8615,-2.8635,-2.8732,-2.8947,-2.8947,-2.8947,-2.8947,-2.8947,-2.9064,-2.9279,-2.9279,-2.9396,-2.9435,-2.7268,-2.598,-2.5276,-2.4026,-2.315,-2.272,-2.397,-2.4048,-2.3812,-2.5707,-2.5941,-2.5295,-2.4633,-2.3872,-2.2955,-2.1666,0.0,0.0,0.0,0.0,-2.4887,-2.682,-2.7327,-2.7327,-2.7327,-2.7327,-2.7093,-2.6214,-2.6039,-2.5414,-2.3287,-2.268,-2.1918,-1.9968,-1.9441,0.0,-2.0474,-2.1665,-2.3011,-2.4534,-2.5297,-2.5707,-2.5707,-2.5707,-2.5707,-2.5707,-2.5707,-2.5421,-2.4746,-2.4511,-2.3807,-2.2497,-2.0623,-1.8865,-1.7296,0.0,0.0,0.0,0.0,0.0,0.0,0.0,0.0,0.0,0.0,0.0,0.0,0.0,0.0,0.0,0.0,0.0,0.0,0.0,0.0,0.0,0.0,0.0,0.0,0.0,0.0,0.0,0.0,0.0,-1.9069,-2.0669,0.0,0.0,0.0,0.0,-2.1474,-2.2399,-2.3592,-2.5184,-2.6244,-2.719,-2.8086,-2.8186,-2.8654,-2.9533,-2.9533,-2.9923,-3.0665,-3.0665,-3.0665,-3.0665,-3.0665,-3.1133,-3.1914,-3.1914,-3.2383,-3.289,-2.9533,-2.8147,-2.8108,-2.801,-2.7952,-2.7913,-2.801,-2.801,-2.7991,-2.8127,-2.8147,-2.8108,-2.8049,-2.7444,-2.6724,-2.6646,-2.6607,0.0,0.0,-2.7405,-2.8069,-2.8205,-2.8225,-2.8225,-2.8225,-2.8225,-2.7991,-2.7114,-2.6939,-2.6646,-2.5687,-2.4846,-2.4222,-2.4104,0.0,-2.313,-2.4007,-2.4222,-2.4592,-2.5512,-2.5668,-2.5707,-2.5707,-2.5707,-2.5707,-2.5707,-2.5707,-2.5657,-2.5547,-2.4824,-2.4334,-2.4177,-2.1776,-2.0018,-1.9097,-1.6578,0.0,0.0,0.0,0.0,0.0,0.0,0.0,0.0,0.0,0.0,0.0,0.0,0.0,0.0,0.0,0.0,0.0,0.0,0.0,0.0,0.0,0.0,0.0,0.0,0.0,0.0,0.0,0.0,-2.1588,-2.2797,0.0,-2.3072,-2.3534,-2.4215,-2.5074,-2.5952,-2.6713,-2.7318,-2.8184,-2.881,-2.9123,-3.0177,-3.0899,-3.1211,-3.1777,-3.2187,-3.248,-3.248,-3.248,-3.248,-3.248,-3.2636,-3.2949,-3.2949,-3.3105,-3.3319,-3.209,-3.0919,-2.9865,-2.9338,-2.8791,-2.8303,-2.8303,-2.8303,-2.8303,-2.8303,-2.8303,-2.8303,-2.8303,-2.8088,-2.7835,-2.7835,-2.7835,-2.7952,-2.852,-2.8908,-2.9259,-2.9767,-2.9904,-2.9786,-2.9259,-2.9142,-2.8908,-2.801,-2.7835,-2.7737,-2.7425,-2.6214,-2.5063,-2.4495,-2.4614,-2.4692,-2.4436,-2.4885,-2.5356,-2.5668,-2.5707,-2.5707,-2.5707,-2.5707,-2.5693,-2.5701,-2.5701,-2.5684,-2.5673,-2.5401,-2.4957,-2.4321,-2.2925,-2.1484,-1.999,-1.8014,-1.5905,0.0,0.0,0.0,0.0,0.0,0.0,0.0,0.0,0.0,0.0,0.0,0.0,0.0,0.0,0.0,0.0,0.0,0.0,0.0,0.0,0.0,0.0,0.0,0.0,0.0,-2.0355,-2.1959,-2.3365,-2.4575,-2.5278,-2.5278,-2.6078,-2.682,-2.7405,-2.8244,-2.8869,-2.9123,-2.9962,-3.0587,-3.086,-3.1953,-3.2539,-3.2539,-3.3105,-3.3398,-3.3398,-3.3398,-3.3398,-3.3398,-3.3398,-3.3554,-3.3846,-3.3846,-3.4003,-3.4276,-3.4276,-3.3417,-3.2031,-3.1211,-3.0528,-3.0021,-3.0021,-3.0021,-3.0021,-3.0021,-3.0021,-3.0021,-3.0021,-3.0021,-3.0021,-3.0021,-2.9826,-2.9708,-3.0274,-3.0235,-3.0138,-3.0665,-3.0801,-3.0665,-3.0138,-3.0001,-2.9767,-2.8928,-2.8732,-2.8654,-2.8362,-2.7132,-2.5961,-2.5375,-2.5512,-2.5492,-2.4924,-2.5336,-2.5707,-2.5707,-2.5707,-2.5707,-2.5707,-2.5697,-2.5703,-2.5702,-2.5681,-2.5652,-2.5639,-2.5369,-2.4939,-2.4294,-2.3203,-2.2068,-2.089,-1.8916,-1.6924,-1.4934,0.0,0.0,0.0,0.0,0.0,0.0,0.0,0.0,0.0,0.0,0.0,0.0,0.0,0.0,0.0,0.0,0.0,0.0,0.0,0.0,0.0,0.0,0.0,-2.071,-2.2135,-2.3501,-2.4417,-2.6019,-2.7056,-2.7075,-2.7874,-2.8381,-2.842,-2.922,-3.006,-3.0841,-3.168,-3.2539,-3.3378,-3.3437,-3.3437,-3.3437,-3.3476,-3.3476,-3.3476,-3.3476,-3.3476,-3.3476,-3.3476,-3.3944,-3.4744,-3.4744,-3.5213,-3.5991,-3.5991,-3.5506,-3.4647,-3.3788,-3.3417,-3.3398,-3.3398,-3.3398,-3.3398,-3.3398,-3.3398,-3.3398,-3.3398,-3.3398,-3.3398,-3.3398,-3.2812,-3.2129,-3.2109,-3.1485,-3.0841,-3.0801,-3.0801,-3.0801,-3.0801,-3.0801,-3.0587,-2.9806,-2.963,-2.9396,-2.8537,-2.7678,-2.7075,-2.7056,-2.6332,-2.5765,-2.5746,-2.5746,0.0,-2.5707,-2.5709,-2.5709,-2.5707,-2.5703,-2.5707,-2.5705,-2.5637,-2.557,-2.5507,-2.4758,-2.4277,-2.4193,-2.2619,-2.1755,-2.1811,-1.9266,-1.7513,-1.6649,0.0,0.0,0.0,0.0,0.0,0.0,0.0,0.0,0.0,0.0,0.0,0.0,0.0,0.0,0.0,0.0,0.0,0.0,0.0,0.0,0.0,-2.2094,-2.3363,-2.3363,-2.4302,-2.5531,-2.7054,-2.7659,-2.8186,-2.8813,-2.963,-3.0372,-3.1016,-3.1856,-3.2441,-3.2675,-3.291,-3.3144,-3.3398,-3.4003,-3.4334,-3.4334,-3.4979,-3.5288,-3.5288,-3.5288,-3.5288,-3.5288,-3.5288,-3.5428,-3.5642,-3.5642,-3.5779,-3.5991,-3.5991,-3.5857,-3.5564,-3.4686,-3.3964,-3.3398,-3.3398,-3.3398,-3.3398,-3.3398,-3.3398,-3.3398,-3.3398,-3.3398,-3.3398,-3.3398,-3.3222,-3.291,-3.2285,-3.1934,-3.1602,-3.0958,-3.0801,-3.0801,-3.0801,-3.0801,-3.0743,-3.0528,-3.047,-3.0392,-3.0157,-2.9455,-2.8674,-2.8049,-2.7737,-2.7366,-2.6739,-2.6644,-2.6413,-2.5775,-2.5703,-2.5703,-2.5691,-2.5699,-2.5676,-2.5621,-2.5604,-2.5582,-2.5574,-2.4763,-2.4266,-2.4193,-2.3195,-2.2352,-2.1734,-1.9823,-1.8382,0.0,0.0,0.0,0.0,0.0,0.0,0.0,0.0,0.0,0.0,0.0,0.0,0.0,0.0,0.0,0.0,0.0,0.0,0.0,0.0,0.0,0.0,-2.438,-2.5746,-2.6488,-2.6702,-2.7308,-2.8674,-2.883,-2.9318,-3.0528,-3.1075,-3.1719,-3.2578,-3.3105,-3.3554,-3.3925,-3.3944,-3.412,-3.4491,-3.4979,-3.5232,-3.5232,-3.5759,-3.5991,-3.5991,-3.5991,-3.5991,-3.5991,-3.5991,-3.5991,-3.5991,-3.5991,-3.5991,-3.5994,-3.6001,-3.6001,-3.5952,0.0,0.0,0.0,0.0,-3.4491,-3.4491,-3.4491,-3.4491,-3.4491,-3.4491,-3.4491,-3.4491,-3.4491,-3.4237,-3.3846,-3.3339,-3.2929,-3.2441,-3.1563,-3.1348,-3.125,-3.0899,-3.0801,-3.0801,-3.0801,-3.0801,-3.0801,-3.0841,-3.047,0.0,-2.9474,-2.8771,-2.8127,-2.7618,-2.7229,-2.681,-2.6268,-2.5905,-2.5683,-2.5661,-2.5622,-2.5598,-2.5565,-2.5564,0.0,0.0,0.0,-2.4083,-2.3702,-2.3256,0.0,0.0,0.0,0.0,0.0,-1.9486,0.0,0.0,-1.8498,-1.8095,0.0,0.0,0.0,0.0,0.0,0.0,0.0,0.0,0.0,0.0,0.0,0.0,0.0,0.0,0.0,0.0,-2.6214,-2.7895,-2.9632,-2.922,-2.8986,-2.965,-2.9826,-3.047,-3.1953,-3.2285,-3.2714,-3.3495,-3.3632,-3.4022,-3.4803,-3.4842,0.0,0.0,0.0,-3.5991,-3.5991,-3.5991,-3.5991,-3.5991,-3.5991,-3.5991,-3.5991,-3.5991,-3.5994,-3.5996,-3.5996,-3.5996,-3.5999,-3.5993,-3.5992,-3.5999,-3.5994,-3.5991,-3.5991,-3.5991,-3.5991,-3.5991,-3.5991,0.0,0.0,-3.5991,-3.5991,-3.5991,-3.5991,-3.5467,-3.4822,-3.4725,-3.4139,-3.3358,-3.2461,-3.2246,-3.2051,-3.1289,-3.1016,-3.0958,-3.0958,-3.088,-3.0821,-3.0899,-3.0899,-3.0899,-3.0901,-2.9617,-2.8546,-2.8449,-2.7767,-2.7187,-2.6927,-2.6267,-2.5762,-2.5627,-2.5538,0.0,-2.5492,-2.5499,-2.5499,-2.5511,-2.4776,-2.3978,-2.3173,-2.3231,-2.3243,-2.3137,-2.3146,-2.3095,-2.2998,-2.303,-2.3088,-2.3076,-2.0715,-2.0012,0.0,0.0,0.0,0.0,0.0,0.0,0.0,0.0,0.0,0.0,0.0,0.0,0.0,0.0,0.0,-2.7151,-2.842,-2.9691,-3.1387,-3.1465,-3.1172,-3.0626,-3.1192,-3.1738,-3.207,-3.3378,-3.4276,-3.4432,-3.5096,-3.5561,-3.574,-3.5759,-3.5837,-3.5991,-3.5991,-3.5991,-3.5991,-3.5991,-3.5991,-3.5991,-3.5991,0.0,-3.5991,-3.5991,-3.6001,-3.5993,-3.5993,-3.5993,-3.5993,-3.5996,-3.5995,-3.5996,-3.6005,-3.5991,-3.5991,-3.5991,-3.5991,-3.5991,-3.5991,-3.5991,-3.5991,-3.5991,-3.5991,-3.5991,-3.5991,-3.5876,0.0,-3.4901,-3.4588,-3.4256,-3.3378,-3.3144,-3.3105,-3.2949,-3.2363,-3.1856,-3.1856,-3.1309,-3.0821,-3.0899,-3.0899,-3.0901,-3.0891,-3.0584,-3.0077,-2.9374,-2.9071,-2.8434,-2.7075,-2.6715,-2.6323,-2.5666,-2.5538,-2.5493,-2.5499,-2.5499,-2.5493,-2.5492,-2.5337,-2.4853,-2.399,-2.4648,-2.4687,-2.3985,-2.3978,-2.3623,-2.2914,-2.3623,-2.3964,-2.3932,-2.2796,-2.2357,0.0,0.0,0.0,0.0,0.0,0.0,0.0,0.0,0.0,0.0,0.0,-2.2506,-2.4653,0.0,-2.7054,-2.924,-2.9943,-3.0801,-3.2502,-3.2756,-3.26,-3.2148,-3.248,-3.2929,-3.3358,-3.4198,-3.4881,-3.533,-3.5759,-3.5991,-3.5991,-3.5991,-3.5991,-3.5991,-3.6423,-3.6657,-3.6657,-3.7087,-3.7087,-3.6657,-3.7087,-3.7058,-3.6619,-3.705,-3.7225,-3.7175,-3.6772,-3.6597,-3.6578,-3.6168,-3.5987,-3.5942,-3.5996,-3.5995,-3.5995,-3.5995,-3.5995,-3.5995,-3.5995,-3.5995,-3.5994,-3.6009,-3.6007,-3.6005,-3.5996,-3.5991,-3.5916,-3.5467,-3.5349,-3.5154,-3.4276,-3.4042,-3.3944,-3.3495,-3.3066,-3.2636,-3.2187,-3.1758,-3.1348,-3.0977,-3.0877,-3.0853,-3.0852,-3.0778,-3.0567,-3.0205,-2.9716,-2.8935,-2.7666,-2.7094,-2.6478,-2.5646,-2.5517,-2.5505,-2.5492,-2.5498,-2.5505,-2.5492,-2.5511,-2.5298,-2.4873,-2.5279,-2.5298,-2.4853,-2.4853,-2.4641,-2.4196,-2.4641,-2.4853,-2.4834,-2.4445,-2.4251,0.0,0.0,0.0,0.0,0.0,0.0,0.0,0.0,-2.1217,-2.3618,-2.4672,-2.5687,-2.7446,-2.8323,-2.9377,-3.1097,-3.1331,-3.1843,-3.3414,-3.3641,-3.3717,-3.3862,-3.3756,-3.3925,-3.4627,-3.4842,-3.5232,-3.5952,-3.5991,-3.5991,-3.5991,-3.615,-3.625,-3.625,-3.7094,-3.7606,-3.7764,-3.8451,-3.8531,-3.8003,-3.8708,-3.8652,-3.7938,-3.8651,-3.8846,-3.86,-3.796,-3.7695,-3.7656,-3.717,-3.6855,-3.6657,-3.6523,-3.6372,-3.6218,-3.6067,-3.5991,-3.5991,-3.5991,-3.5991,-3.5992,-3.5996,-3.5996,-3.5995,-3.6007,-3.6003,-3.6003,-3.5999,-3.5999,-3.5843,-3.5135,-3.4959,-3.4783,-3.4081,-3.3788,-3.3417,-3.2545,-3.2217,-3.1867,-3.1047,-3.0835,-3.0789,-3.0778,-3.0675,-3.064,-3.073,-3.0125,-2.9312,-2.8449,-2.7724,-2.6962,-2.6072,-2.5994,-2.5917,-2.5762,-2.5588,-2.5511,-2.5511,-2.5511,-2.5511,-2.5511,-2.5511,-2.5511,-2.5511,-2.5511,-2.5511,-2.5511,-2.5511,-2.5511,-2.5492,-2.551,-2.551,-1.8467,-1.934,-2.0309,-2.1228,-2.1455,-2.2289,0.0,0.0,-2.5492,-2.7347,-2.7795,-2.8401,-3.014,-3.053,-3.1155,-3.2853,-3.3115,-3.3437,-3.4345,-3.4512,-3.482,-3.5542,-3.498,-3.4588,-3.4686,-3.5408,-3.5896,-3.5991,-3.5991,-3.5991,-3.5991,-3.6723,-3.7157,-3.7143,-3.7949,-3.8709,-3.9422,-3.9478,-3.9828,-4.0511,-4.0608,-4.0584,-4.0496,-4.0593,-4.022,-3.9454,-3.9441,-3.9415,-3.948,-4.0213,-4.0062,-3.9285,-3.8511,-3.7756,-3.6982,-3.6255,-3.5991,-3.5991,-3.5991,-3.5991,-3.5992,-3.5992,-3.5993,-3.5993,-3.5994,-3.5994,-3.5995,-3.5995,-3.5994,-3.5972,-3.5879,-3.5857,-3.5837,-3.5737,-3.5115,-3.432,-3.3435,-3.2654,-3.1844,-3.0984,-3.0765,-3.0708,-3.0709,-3.0656,-3.0607,-3.0615,-3.0539,-3.0153,-2.9282,-2.907,-2.8683,-2.7813,-2.7716,-2.7406,-2.6625,-2.5917,-2.5511,-2.5511,-2.5511,-2.5511,-2.5511,-2.5511,-2.5511,-2.5511,-2.5511,-2.5511,-2.5511,-2.5511,-2.5511,-2.5511,-2.5492,-2.5495,-2.1784,-2.2831,-2.373,0.0,-2.5212,-2.6,-2.7425,-2.7468,-2.7708,-2.9394,-2.9355,-2.9668,-3.1894,-3.1872,-3.2103,0.0,-3.4072,-3.4332,-3.5173,-3.4911,-3.4777,-3.5093,-3.4845,-3.4861,-3.5394,-3.5798,-3.5991,-3.5991,-3.6001,-3.6209,-3.6674,-3.7042,-3.7463,-3.7929,-3.9204,-3.9828,-3.9704,-4.113,-4.1549,-4.09,-4.1922,-4.2128,-4.1599,-4.1597,-4.1121,-4.0325,-4.0858,-4.0829,-4.0421,-4.0821,-4.0762,-4.0407,-4.0038,-3.9393,-3.8436,-3.6601,-3.5935,-3.5935,-3.5935,-3.5935,-3.5939,-3.5932,-3.5932,-3.5946,-3.594,-3.5918,-3.5874,-3.5884,-3.5884,-3.5886,-3.5873,-3.5875,-3.5875,-3.5875,-3.56,-3.4975,-3.3629,-3.3051,-3.2393,-3.1008,-3.0698,-3.0651,-3.0635,-3.0617,-3.0598,-3.0598,-3.0598,-3.0288,-2.9399,-2.9302,-2.8973,-2.8092,-2.7995,-2.7658,-2.676,-2.6392,-2.5986,-2.553,-2.5511,-2.5511,-2.5511,-2.5511,-2.5511,-2.5511,-2.5511,-2.5511,-2.5511,-2.5511,-2.5511,-2.5511,-2.5511,-2.5499,-2.3921,0.0,0.0,-2.6745,-2.7752,-2.8612,-2.8648,-2.8826,-2.9316,-3.0548,-3.0279,-3.0478,-3.255,-3.2619,-3.2853,-3.4366,-3.475,-3.5074,-3.5694,-3.5107,-3.4681,-3.4878,-3.4714,-3.4959,-3.5854,-3.5937,-3.5934,-3.5933,-3.6171,-3.6653,-3.7483,-3.796,-3.8611,-3.9412,-4.0846,-4.1307,-4.0726,-4.277,-4.3043,-4.1575,-4.3315,-4.3549,-4.2421,-4.2434,-4.2215,-4.1877,-4.2528,-4.2485,-4.1974,-4.2208,-4.2034,-4.1626,-4.1626,-4.0975,-3.9785,-3.7695,-3.6787,-3.6551,-3.6047,-3.6027,-3.6195,-3.5943,-3.5875,-3.5864,-3.5875,-3.5831,-3.5802,-3.5792,-3.5797,-3.5797,-3.5806,-3.581,-3.5806,-3.5797,-3.5792,-3.5407,-3.3949,-3.3814,-3.3388,-3.1407,-3.1168,-3.1139,-3.0675,-3.0598,-3.0598,-3.0598,-3.0598,-3.0366,-2.9747,-2.965,-2.9418,-2.878,-2.8489,-2.8006,-2.7136,-2.6837,-2.6354,-2.555,-2.5511,-2.5511,-2.5511,-2.5511,-2.5511,-2.5511,-2.5511,-2.5511,-2.5511,-2.5511,-2.5511,-2.5511,-2.5511,-2.5511,0.0,0.0,-2.6792,-2.6872,-2.8135,-2.94,-2.9523,-3.0118,-3.0661,-3.0771,-3.0735,-3.0946,-3.1865,-3.2701,-3.3546,-3.4449,-3.525,-3.5753,-3.5715,-3.5067,-3.4875,-3.5585,-3.5038,-3.4923,-3.5736,-3.5814,-3.5802,-3.5818,-3.6596,-3.7449,-3.8312,-3.9894,-4.1179,-4.2054,-4.2886,-4.3305,-4.3285,-4.415,-4.4131,-4.326,-4.4924,-4.4866,-4.3247,-4.3266,-4.3711,-4.4485,-4.4582,-4.4606,-4.4645,-4.5509,-4.4889,-4.3433,-4.3422,-4.2374,-4.0743,-3.983,-3.9035,-3.8176,-3.6414,-3.6355,-3.6929,-3.6087,-3.5799,-3.5799,-3.5799,-3.5799,-3.5795,-3.5795,-3.5794,-3.58,-3.5802,-3.581,-3.5802,-3.5794,-3.5801,-3.5548,-3.4648,-3.5088,-3.4884,-3.2346,-3.2484,-3.2512,-3.0888,-3.0598,-3.0598,-3.0598,-3.0598,-3.0598,-3.0559,-3.0559,-3.0559,-3.052,-2.9766,-2.8915,-2.8034,-2.7194,-2.6354,-2.555,-2.5511,-2.5511,-2.5511,-2.5511,-2.5511,-2.5511,-2.5511,-2.5511,-2.5511,-2.5511,-2.5511,-2.5511,-2.5511,-2.5511,0.0,0.0,-2.8534,-2.8553,-2.9421,-3.0271,-3.0321,-3.0514,-3.0862,-3.1421,-3.0639,-3.045,-3.2435,-3.2093,-3.2175,-3.4186,-3.4717,-3.5065,-3.5626,-3.5027,-3.4612,-3.4807,-3.4671,-3.4621,-3.4853,-3.5418,-3.5801,-3.5799,-3.6606,-3.7705,-3.912,-4.0253,-4.1478,-4.2885,-4.3763,-4.3647,-4.2492,-4.3885,-4.3866,-4.2454,-4.4175,-4.4717,-4.4175,-4.4717,-4.4504,-4.3808,-4.4937,-4.4796,-4.3847,-4.4705,-4.4395,-4.3369,-4.3369,-4.2676,-4.1662,-4.1327,-4.1091,-4.0613,-3.8274,-3.7303,-3.7047,-3.6759,-3.6239,-3.5727,-3.5727,-3.5728,-3.5728,-3.5737,-3.5727,-3.5727,-3.5735,-3.5735,-3.5735,-3.5727,-3.5737,-3.5495,-3.4623,-3.4642,-3.4573,-3.3742,-3.2832,-3.2232,-3.2261,-3.1333,-3.0598,-3.0598,-3.0598,-3.0598,-3.0598,-3.0598,-3.0598,-3.0598,-3.0346,-2.9805,-2.8934,-2.8586,-2.7813,-2.6392,-2.6296,-2.6064,-2.553,-2.5511,-2.5511,-2.5511,-2.5511,-2.5511,-2.5511,-2.5511,-2.5511,-2.5511,-2.5511,-2.5511,-2.7329,-2.8481,-2.9431,-2.9745,-3.0243,-3.0675,-3.0687,-3.0673,-3.0715,-3.0933,-3.0106,-2.978,-3.109,-3.0684,-3.0888,-3.3151,-3.375,-3.435,-3.553,-3.4977,-3.4668,-3.522,-3.5074,-3.5151,-3.5704,-3.6303,-3.64,-3.58,-3.7123,-3.8554,-3.9946,-4.1074,-4.246,-4.4136,-4.4465,-4.3904,-4.2473,-4.3576,-4.3576,-4.2473,-4.2995,-4.3556,-4.4136,-4.4349,-4.402,-4.3363,-4.4446,-4.4291,-4.3343,-4.3904,-4.3614,-4.2879,-4.3189,-4.2789,-4.2071,-4.2022,-4.2039,-4.1798,-3.9529,-3.8588,-3.8277,-3.7327,-3.6619,-3.6086,-3.5795,-3.5697,-3.5704,-3.5704,-3.5704,-3.5704,-3.5704,-3.5704,-3.5704,-3.5704,-3.5704,-3.5549,-3.4988,-3.5085,-3.5123,-3.4524,-3.375,-3.3073,-3.2696,-3.1507,-3.0598,-3.0598,-3.0598,-3.0598,-3.0598,-3.0598,-3.0598,-3.0598,-3.0598,-3.025,-2.936,-2.9302,-2.8683,-2.7252,-2.6876,-2.647,-2.5956,-2.5646,-2.5646,-2.5917,-2.5936,-2.5936,-2.5936,-2.5936,-2.5782,-2.5511,-2.5511,-2.5646,-2.8915,-2.9399,-2.9631,-3.0443,-3.0656,-3.0674,-3.0687,-3.0604,-3.0297,-2.9469,-2.924,-2.8915,-2.8083,0.0,-2.9785,-3.1468,-3.2502,-3.3712,-3.5452,-3.5007,-3.5123,0.0,0.0,0.0,0.0,0.0,-3.7657,-3.6013,-3.8179,-3.9952,-4.081,-4.2415,-4.4059,-4.5684,-4.4949,-4.4117,-4.3247,-4.3189,-4.3189,-4.3208,-4.1622,-4.1719,-4.3266,-4.2434,-4.2492,-4.3247,-4.3285,-4.3247,-4.3189,-4.3227,-4.2725,-4.2028,-4.286,-4.2667,-4.1932,-4.197,-4.2009,-4.1777,-4.0172,-4.0122,-4.0311,-3.7835,-3.698,-3.6767,-3.5994,-3.5723,-3.5704,-3.5704,-3.5704,-3.5704,-3.5704,-3.5704,-3.5704,-3.5704,-3.5704,-3.5704,-3.5704,-3.6303,-3.6381,-3.4833,-3.5201,-3.493,-3.2319,-3.1236,-3.0694,-3.0617,-3.0598,-3.0598,-3.0598,-3.0598,-3.0598,-3.0598,-3.0598,-3.0269,-2.9437,-2.936,-2.8992,-2.8131,-2.729,-2.6799,-2.676,-2.6033,-2.5994,-2.6741,-2.676,-2.676,-2.676,-2.676,-2.6373,-2.5627,-2.5627,-2.6052,-2.9979,-3.0714,-3.1217,-3.1449,-3.1487,-3.1333,-3.0752,-3.0104,-2.9582,-2.9358,-2.8266,-2.731,-2.7078,-2.7735,0.0,-3.0636,-3.2145,0.0,-3.5452,-3.6013,0.0,-3.6845,0.0,-3.8702,-3.9127,-3.9765,-3.9688,-3.8605,-3.9727,-4.0829,-4.1641,-4.2705,-4.3788,-4.4871,-4.4078,-4.3208,-4.2338,-4.1738,-4.1738,-4.2338,-4.1893,-4.226,-4.3285,-4.3073,-4.2744,-4.2376,-4.3015,-4.2589,-4.1487,-4.2086,-4.1854,-4.1119,-4.1351,-4.1293,-4.1177,-4.1777,-4.2009,-4.1932,-4.1506,-4.0687,-3.9712,-3.9042,-3.7967,-3.6864,-3.6651,-3.6187,-3.5704,-3.5704,-3.5704,-3.5704,-3.5704,-3.5704,-3.5704,-3.5704,-3.5704,-3.5704,-3.5704,-3.5858,-3.6052,-3.6226,-3.6439,-3.5781,-3.3198,-3.2599,-3.2048,-3.0791,-3.0598,-3.0598,-3.0598,-3.0598,-3.0598,-3.0598,-3.0598,-3.0501,-3.0288,-3.0269,-2.9901,-2.9012,-2.876,-2.8354,-2.7696,-2.7464,-2.7464,-2.7658,-2.7677,-2.7677,-2.7677,-2.7677,-2.7561,-2.7348,-2.7348,-2.7464,-3.0907,-3.1739,-3.227,-3.1913,-3.1797,-3.1487,-3.0308,-2.965,-2.8973,-2.7851,-2.6845,0.0,-2.5182,-2.5743,0.0,0.0,0.0,0.0,-3.4833,-3.6149,-3.7038,0.0,-3.9011,0.0,-4.0558,-4.1042,-4.1119,-4.0616,-4.0713,-4.1003,-4.1448,-4.226,-4.3131,-4.4001,-4.3189,-4.2338,-4.1487,-4.1023,-4.1023,-4.1467,-4.1467,-4.1719,-4.2202,-4.2202,-4.1932,-4.1506,-4.199,-4.1661,-4.0829,-4.1293,-4.1216,-4.079,-4.079,-4.079,-4.0848,-4.1313,-4.1467,-4.1467,-4.1467,-4.0848,-4.001,-3.9623,-3.8837,-3.7967,-3.7599,-3.6884,-3.6226,-3.6226,-3.5974,-3.5704,-3.5704,-3.5704,-3.5704,-3.5704,-3.5704,-3.5704,-3.5704,-3.5704,-3.582,-3.6284,-3.6361,-3.5684,-3.3469,-3.3102,-3.2522,-3.0849,-3.0598,-3.0598,-3.0598,-3.0598,-3.0598,-3.0598,-3.0598,-3.0598,-3.0598,-3.0598,-3.0385,-2.9901,-2.9515,-2.907,-2.8586,-2.8208,-2.8189,-2.8548,-2.8567,-2.8567,-2.8567,-2.8567,-2.8373,-2.7995,-2.7995,-2.8199,-3.1584,-3.2348,-3.2754,-3.199,-3.1719,-3.1236,-2.965,-2.9031,-2.8161,-2.5956,0.0,-2.466,-2.3035,-2.3635,-2.5124,-2.7445,0.0,-3.1487,-3.404,-3.5839,-3.7232,-3.8102,-3.9939,-4.1409,-4.2106,-4.228,-4.2357,-4.2357,-4.1583,-4.1081,-4.0965,-4.1622,-4.2299,-4.2957,-4.2222,-4.1506,-4.081,-4.079,-4.079,-4.079,-4.079,-4.079,-4.079,-4.079,-4.079,-4.079,-4.079,-4.079,-4.079,-4.079,-4.079,-4.079,-4.079,-4.079,-4.079,-4.079,-4.079,-4.079,-4.079,-4.079,-4.0674,-3.9932,-3.9603,-3.9359,-3.8605,-3.7677,-3.6903,-3.6903,-3.6323,-3.5704,-3.5704,-3.5704,-3.5704,-3.5704,-3.5704,-3.5704,-3.5704,-3.5704,-3.5723,-3.5839,-3.5955,-3.5433,-3.3596,-3.3372,-3.2803,-3.0888,-3.0598,-3.0598,-3.0598,-3.0598,-3.0598,-3.0598,-3.0598,-3.0598,-3.0598,-3.0598,-3.0598,-3.0598,-2.9882,-2.9476,-2.9476,-2.8741,-2.8702,-2.9457,-2.9476,-2.9476,-2.9476,-2.9476,-2.907,-2.8354,-2.8354,-2.8741,-3.1584,-3.1913,-3.199,-3.1835,-3.1294,-3.054,-2.9534,-2.7677,0.0,0.0,-2.435,-2.3055,-2.2094,-2.3751,-2.5646,-2.6741,0.0,0.0,0.0,0.0,-3.7232,0.0,-4.0965,-4.2918,-4.3053,-4.373,-4.4156,-4.4156,-4.3343,-4.255,-4.1835,-4.1912,-4.1757,-4.1255,-4.1081,-4.0945,-4.079,-4.079,-4.079,-4.079,-4.079,-4.079,-4.079,-4.079,-4.079,-4.079,-4.079,-4.079,-4.079,-4.079,-4.079,-4.079,-4.079,-4.079,-4.079,-4.079,-4.079,-4.079,-4.079,-4.079,-4.0771,-4.0616,-4.0075,-3.9468,-3.9321,-3.816,-3.6903,-3.6903,-3.6323,-3.5704,-3.5704,-3.5704,-3.5704,-3.5704,-3.5704,-3.5704,-3.5704,-3.5704,-3.5897,-3.6555,-3.727,-3.7,-3.4582,-3.4775,-3.4195,-3.1062,-3.0598,-3.0598,-3.0598,-3.0598,-3.0598,-3.0598,-3.0598,-3.0598,-3.0598,-3.0598,-3.0598,-3.0598,-3.0462,-3.0366,-3.0366,-3.023,-3.0211,-3.0366,-3.0366,-3.0366,-3.0366,-3.0366,-3.0308,-3.0153,-3.0153,-3.023,-3.1584,-3.2126,-3.2367,-3.1913,-3.1197,-3.0133,-2.8354,0.0,0.0,0.0,-2.2494,-2.1488,-2.1082,0.0,0.0,0.0,0.0,0.0,0.0,0.0,0.0,0.0,-4.1216,-4.3305,0.0,-4.3692,-4.3924,-4.3924,-4.2725,-4.2202,-4.2647,-4.2241,-4.1622,-4.0829,-4.079,-4.079,-4.079,-4.079,-4.079,-4.079,-4.079,-4.079,-4.079,-4.079,-4.079,-4.079,-4.079,-4.079,-4.079,-4.079,-4.079,-4.079,-4.079,-4.079,-4.079,-4.079,-4.079,-4.079,-4.079,-4.079,-4.0732,-4.0268,-4.0152,-4.0075,-3.9642,-3.8605,-3.7483,-3.7038,-3.6323,-3.5704,-3.5704,-3.5704,-3.5704,-3.5704,-3.5704,-3.5704,-3.5704,-3.5704,-3.58,-3.6207,-3.7328,-3.7386,-3.4833,-3.5123,-3.4679,-3.1681,-3.0868,-3.0598,-3.0598,-3.0598,-3.0598,-3.0598,-3.0598,-3.0598,-3.0598,-3.0598,-3.0598,-3.0598,-3.0598,-3.0598,-3.0598,-3.0598,-3.0598,-3.0598,-3.0598,-3.0598,-3.0598,-3.0598,-3.0598,-3.0598,-3.0598,-3.0598,-3.1101,-3.1913,-3.2396,-3.1719,-3.0791,-2.9457,-2.7205,-2.5124,0.0,0.0,-2.0734,-2.0109,-2.0109,0.0,0.0,0.0,0.0,0.0,0.0,0.0,0.0,0.0,-4.079,0.0,-4.3266,-4.3479,-4.3653,-4.3827,-4.2609,-4.2125,-4.2725,-4.2125,-4.1448,-4.081,-4.079,-4.079,-4.079,-4.079,-4.079,-4.079,-4.079,-4.079,-4.079,-4.079,-4.079,-4.079,-4.079,-4.079,-4.079,-4.079,-4.079,-4.079,-4.079,-4.079,-4.079,-4.079,-4.0674,-4.052,-4.052,-4.0404,-4.0133,-3.9437,-3.9804,-4.0346,-3.9495,-3.8605,-3.7793,-3.7096,-3.6323,-3.5704,-3.5704,-3.5704,-3.5704,-3.5704,-3.5704,-3.5704,-3.5704,-3.5704,-3.5704,-3.5704,-3.6903,-3.7116,-3.4563,-3.4833,-3.4543,-3.1932,-3.1004,-3.0598,-3.0598,-3.0598,-3.0598,-3.0598,-3.0598,-3.0598,-3.0598,-3.0598,-3.0598,-3.0598,-3.0598,-3.0598,-3.0598,-3.0598,-3.0598,-3.0598,-3.0598,-3.0598,-3.0598,-3.0598,-3.0598,-3.0598,-3.0598,-3.0598,-2.9515,-3.0172,-3.081,-3.0733,-2.9457,-2.7967,-2.6934,0.0,0.0,-2.0714,-1.9825,-1.9225,-1.9225,-2.0579,0.0,0.0,0.0,0.0,0.0,0.0,0.0,0.0,0.0,0.0,-4.315,-4.402,-4.4775,-4.551,-4.5432,-4.4078,-4.1177,-4.0945,-4.0868,-4.079,-4.079,-4.079,-4.079,-4.079,-4.079,-4.079,-4.079,-4.079,-4.079,-4.079,-4.079,-4.079,-4.079,-4.079,-4.079,-4.079,-4.079,-4.079,-4.079,-4.079,-4.079,-4.079,-4.0288,-3.9623,-3.9623,-3.9088,-3.8431,-3.8353,-3.8914,-3.9456,-3.8586,-3.7715,-3.7,-3.6922,-3.6323,-3.5704,-3.5704,-3.5704,-3.5704,-3.5704,-3.5704,-3.5704,-3.5704,-3.5704,-3.5704,-3.5704,-3.6419,-3.6207,-3.3673,-3.3944,-3.3654,-3.1081,-3.0656,-3.0598,-3.0598,-3.0598,-3.0598,-3.0598,-3.0598,-3.0598,-3.0598,-3.0598,-3.0598,-3.0598,-3.0598,-3.0598,-3.0598,-3.0598,-3.0598,-3.0598,-3.0598,-3.0598,-3.0598,-3.0598,-3.0598,-3.0598,-3.0598,-3.0598,-2.9166,-2.994,-3.0482,-3.0008,-2.8934,-2.7522,-2.5669,0.0,-2.0676,-1.9805,-1.896,-1.8534,-1.9012,-2.0095,-2.1469,0.0,-2.3712,-2.5124,-2.8548,0.0,0.0,0.0,-3.7986,0.0,0.0,-4.2841,-4.2976,-4.2802,-4.2783,-4.2202,-4.0868,-4.1757,-4.1835,-4.0829,-4.079,-4.079,-4.079,-4.1274,-4.1274,-4.081,-4.1293,-4.1274,-4.079,-4.079,-4.079,-4.079,-4.079,-4.079,-4.079,-4.079,-4.079,-4.079,-4.079,-4.079,-4.0732,-4.021,-3.9797,-3.9429,-3.8895,-3.8489,-3.8121,-3.7599,-3.7657,-3.787,-3.7522,-3.7174,-3.6806,-3.6303,-3.5955,-3.5704,-3.5704,-3.5704,-3.5704,-3.5704,-3.5704,-3.5704,-3.5704,-3.5704,-3.5704,-3.5704,-3.6342,-3.6419,-3.493,-3.4524,-3.3886,-3.2338,-3.1255,-3.0598,-3.0598,-3.0598,-3.0598,-3.0598,-3.0598,-3.0598,-3.0598,-3.0598,-3.0598,-3.0598,-3.0598,-3.0598,-3.0598,-3.0598,-3.0598,-3.0598,-3.0598,-3.0598,-3.0598,-3.0598,-3.0598,-3.0598,-3.0598,-3.0598,-2.8296,-2.9186,-2.9718,-2.9168,-2.8313,-2.7059,0.0,-2.2286,-2.0147,-1.9302,-1.8463,-1.8149,-1.8989,-1.9829,-2.0888,0.0,-2.2765,-2.3944,-2.6845,-2.8219,0.0,0.0,0.0,-3.7793,-4.0597,-4.1796,-4.2144,-4.1583,-4.1545,-4.1429,-4.1158,-4.226,-4.226,-4.0829,-4.079,-4.079,-4.079,-4.1351,-4.1351,-4.081,-4.1371,-4.1351,-4.079,-4.079,-4.079,-4.079,-4.079,-4.079,-4.079,-4.079,-4.0636,-4.0423,-4.0423,-4.0249,-3.9959,-3.934,-3.8953,-3.8644,-3.8025,-3.7657,-3.7367,-3.6748,-3.6555,-3.6555,-3.6555,-3.6555,-3.6439,-3.5858,-3.5704,-3.5704,-3.5704,-3.5704,-3.5704,-3.5704,-3.5704,-3.5704,-3.5704,-3.5704,-3.5704,-3.5704,-3.5955,-3.5897,-3.5065,-3.4214,-3.3344,-3.2493,-3.1371,-3.0598,-3.0598,-3.0598,-3.0598,-3.0598,-3.0598,-3.0598,-3.0598,-3.0598,-3.0598,-3.0598,-3.0598,-3.0598,-3.0598,-3.0598,-3.0598,-3.0598,-3.0598,-3.0598,-3.0598,-3.0598,-3.0598,-3.0598,-3.0598,-3.0598,-2.6508,-2.7409,-2.8124,-2.8124,-2.745,-2.6378,0.0,-2.2286,-2.0173,-1.9353,-1.8507,-1.8174,-1.9038,-1.991,-2.0772,-2.1585,-2.2443,-2.3589,-2.5298,-2.6962,0.0,0.0,0.0,-3.4494,-3.7909,-4.1293,-4.3285,-4.3266,-4.3266,-4.2899,-4.2028,-4.2009,-4.1641,-4.0829,-4.079,-4.079,-4.079,-4.081,-4.081,-4.079,-4.081,-4.081,-4.079,-4.079,-4.079,-4.079,-4.079,-4.079,-4.079,-4.079,-4.0288,-3.9507,-3.9507,-3.8992,-3.8237,-3.8218,-3.7677,-3.6922,-3.6922,-3.6381,-3.5723,-3.5723,-3.5704,-3.5704,-3.5704,-3.5704,-3.5704,-3.5704,-3.5704,-3.5704,-3.5704,-3.5704,-3.5704,-3.5704,-3.5704,-3.5704,-3.5704,-3.5704,-3.5704,-3.5704,-3.5007,-3.4156,-3.3276,-3.2386,-3.1545,-3.0752,-3.0617,-3.0598,-3.0598,-3.0598,-3.0598,-3.0598,-3.0598,-3.0598,-3.0598,-3.0598,-3.0598,-3.0598,-3.0598,-3.0598,-3.0598,-3.0598,-3.0598,-3.0598,-3.0598,-3.0598,-3.0598,-3.0598,-3.0598,-3.0598,-3.0598,-3.0598,-2.4022,-2.5194,-2.606,-2.4911,-2.4814,-2.4606,-2.2952,-2.0998,-1.9445,-1.9242,-1.8542,-1.8216,-1.9041,-1.9916,-2.1143,-2.3155,0.0,0.0,0.0,0.0,0.0,-3.1217,-3.5007,-3.7889,-3.8972,-4.0616,-4.1583,-4.1583,-4.1583,-4.1467,-4.1177,-4.1177,-4.1061,-4.081,-4.079,-4.079,-4.079,-4.1351,-4.1332,-4.081,-4.1351,-4.1332,-4.079,-4.079,-4.079,-4.079,-4.079,-4.079,-4.0752,-4.0152,-3.9758,-3.9449,-3.8837,-3.845,-3.8141,-3.7541,-3.7135,-3.6826,-3.6265,-3.5916,-3.5704,-3.5704,-3.5704,-3.5704,-3.5704,-3.5704,-3.5704,-3.5704,-3.5704,-3.5704,-3.5704,-3.5704,-3.5704,-3.5704,-3.5704,-3.5704,-3.5704,-3.5704,-3.551,-3.493,-3.5065,-3.4814,-3.3353,-3.287,-3.2386,-3.1545,-3.0946,-3.0598,-3.0598,-3.0598,-3.0598,-3.0598,-3.0598,-3.0598,-3.0598,-3.0598,-3.0598,-3.0598,-3.0598,-3.0598,-3.0598,-3.0598,-3.0598,-3.0598,-3.0598,-3.0598,-3.0598,-3.0598,-3.0598,-3.0598,-3.0598,-3.0629,0.0,-2.3016,-2.3843,-2.2778,-2.2914,-2.2946,-2.1617,-1.9939,-1.8681,-1.8722,-1.8343,-1.8251,-1.9081,-1.9959,-2.1052,-2.2614,-2.3354,0.0,0.0,0.0,0.0,-3.1565,0.0,-3.7707,-3.8025,-3.9417,-4.0307,-4.0307,-4.0307,-4.0307,-4.0307,-3.9997,-3.9823,-3.9823,-4.0133,-4.0307,-4.0307,-4.081,-4.081,-4.0307,-4.1139,-4.1274,-4.079,-4.079,-4.079,-4.079,-4.079,-4.0597,0.0,-3.9719,-3.9108,-3.847,-3.7928,-3.7522,-3.7193,-3.6651,-3.6458,-3.6381,-3.5878,-3.5704,-3.5704,-3.5704,-3.5704,-3.5704,-3.5704,-3.5704,-3.5704,-3.5704,-3.5704,-3.5704,-3.5704,-3.5704,-3.5704,-3.5704,-3.5704,-3.5704,-3.5704,-3.5704,-3.553,-3.4988,-3.4795,-3.4369,-3.3295,-3.258,-3.1971,-3.1429,-3.0926,-3.0598,-3.0598,-3.0598,-3.0598,-3.0598,-3.0598,-3.0598,-3.0598,-3.0598,-3.0598,-3.0598,-3.0598,-3.0598,-3.0598,-3.0598,-3.0598,-3.0598,-3.0598,-3.0598,-3.0598,-3.0598,-3.0617,-3.0636,-3.0629,-3.0659,0.0,-2.0721,-2.1488,-2.1359,-2.1424,-2.1307,-2.0521,-1.9012,0.0,-1.7982,-1.7999,-1.8293,-1.9217,-2.0098,-2.0738,-2.0857,-2.2174,0.0,0.0,-2.6674,0.0,0.0,-3.3557,-3.4891,-3.5704,-3.7967,-3.941,-3.941,-3.941,-3.941,-3.941,-3.8644,-3.8199,-3.8199,-3.8934,-3.9352,-3.941,-3.941,-3.941,-3.9429,-4.023,-4.0616,-4.0616,-4.0616,-4.0616,-4.0616,-4.0616,-4.0152,-3.941,-3.9352,-3.8353,-3.6884,-3.6845,-3.6361,-3.5704,-3.5704,-3.5704,-3.5704,-3.5704,-3.5704,-3.5704,-3.5704,-3.5704,-3.5704,-3.5704,-3.5704,-3.5704,-3.5704,-3.5704,-3.5704,-3.5704,-3.5704,-3.5704,-3.5704,-3.5704,-3.5704,-3.5704,-3.5704,-3.5684,-3.5626,-3.435,-3.3237,-3.3121,-3.1816,-3.0752,-3.0694,-3.0636,-3.0598,-3.0598,-3.0598,-3.0598,-3.0598,-3.0598,-3.0598,-3.0598,-3.0598,-3.0598,-3.0598,-3.0598,-3.0598,-3.0598,-3.0598,-3.0598,-3.0617,-3.0598,-3.0598,-3.0598,-3.0598,-3.0636,-3.0704,-3.0704,-3.0716,-1.5424,0.0,-1.8642,-1.796,-1.83,-1.8783,0.0,-1.7754,-1.7176,0.0,0.0,-1.8472,-2.0019,-2.1016,-2.2223,-2.4167,0.0,0.0,-2.7055,0.0,0.0,-3.4466,-3.5684,-3.64,-3.6593,-3.7754,-3.8508,-3.8508,-3.8508,-3.8508,-3.8508,-3.8315,-3.8199,-3.8199,-3.7754,-3.7831,-3.8508,-3.8508,-3.8508,-3.8508,-3.8721,-3.8818,-3.8818,-3.8818,-3.8818,-3.8818,-3.8818,-3.8702,-3.845,-3.7793,-3.727,-3.6845,-3.6226,-3.5858,-3.5704,-3.5704,-3.5704,-3.5704,-3.5704,-3.5704,-3.5704,-3.5704,-3.5704,-3.5704,-3.5704,-3.5704,-3.5704,-3.5704,-3.5704,-3.5704,-3.5704,-3.5704,-3.5704,-3.5704,-3.5704,-3.5704,-3.5704,-3.5704,-3.5491,-3.4833,-3.4911,-3.4679,-3.3334,-3.2773,-3.23,-3.1623,-3.0984,-3.0598,-3.0598,-3.0598,-3.0598,-3.0598,-3.0598,-3.0598,-3.0598,-3.0598,-3.0598,-3.0598,-3.0598,-3.0598,-3.0598,-3.0598,-3.0617,-3.0675,-3.0636,-3.0598,-3.0598,-3.0598,-3.0636,-3.0694,-3.0748,-3.0784,-1.3988,-1.627,-1.8414,-1.7925,-1.8173,-1.8547,-1.8556,0.0,0.0,0.0,0.0,0.0,-1.975,0.0,0.0,0.0,-2.5129,0.0,0.0,0.0,-3.3228,-3.5433,-3.6071,-3.6342,-3.6342,-3.7116,-3.7599,-3.7599,-3.7599,-3.7599,-3.7599,-3.7251,-3.7058,-3.7058,-3.6593,-3.6748,-3.7599,-3.7599,-3.7599,-3.7618,-3.8005,-3.8199,-3.8199,-3.8199,-3.8199,-3.8199,-3.8199,-3.7967,-3.758,-3.7096,-3.669,-3.6303,-3.5858,-3.5704,-3.5704,-3.5704,-3.5704,-3.5704,-3.5704,-3.5704,-3.5704,-3.5704,-3.5704,-3.5704,-3.5704,-3.5704,-3.5704,-3.5704,-3.5704,-3.5704,-3.5704,-3.5704,-3.5704,-3.5704,-3.5704,-3.5704,-3.5704,-3.5704,-3.5549,-3.5085,-3.5046,-3.4795,-3.3866,-3.3363,-3.2792,-3.1932,-3.1429,-3.1023,-3.0656,-3.0598,-3.0598,-3.0598,-3.0598,-3.0598,-3.0598,-3.0598,-3.0598,-3.0598,-3.0598,-3.0617,-3.0636,-3.0645,-3.0664,-3.0703,-3.0662,-3.0656,-3.0656,-3.0656,-3.0675,-3.0752,-3.0752,-3.0748,-1.3993,-1.6755,-1.9224,-1.889,-1.8957,-1.9096,0.0,0.0,0.0,0.0,0.0,0.0,0.0,0.0,0.0,0.0,0.0,0.0,-3.1265,-3.2541,-3.375,-3.5491,-3.5704,-3.5704,-3.5704,-3.6323,-3.6729,-3.6729,-3.6729,-3.6729,-3.6729,-3.6071,-3.5704,-3.5704,-3.5704,-3.6033,-3.6709,-3.6729,-3.6729,-3.6729,-3.7464,-3.7831,-3.7831,-3.7831,-3.7831,-3.7831,-3.7831,-3.7406,-3.6729,-3.6729,-3.6323,-3.5704,-3.5704,-3.5704,-3.5704,-3.5704,-3.5704,-3.5704,-3.5704,-3.5704,-3.5704,-3.5704,-3.5704,-3.5704,-3.5704,-3.5704,-3.5704,-3.5704,-3.5704,-3.5704,-3.5704,-3.5704,-3.5704,-3.5704,-3.5704,-3.5704,-3.5704,-3.5704,-3.5704,-3.5704,-3.5104,-3.4601,-3.4601,-3.3886,-3.2996,-3.2126,-3.1894,-3.1507,-3.0694,-3.0598,-3.0598,-3.0598,-3.0598,-3.0598,-3.0598,-3.0598,-3.0617,-3.0636,-3.0625,-3.0653,-3.0714,-3.0722,-3.0728,-3.0708,-3.0711,-3.0707,-3.0701,-3.0713,-3.0733,-3.08,-3.0757,-3.071,-1.4589,-1.7216,-1.8938,-1.745,-1.765,-1.8202,0.0,0.0,0.0,0.0,0.0,0.0,0.0,0.0,0.0,0.0,0.0,-2.9496,0.0,-3.2541,-3.375,-3.5491,-3.5704,-3.5704,-3.5704,-3.58,-3.5878,-3.5878,-3.5878,-3.5878,-3.5878,-3.5762,-3.5704,-3.5704,-3.5704,-3.5762,-3.5878,-3.5878,-3.5878,-3.5897,-3.6013,-3.6071,-3.6071,-3.6071,-3.6071,-3.6071,-3.6071,-3.6013,-3.5878,-3.5878,-3.58,-3.5704,-3.5704,-3.5704,-3.5704,-3.5704,-3.5704,-3.5704,-3.5704,-3.5704,-3.5704,-3.5704,-3.5704,-3.5704,-3.5704,-3.5704,-3.5704,-3.5704,-3.5704,-3.5704,-3.5704,-3.5704,-3.5704,-3.5704,-3.5704,-3.5704,-3.5704,-3.5704,-3.5704,-3.5704,-3.5588,-3.5491,-3.5491,-3.4775,-3.3905,-3.3024,-3.227,-3.1507,-3.0694,-3.0598,-3.0598,-3.0598,-3.0598,-3.0598,-3.0598,-3.0598,-3.0656,-3.0752,-3.0717,-3.0711,-3.0781,-3.0849,-3.0838,-3.0799,-3.0776,-3.0755,-3.0706,-3.0754,-3.0791,-3.08,-3.0845,-3.0806,-1.2901,-1.4888,-1.6635,-1.7242,-1.9088,-2.064,0.0,0.0,0.0,0.0,0.0,0.0,0.0,0.0,-2.5053,-2.7199,0.0,-3.0134,-3.2212,-3.285,-3.375,-3.5491,-3.5704,-3.5704,-3.5704,-3.5704,-3.5704,-3.5704,-3.5704,-3.5704,-3.5704,-3.5704,-3.5704,-3.5704,-3.5704,-3.5704,-3.5704,-3.5704,-3.5704,-3.5704,-3.5704,-3.5704,-3.5704,-3.5704,-3.5704,-3.5704,-3.5704,-3.5704,-3.5704,-3.5704,-3.5704,-3.5704,-3.5704,-3.5704,-3.5704,-3.5704,-3.5704,-3.5704,-3.5704,-3.5704,-3.5704,-3.5704,-3.5704,-3.5704,-3.5704,-3.5704,-3.5704,-3.5704,-3.5704,-3.5704,-3.5704,-3.5704,-3.5704,-3.5704,-3.5704,-3.5704,-3.5704,-3.5704,-3.5704,-3.5704,-3.5704,-3.5704,-3.5704,-3.5375,-3.464,-3.3295,-3.2754,-3.2048,-3.0752,-3.0598,-3.0598,-3.0598,-3.0598,-3.0598,-3.0598,-3.0634,-3.0707,-3.0781,-3.0799,-3.0813,-3.0856,-3.0871,-3.0898,-3.0859,-3.0859,-3.0838,-3.0806,-3.0837,-3.0856,-3.0856,-3.0807,-3.0767,-1.1848,-1.3274,-1.4971,-1.7405,0.0,0.0,-2.2186,0.0,0.0,0.0,0.0,0.0,0.0,-2.4394,0.0,-2.7729,-2.8954,-3.0405,-3.2502,-3.2792,-3.3383,-3.4911,-3.5085,-3.5162,-3.5375,-3.5394,-3.5472,-3.5684,-3.5704,-3.5704,-3.5704,-3.5704,-3.5704,-3.5704,-3.5704,-3.5704,-3.5704,-3.5704,-3.5704,-3.5704,-3.5704,-3.5704,-3.5704,-3.5704,-3.5704,-3.5704,-3.5704,-3.5704,-3.5704,-3.5704,-3.5704,-3.5704,-3.5704,-3.5704,-3.5704,-3.5704,-3.5704,-3.5704,-3.5704,-3.5704,-3.5704,-3.5704,-3.5704,-3.5704,-3.5704,-3.5704,-3.5704,-3.5704,-3.5704,-3.5704,-3.5704,-3.5684,-3.5673,-3.5704,-3.5693,-3.5673,-3.5704,-3.5684,-3.5673,-3.5704,-3.5704,-3.5704,-3.5704,-3.553,-3.4872,-3.3334,-3.2928,-3.2261,-3.0791,-3.0598,-3.0598,-3.0598,-3.0598,-3.0617,-3.0617,-3.0683,-3.0749,-3.0807,-3.0855,-3.0898,-3.0898,-3.0898,-3.0898,-3.0898,-3.0898,-3.0898,-3.0898,-3.0898,-3.0898,-3.0898,-3.0786,-3.0728,-1.3254,-1.4603,-1.5738,-1.7549,0.0,0.0,-2.2488,0.0,0.0,0.0,0.0,0.0,0.0,-2.6293,-2.7959,-2.8074,-2.9444,-3.084,-3.1767,-3.1893,-3.2242,-3.3179,-3.3295,-3.3596,-3.4408,-3.4485,-3.4833,-3.5646,-3.5704,-3.5704,-3.5704,-3.5704,-3.5704,-3.5704,-3.5704,-3.5704,-3.5704,-3.5704,-3.5704,-3.5704,-3.5704,-3.5704,-3.5704,-3.5704,-3.5704,-3.5704,-3.5704,-3.5704,-3.5704,-3.5704,-3.5704,-3.5704,-3.5704,-3.5704,-3.5704,-3.5704,-3.5704,-3.5704,-3.5704,-3.5704,-3.5704,-3.5704,-3.5704,-3.5704,-3.5704,-3.5704,-3.5704,-3.5704,-3.5704,-3.5704,-3.5704,-3.5643,-3.5612,-3.5684,-3.5651,-3.5616,-3.5693,-3.5643,-3.5631,-3.5684,-3.5704,-3.5704,-3.5704,-3.5027,-3.4176,-3.3237,-3.2406,-3.1584,-3.0714,-3.0598,-3.0598,-3.0598,-3.0598,-3.0636,-3.0694,-3.0752,-3.0788,-3.0797,-3.0859,-3.0898,-3.0898,-3.0898,-3.0898,-3.0898,-3.0898,-3.0898,-3.0898,-3.0898,-3.0898,-3.0898,-3.0827,-3.0761,-1.1476,-1.3528,-1.5696,-1.6883,0.0,0.0,0.0,0.0,0.0,0.0,0.0,0.0,0.0,0.0,-2.8129,-2.8043,-2.9437,-3.0839,-3.1678,-3.1795,-3.2125,-3.2995,-3.3102,-3.3218,-3.3557,-3.3596,-3.3944,-3.4833,-3.4891,-3.5123,-3.5665,-3.5182,-3.5143,-3.5684,-3.5162,-3.5143,-3.5684,-3.5704,-3.5704,-3.5704,-3.5704,-3.5704,-3.5704,-3.5704,-3.5704,-3.5704,-3.5662,-3.5643,-3.5643,-3.5639,-3.5628,-3.5628,-3.5628,-3.5628,-3.5628,-3.5628,-3.5628,-3.5628,-3.5628,-3.5628,-3.5628,-3.5628,-3.5628,-3.5628,-3.5628,-3.5628,-3.5628,-3.5628,-3.5628,-3.5639,-3.5631,-3.5612,-3.5612,-3.5643,-3.562,-3.562,-3.5693,-3.5673,-3.5673,-3.5704,-3.5704,-3.553,-3.4969,-3.4621,-3.3924,-3.2512,-3.201,-3.1507,-3.0694,-3.0598,-3.0598,-3.0598,-3.061,-3.0618,-3.0684,-3.0752,-3.0795,-3.0794,-3.0862,-3.0898,-3.0898,-3.0849,-3.0864,-3.0898,-3.0859,-3.0859,-3.0898,-3.0864,-3.0839,-3.0839,-3.0726,-3.0656,-1.1047,-1.3215,-1.5675,0.0,0.0,0.0,0.0,0.0,0.0,0.0,0.0,0.0,0.0,0.0,0.0,-2.8376,-2.9592,-3.0692,-3.1279,-3.1388,-3.1611,-3.221,-3.2289,-3.2396,-3.2656,-3.2696,-3.3044,-3.3914,-3.3982,-3.4253,-3.4853,-3.4311,-3.4253,-3.4853,-3.4311,-3.4281,-3.4861,-3.485,-3.485,-3.485,-3.485,-3.514,-3.5673,-3.5662,-3.5681,-3.5681,-3.562,-3.5608,-3.5608,-3.5604,-3.5591,-3.5591,-3.5591,-3.5591,-3.5591,-3.5591,-3.5591,-3.5591,-3.5591,-3.5591,-3.5591,-3.5591,-3.5591,-3.5591,-3.5591,-3.5591,-3.5591,-3.5591,-3.5591,-3.5604,-3.5577,-3.5577,-3.5589,-3.5601,-3.5589,-3.5589,-3.5673,-3.548,-3.5353,-3.5646,-3.5472,-3.5182,-3.4872,-3.435,-3.3576,-3.2396,-3.1758,-3.1217,-3.0675,-3.0598,-3.0598,-3.0598,-3.0591,-3.0626,-3.0684,-3.0737,-3.0765,-3.0781,-3.0823,-3.0858,-3.0832,-3.0792,-3.0782,-3.0846,-3.0788,-3.0793,-3.0832,-3.0787,-3.0776,-3.0772,-3.0656,-3.0598,-1.267,-1.4133,0.0,0.0,0.0,0.0,0.0,0.0,0.0,0.0,0.0,-2.7286,-2.8147,-2.8204,-2.8369,-2.9174,-2.9977,-3.0469,-3.0417,-3.0458,-3.0499,-3.0499,-3.05,-3.0839,-3.1706,-3.1786,-3.2154,-3.3023,-3.3091,-3.3082,-3.3102,-3.3082,-3.3082,-3.3102,-3.3091,-3.31,-3.31,-3.3029,-3.2987,-3.2987,-3.2987,-3.3917,-3.5581,-3.5596,-3.5591,-3.5591,-3.5591,-3.5591,-3.5591,-3.5591,-3.5591,-3.5591,-3.5591,-3.5591,-3.5591,-3.5591,-3.5591,-3.5591,-3.5591,-3.5591,-3.5591,-3.5591,-3.5591,-3.5591,-3.5591,-3.5591,-3.5591,-3.5591,-3.5591,-3.5591,-3.5515,-3.5547,-3.5604,-3.5601,-3.5553,-3.554,-3.5673,-3.4982,-3.4581,-3.5499,-3.4988,-3.4659,-3.551,-3.4234,-3.3082,-3.3082,-3.1661,-3.0598,-3.0598,-3.0598,-3.0598,-3.0598,-3.0598,-3.0636,-3.0694,-3.0698,-3.0697,-3.0713,-3.0752,-3.0762,-3.0701,-3.0706,-3.0691,-3.0704,-3.0704,-3.0706,-3.0706,-3.0706,-3.0704,-3.0694,-3.0636,-3.0598,-1.2083,-1.4543,0.0,0.0,0.0,0.0,0.0,0.0,0.0,0.0,-2.7913,-2.8186,-2.9045,-2.9075,-2.9019,-2.9259,-2.9941,-3.0414,-3.0402,-3.0425,-3.0428,-3.0428,-3.0479,-3.0606,-3.0856,-3.0886,-3.1253,-3.2122,-3.218,-3.2441,-3.299,-3.2499,-3.2441,-3.301,-3.2488,-3.2469,-3.3029,-3.3018,-3.2987,-3.2987,-3.3003,-3.3593,-3.4689,-3.4697,-3.5013,-3.5553,-3.4892,-3.4969,-3.5528,-3.5528,-3.5534,-3.5534,-3.5534,-3.5534,-3.5534,-3.5534,-3.5534,-3.5534,-3.5534,-3.5534,-3.5534,-3.5534,-3.5534,-3.5534,-3.5534,-3.5534,-3.5534,-3.5534,-3.5534,-3.5534,-3.5501,-3.5554,-3.5591,-3.554,-3.554,-3.5572,-3.5631,-3.545,-3.5179,-3.4853,-3.4533,-3.4039,-3.3131,-3.2541,-3.199,-3.1429,-3.0926,-3.0598,-3.0598,-3.0598,-3.0598,-3.0598,-3.0598,-3.0617,-3.0636,-3.0625,-3.0632,-3.0627,-3.0646,-3.0664,-3.0704,-3.0645,-3.066,-3.0694,-3.0651,-3.0645,-3.0704,-3.0645,-3.0632,-3.0636,-3.0617,-3.0598,-1.3488,0.0,0.0,0.0,0.0,0.0,0.0,0.0,0.0,0.0,0.0,-2.7975,-2.8837,-2.8876,-2.8885,-2.9222,-2.9902,-3.0398,-3.0398,-3.0402,-3.0394,-3.0394,-3.0447,-3.0458,-3.0466,-3.0488,-3.0711,-3.1221,-3.127,-3.1502,-3.1984,-3.154,-3.1502,-3.1984,-3.151,-3.1491,-3.1973,-3.1981,-3.1969,-3.1969,-3.1965,-3.2408,-3.328,-3.3607,-3.4031,-3.4494,-3.393,-3.3987,-3.4469,-3.4481,-3.468,-3.4949,-3.4603,-3.468,-3.4949,-3.4603,-3.4468,-3.4526,-3.4872,-3.4988,-3.5045,-3.5391,-3.5493,-3.5493,-3.5493,-3.5493,-3.543,-3.5084,-3.4968,-3.4905,-3.4564,-3.4507,-3.4731,-3.5374,-3.5302,-3.5075,-3.5079,-3.4569,-3.4066,-3.3873,-3.3553,-3.3079,-3.2394,-3.2018,-3.1632,-3.1139,-3.0801,-3.0598,-3.0559,-3.0559,-3.0559,-3.055,-3.0569,-3.0569,-3.0598,-3.0604,-3.0613,-3.0607,-3.0598,-3.0617,-3.0656,-3.0617,-3.0617,-3.0656,-3.0617,-3.0608,-3.0617,-3.0579,-3.0559,-3.0559,-3.0559,-3.0569,0.0,0.0,0.0,0.0,0.0,0.0,0.0,0.0,-2.6689,-2.6779,0.0,-2.707,-2.7945,-2.8051,-2.8249,-2.907,-2.9813,-3.0302,-3.0379,-3.0398,-3.0398,-3.0398,-3.0394,-3.0394,-3.041,-3.0455,-3.0458,-3.0398,-3.0458,-3.0499,-3.0499,-3.0499,-3.0499,-3.0499,-3.0428,-3.0386,-3.0386,-3.0402,-3.0398,-3.0398,-3.0398,-3.0814,-3.1621,-3.2429,-3.2795,-3.2795,-3.2872,-3.2852,-3.2795,-3.2872,-3.3372,-3.3987,-3.3218,-3.3372,-3.3987,-3.3179,-3.2891,-3.3006,-3.3814,-3.4083,-3.4199,-3.5007,-3.5257,-3.5257,-3.5257,-3.5257,-3.5103,-3.4295,-3.409,-3.3898,-3.3115,-3.2954,-3.3395,-3.4993,-3.4766,-3.4191,-3.4191,-3.2941,-3.2031,-3.2756,-3.2293,-3.2003,-3.2659,-3.216,-3.166,-3.1679,-3.1062,-3.0559,-3.051,-3.0491,-3.05,-3.0509,-3.0499,-3.0528,-3.0597,-3.0597,-3.0597,-3.0577,-3.0597,-3.0598,-3.0588,-3.0598,-3.0598,-3.0598,-3.0598,-3.0559,-3.0491,-3.0491,-3.0491,-3.0491,-3.0491,-3.053,0.0,0.0,0.0,0.0,0.0,0.0,0.0,0.0,-2.5846,-2.6638,-2.6798,-2.707,-2.7945,-2.8058,-2.8266,-2.907,-2.9292,-2.9621,-3.0302,-3.0398,-3.0398,-3.0398,-3.041,-3.039,-3.0398,-3.0421,-3.0421,-3.039,-3.0402,-3.0421,-3.0421,-3.0421,-3.0421,-3.0421,-3.0421,-3.039,-3.039,-3.041,-3.0398,-3.0398,-3.0398,-3.0494,-3.0717,-3.1564,-3.1968,-3.1987,-3.2622,-3.2545,-3.2006,-3.2641,-3.3006,-3.316,-3.2968,-3.3006,-3.316,-3.2968,-3.2891,-3.2929,-3.3103,-3.3179,-3.3218,-3.3391,-3.3468,-3.3468,-3.3468,-3.3468,-3.343,-3.3237,-3.3179,-3.3154,-3.2949,-3.2954,-3.3075,-3.3473,-3.3427,-3.3272,-3.3272,-3.2995,-3.2582,-3.2138,-3.1877,-3.1576,-3.1116,-3.0854,-3.0719,-3.076,-3.0635,-3.0519,-3.049,-3.049,-3.0509,-3.0499,-3.0499,-3.0509,-3.0528,-3.0528,-3.0499,-3.0447,-3.0488,-3.0509,-3.0519,-3.0579,-3.0588,-3.052,-3.052,-3.051,-3.049,-3.049,-3.05,-3.0491,-3.0491,-3.053,0.0,0.0,0.0,0.0,0.0,0.0,0.0,0.0,-2.5457,-2.5967,-2.6088,-2.6223,-2.6668,-2.708,-2.746,-2.7885,-2.8279,-2.8679,-2.914,-2.9525,-2.964,-2.9256,-2.991,-3.0237,-2.9813,-3.016,-3.0398,-3.0398,-3.0398,-3.0398,-3.0398,-3.0398,-3.0398,-3.0398,-3.0398,-3.0398,-3.0398,-3.0398,-3.0398,-3.0398,-3.0398,-3.0398,-3.0417,-3.0871,-3.1083,-3.1102,-3.1525,-3.1468,-3.1121,-3.1525,-3.1948,-3.2275,-3.1872,-3.1968,-3.2275,-3.1872,-3.1698,-3.1756,-3.2179,-3.2333,-3.2391,-3.2776,-3.2891,-3.2891,-3.2891,-3.2891,-3.2814,-3.2429,-3.2326,-3.2242,-3.1814,-3.1723,-3.1765,-3.1761,-3.2093,-3.2424,-3.2382,-3.2047,-3.1634,-3.1218,-3.1099,-3.0933,-3.0513,-3.0417,-3.0428,-3.0499,-3.0499,-3.0499,-3.0458,-3.0439,-3.0458,-3.0455,-3.0455,-3.0455,-3.0455,-3.0455,-3.0436,-3.0398,-3.0428,-3.0469,-3.0499,-3.053,-3.054,-3.0491,-3.05,-3.049,-3.0439,-3.0479,-3.0509,-3.05,-3.0491,-3.053,0.0,0.0,0.0,0.0,0.0,0.0,0.0,-2.5303,-2.5303,-2.5303,-2.5303,-2.5303,-2.5303,-2.589,-2.6428,-2.6582,-2.7217,-2.7736,-2.7871,-2.8467,-2.864,-2.7967,-2.9121,-2.9698,-2.8948,-2.9544,-2.9967,-2.9967,-2.9967,-3.0044,-3.0179,-3.0179,-3.0237,-3.0398,-3.0398,-3.0398,-3.0398,-3.0398,-3.0398,-3.0398,-3.0398,-3.0398,-3.0398,-3.0398,-3.0398,-3.0398,-3.0398,-3.0398,-3.0398,-3.0398,-3.0833,-3.141,-3.0679,-3.0852,-3.1391,-3.0679,-3.0398,-3.0494,-3.1237,-3.1487,-3.1583,-3.2256,-3.2468,-3.2468,-3.2468,-3.2468,-3.2333,-3.166,-3.148,-3.1311,-3.0583,-3.0402,-3.0394,-3.039,-3.0983,-3.1538,-3.1496,-3.0906,-3.0394,-3.041,-3.0398,-3.0398,-3.0398,-3.0402,-3.0417,-3.0458,-3.0488,-3.0458,-3.0406,-3.0406,-3.0394,-3.041,-3.0398,-3.0398,-3.0398,-3.0398,-3.039,-3.0406,-3.0406,-3.0417,-3.0479,-3.0469,-3.0479,-3.0481,-3.0479,-3.0458,-3.0406,-3.0458,-3.0499,-3.0499,-3.05,-3.053,0.0,0.0,0.0,0.0,0.0,0.0,0.0,0.0,-2.5303,0.0,-2.5303,-2.5303,-2.5303,-2.5399,-2.5707,-2.6486,-2.6697,-2.7044,-2.7794,-2.7986,-2.8025,-2.7909,-2.8102,-2.8179,-2.8063,-2.8159,-2.8236,-2.8236,-2.8236,-2.8544,-2.9236,-2.9275,-2.9621,-3.0379,-3.0398,-3.0398,-3.0398,-3.0398,-3.0398,-3.0398,-3.0398,-3.0398,-3.0398,-3.0398,-3.0398,-3.0398,-3.0398,-3.0398,-3.0398,-3.0398,-3.0456,-3.0552,-3.0436,-3.0456,-3.0552,-3.0436,-3.0398,-3.0417,-3.0533,-3.0571,-3.059,-3.0686,-3.0737,-3.0737,-3.0737,-3.0737,-3.0706,-3.059,-3.0564,-3.0544,-3.0429,-3.041,-3.041,-3.041,-3.0506,-3.0595,-3.0583,-3.0487,-3.041,-3.0398,-3.0398,-3.0398,-3.0398,-3.041,-3.039,-3.0421,-3.0421,-3.041,-3.039,-3.039,-3.041,-3.0398,-3.0398,-3.0398,-3.0398,-3.0398,-3.041,-3.041,-3.039,-3.0402,-3.0398,-3.0414,-3.0414,-3.0409,-3.0409,-3.0406,-3.039,-3.0406,-3.0439,-3.0499,-3.05,-3.053,0.0,0.0,0.0,0.0,0.0,0.0,0.0,0.0,-2.5303,-2.5303,-2.5303,-2.5303,-2.5303,-2.5303,-2.5418,-2.5813,-2.587,-2.6005,-2.639,-2.6851,-2.6986,-2.6505,-2.7313,-2.7698,-2.7217,-2.7601,-2.789,-2.789,-2.789,-2.8044,-2.8409,-2.8429,-2.8602,-2.8986,-2.9006,-2.9006,-2.9006,-2.9006,-2.9236,-2.9679,-2.9679,-2.9929,-3.0398,-3.0398,-3.0398,-3.0398,-3.0398,-3.0398,-3.0398,-3.0398,-3.0398,-3.0398,-3.0398,-3.0398,-3.0398,-3.0398,-3.0398,-3.0398,-3.0398,-3.0398,-3.0398,-3.0398,-3.0398,-3.0398,-3.0398,-3.0398,-3.0398,-3.0398,-3.0398,-3.0398,-3.0398,-3.0398,-3.0398,-3.0398,-3.0398,-3.0398,-3.0398,-3.0398,-3.0398,-3.0398,-3.0398,-3.0398,-3.0398,-3.0398,-3.0398,-3.0398,-3.0398,-3.0398,-3.0398,-3.0398,-3.0398,-3.0398,-3.0398,-3.0398,-3.0398,-3.0398,-3.0398,-3.0398,-3.0398,-3.039,-3.0402,-3.039,-3.039,-3.0402,-3.0402,-3.0402,-3.0398,-3.0436,-3.0469,-3.0509,-3.054,-3.0559,0.0,0.0,0.0,0.0,0.0,0.0,0.0,0.0,-2.5063,-2.5264,-2.5303,-2.5303,-2.5303,-2.5303,-2.5303,-2.5303,-2.5303,-2.5303,-2.5303,-2.587,-2.6024,-2.538,-2.6447,-2.6986,-2.6332,-2.6851,-2.7236,-2.7236,-2.7236,-2.7332,-2.7563,-2.7563,-2.7659,-2.789,-2.789,-2.789,-2.789,-2.789,-2.8294,-2.9102,-2.9102,-2.9563,-3.0398,-3.0398,-3.0398,-3.0398,-3.0398,-3.0398,-3.0398,-3.0398,-3.0398,-3.0398,-3.0398,-3.0398,-3.0398,-3.0398,-3.0398,-3.0398,-3.0398,-3.0398,-3.0398,-3.0398,-3.0398,-3.0398,-3.0398,-3.0398,-3.0398,-3.0398,-3.0398,-3.0398,-3.0398,-3.0398,-3.0398,-3.0398,-3.0398,-3.0398,-3.0398,-3.0398,-3.0398,-3.0398,-3.0398,-3.0398,-3.0398,-3.0398,-3.0398,-3.0398,-3.0398,-3.0398,-3.0398,-3.0398,-3.0398,-3.0398,-3.0398,-3.0398,-3.0398,-3.0398,-3.0398,-3.0398,-3.0398,-3.0398,-3.0398,-3.0398,-3.0398,-3.0398,-3.0398,-3.0398,-3.0398,-3.0447,-3.0469,-3.0469,-3.054,-3.055,0.0,0.0,0.0,0.0,0.0,0.0,0.0,0.0,-2.4379,-2.5139,-2.5303,-2.5303,-2.5303,-2.5303,-2.5303,-2.5303,-2.5303,-2.5303,-2.5303,-2.5341,-2.5341,-2.5303,-2.538,-2.5418,-2.536,-2.5399,-2.5437,-2.5437,-2.5437,-2.5813,-2.6621,-2.6678,-2.7044,-2.7871,-2.789,-2.789,-2.789,-2.789,-2.8294,-2.9102,-2.9102,-2.9563,-3.0398,-3.0398,-3.0398,-3.0398,-3.0398,-3.0398,-3.0398,-3.0398,-3.0398,-3.0398,-3.0398,-3.0398,-3.0398,-3.0398,-3.0398,-3.0398,-3.0398,-3.0398,-3.0398,-3.0398,-3.0398,-3.0398,-3.0398,-3.0398,-3.0398,-3.0398,-3.0398,-3.0398,-3.0398,-3.0398,-3.0398,-3.0398,-3.0398,-3.0398,-3.0398,-3.0398,-3.0398,-3.0398,-3.0398,-3.0398,-3.0398,-3.0398,-3.0398,-3.0398,-3.0398,-3.0398,-3.0398,-3.0398,-3.0398,-3.0398,-3.0398,-3.0398,-3.0398,-3.0398,-3.0398,-3.0398,-3.0398,-3.0398,-3.0398,-3.0398,-3.0398,-3.0398,-3.0398,-3.0398,-3.0398,-3.0406,-3.0417,-3.0417,-3.0469,-3.0509,0.0,0.0,0.0,0.0,0.0,-2.0342,-2.2043,-2.2851,-2.3514,-2.4351,-2.4524,-2.4697,-2.5187,-2.5303,-2.5303,-2.5303,-2.5303,-2.5303,-2.5303,-2.5303,-2.5303,-2.5303,-2.5303,-2.5303,-2.5303,-2.5303,-2.5303,-2.5303,-2.5303,-2.5437,-2.5755,-2.5774,-2.5909,-2.6217,-2.6236,-2.6236,-2.6236,-2.6236,-2.6659,-2.7505,-2.7505,-2.7948,-2.8813,-2.9333,-2.9275,-2.8852,-2.9929,-3.0398,-3.0398,-3.0398,-3.0398,-3.0398,-3.0398,-3.0398,-3.0398,-3.0398,-3.0398,-3.0398,-3.0398,-3.0398,-3.0398,-3.0398,-3.0398,-3.0398,-3.0398,-3.0398,-3.0398,-3.0398,-3.0398,-3.0398,-3.0398,-3.0398,-3.0398,-3.0398,-3.0398,-3.0398,-3.0398,-3.0398,-3.0398,-3.0398,-3.0398,-3.0398,-3.0398,-3.0398,-3.0398,-3.0398,-3.0398,-3.0398,-3.0398,-3.0398,-3.0398,-3.0398,-3.0398,-3.0398,-3.0398,-3.0398,-3.0398,-3.0398,-3.0398,-3.0398,-3.0398,-3.0398,-3.0398,-3.0398,-3.0398,-3.0398,-3.0398,-3.0394,-3.0398,-3.0398,-3.0469,-3.0469,0.0,0.0,0.0,0.0,0.0,-1.8035,-2.0869,-2.1504,-2.1936,-2.3379,-2.3851,-2.4168,-2.4696,-2.499,-2.5201,-2.5293,-2.5264,-2.5233,-2.5233,-2.5182,-2.5179,-2.5179,-2.5179,-2.5179,-2.5179,-2.5212,-2.5233,-2.5233,-2.5264,-2.5303,-2.5303,-2.5303,-2.5303,-2.5303,-2.5303,-2.5303,-2.5303,-2.5303,-2.5736,-2.6601,-2.6601,-2.7063,-2.7909,-2.8448,-2.8409,-2.7948,-2.9083,-2.9717,-2.9987,-3.0294,-3.0398,-3.0398,-3.0398,-3.0398,-3.0398,-3.0398,-3.0398,-3.0398,-3.0398,-3.0398,-3.0398,-3.0398,-3.0398,-3.0398,-3.0398,-3.0398,-3.0398,-3.0398,-3.0398,-3.0398,-3.0398,-3.0398,-3.0398,-3.0398,-3.0398,-3.0398,-3.0398,-3.0398,-3.0398,-3.0398,-3.0398,-3.0398,-3.0398,-3.0398,-3.0398,-3.0398,-3.0398,-3.0398,-3.0398,-3.0398,-3.0398,-3.0398,-3.0398,-3.0398,-3.0398,-3.0398,-3.0398,-3.0398,-3.0398,-3.0398,-3.0398,-3.0398,-3.0398,-3.0398,-3.0398,-3.0398,-3.0398,-3.0402,-3.0394,-3.0394,-3.0436,-3.0447,0.0,0.0,0.0,0.0,0.0,0.0,-2.0169,-2.0042,-1.96,-2.2197,-2.3208,-2.3678,-2.3755,-2.4366,-2.4956,-2.5205,-2.5152,-2.5084,-2.5084,-2.4975,-2.4902,-2.4902,-2.4902,-2.4902,-2.4902,-2.5031,-2.5084,-2.5084,-2.5222,-2.5284,-2.5284,-2.5303,-2.5303,-2.5303,-2.5303,-2.5303,-2.5303,-2.5303,-2.5707,-2.6563,-2.6563,-2.7005,-2.7813,-2.7852,-2.7852,-2.7832,-2.7871,-2.8332,-2.9102,-2.9987,-3.0359,-3.0359,-3.0379,-3.0398,-3.0398,-3.0398,-3.0398,-3.0398,-3.0398,-3.0398,-3.0398,-3.0398,-3.0398,-3.0398,-3.0398,-3.0398,-3.0398,-3.0398,-3.0398,-3.0398,-3.0398,-3.0398,-3.0398,-3.0398,-3.0398,-3.0398,-3.0398,-3.0398,-3.0398,-3.0398,-3.0398,-3.0398,-3.0398,-3.0398,-3.0398,-3.0398,-3.0398,-3.0398,-3.0398,-3.0398,-3.0398,-3.0398,-3.0398,-3.0398,-3.0398,-3.0398,-3.0398,-3.0398,-3.0398,-3.0398,-3.0398,-3.0398,-3.0398,-3.0398,-3.0398,-3.0398,-3.0398,-3.0398,-3.0398,-3.0398,-3.0398,-3.0402,-1.0267,0.0,0.0,0.0,0.0,0.0,-1.6256,-1.6479,-1.6984,-2.0127,-2.0431,-2.0678,-2.2521,-2.3493,-2.405,-2.4124,-2.4594,-2.4968,-2.4968,-2.4929,-2.4902,-2.4902,-2.4902,-2.4902,-2.4902,-2.4923,-2.4968,-2.4968,-2.5091,-2.516,-2.516,-2.5243,-2.5303,-2.5303,-2.5303,-2.5303,-2.5303,-2.5303,-2.5418,-2.5649,-2.5649,-2.5793,-2.6043,-2.6678,-2.6621,-2.6101,-2.7351,-2.7659,-2.7409,-2.8852,-2.9467,-2.9525,-3.016,-3.0398,-3.0398,-3.0398,-3.0398,-3.0398,-3.0398,-3.0398,-3.0398,-3.0398,-3.0398,-3.0398,-3.0398,-3.0398,-3.0398,-3.0398,-3.0398,-3.0398,-3.0398,-3.0398,-3.0398,-3.0398,-3.0398,-3.0398,-3.0398,-3.0398,-3.0398,-3.0398,-3.0398,-3.0398,-3.0398,-3.0398,-3.0398,-3.0398,-3.0398,-3.0398,-3.0398,-3.0398,-3.0398,-3.0398,-3.0398,-3.0398,-3.0398,-3.0398,-3.0398,-3.0398,-3.0398,-3.0398,-3.0398,-3.0398,-3.0398,-3.0398,-3.0398,-3.0398,-3.0398,-3.0398,-3.0398,-3.0398,-3.0398,-3.041,0.0,0.0,0.0,0.0,0.0,0.0,-1.5468,-1.5251,-1.5312,-1.8327,-1.878,-1.9166,-2.1008,-2.1979,-2.2604,-2.2943,-2.3662,-2.4335,-2.4766,-2.4779,-2.4734,-2.4734,-2.4734,-2.4734,-2.4734,-2.4775,-2.4823,-2.4823,-2.4955,-2.5037,-2.5103,-2.5233,-2.5303,-2.5303,-2.5303,-2.5303,-2.5303,-2.5303,-2.5303,-2.5303,-2.5303,-2.5303,-2.5322,-2.5832,-2.5793,-2.536,-2.637,-2.6524,-2.6159,-2.7505,-2.8275,-2.864,-2.9159,-2.9563,-2.9871,-2.9871,-3.0102,-3.034,-2.9987,-3.0102,-3.0283,-2.9583,-2.9833,-3.0321,-2.9967,-3.0121,-3.0398,-3.0398,-3.0398,-3.0398,-3.0398,-3.0398,-3.0398,-3.0398,-3.0398,-3.0398,-3.0398,-3.0398,-3.0398,-3.0398,-3.0398,-3.0398,-3.0398,-3.0398,-3.0398,-3.0398,-3.0398,-3.0398,-3.0398,-3.0398,-3.0398,-3.0398,-3.0398,-3.0398,-3.0398,-3.0398,-3.0398,-3.0398,-3.0398,-3.0398,-3.0398,-3.0398,-3.0398,-3.0398,-3.0398,-3.0398,-3.0398,-3.0398,-3.0398,-3.0398,-3.0398,-3.0398,-1.2432,-1.2519,0.0,-1.4292,-1.3078,0.0,-1.6089,-1.5142,-1.4187,-1.6563,-1.7459,-1.8095,-1.9095,-1.9889,-2.066,-2.1458,-2.2349,-2.3289,-2.4379,-2.451,-2.45,-2.45,-2.45,-2.45,-2.45,-2.4615,-2.4676,-2.4676,-2.479,-2.4936,-2.5084,-2.5203,-2.5274,-2.5303,-2.5303,-2.5303,-2.5303,-2.5303,-2.5303,-2.5303,-2.5303,-2.5303,-2.5303,-2.5303,-2.5303,-2.5303,-2.5303,-2.5303,-2.536,-2.614,-2.6967,-2.7775,-2.7852,-2.8332,-2.8967,-2.8967,-2.9467,-3.0006,-2.9236,-2.9467,-2.989,-2.8371,-2.8909,-2.9987,-2.9313,-2.964,-3.0256,-3.0256,-3.0256,-3.0256,-3.0256,-3.0321,-3.0398,-3.0398,-3.0398,-3.0398,-3.0398,-3.0398,-3.0398,-3.0398,-3.0398,-3.0398,-3.0398,-3.0398,-3.0398,-3.0398,-3.0398,-3.0398,-3.0398,-3.0398,-3.0398,-3.0398,-3.0398,-3.0398,-3.0398,-3.0398,-3.0398,-3.0398,-3.0398,-3.0398,-3.0398,-3.0398,-3.0398,-3.0398,-3.0398,-3.0398,-3.0398,-3.0398,-3.0398,-3.0398,-3.0398,-3.0398,-1.2696,-1.3292,-1.4091,-1.3054,-1.3372,0.0,-1.3344,-1.2804,-1.2752,-1.3952,-1.3793,-1.4061,-1.6175,-1.7244,-1.8083,-1.8879,-2.0226,-2.1721,-2.3289,-2.407,-2.45,-2.45,-2.45,-2.45,-2.45,-2.4515,-2.4551,-2.4551,-2.466,-2.4847,-2.5103,-2.5107,-2.5182,-2.5303,-2.5303,-2.5303,-2.5303,-2.5303,-2.5303,-2.5303,-2.5303,-2.5303,-2.5303,-2.5303,-2.5303,-2.5303,-2.5303,-2.5303,-2.5303,-2.5476,-2.6082,-2.6928,-2.7621,-2.8005,-2.8121,-2.8121,-2.8236,-2.8352,-2.8179,-2.8255,-2.8332,-2.8005,-2.8121,-2.8486,-2.8948,-2.9217,-2.9352,-2.9352,-2.9352,-2.9352,-2.9352,-2.9871,-3.0398,-3.0398,-3.0398,-3.0398,-3.0398,-3.0398,-3.0398,-3.0398,-3.0398,-3.0398,-3.0398,-3.0398,-3.0398,-3.0398,-3.0398,-3.0398,-3.0398,-3.0398,-3.0398,-3.0398,-3.0398,-3.0398,-3.0398,-3.0398,-3.0398,-3.0398,-3.0398,-3.0398,-3.0398,-3.0398,-3.0398,-3.0398,-3.0398,-3.0398,-3.0398,-3.0398,-3.0398,-3.0398,-3.0398,-3.0398,-1.3784,-1.4054,-1.4584,-1.4156,-1.4023,0.0,0.0,-1.3353,-1.3093,-1.4341,-1.3953,-1.4009,-1.6029,-1.675,-1.7187,-1.7588,-1.9364,-2.0711,-2.076,-2.22,-2.3256,-2.3256,-2.3256,-2.3405,-2.3814,-2.3851,-2.4018,-2.4462,-2.4613,-2.4764,-2.4902,-2.5043,-2.5138,-2.5192,-2.5264,-2.5303,-2.5303,-2.5303,-2.5303,-2.5303,-2.5303,-2.5303,-2.5303,-2.5303,-2.5303,-2.5303,-2.5303,-2.5303,-2.5303,-2.5303,-2.5553,-2.6005,-2.6428,-2.6871,-2.7255,-2.7255,-2.7525,-2.7832,-2.739,-2.7544,-2.7755,-2.689,-2.7198,-2.789,-2.7852,-2.8159,-2.8486,-2.8486,-2.8794,-2.9102,-2.9102,-2.9756,-3.0398,-3.0398,-3.0398,-3.0398,-3.0398,-3.0398,-3.0398,-3.0398,-3.0398,-3.0398,-3.0398,-3.0398,-3.0398,-3.0398,-3.0398,-3.0398,-3.0398,-3.0398,-3.0398,-3.0398,-3.0398,-3.0398,-3.0398,-3.0398,-3.0398,-3.0398,-3.0398,-3.0398,-3.0398,-3.0398,-3.0398,-3.0398,-3.0398,-3.0398,-3.0398,-3.0398,-3.0398,-3.0398,-3.0398,-3.0398,-1.5249,-1.5169,-1.5372,-1.571,-1.5046,-1.4504,0.0,0.0,0.0,-1.488,-1.4567,-1.456,-1.6024,-1.6282,-1.6337,-1.6479,-1.8338,-1.9298,-1.8,-1.967,-2.1164,-2.1479,-2.1795,-2.22,-2.2701,-2.2739,-2.3091,-2.396,-2.4113,-2.4264,-2.4463,-2.482,-2.5056,-2.5103,-2.5212,-2.5264,-2.5303,-2.5303,-2.5303,-2.5303,-2.5303,-2.5303,-2.5303,-2.5303,-2.5303,-2.5303,-2.5303,-2.5303,-2.5303,-2.5303,-2.5303,-2.5303,-2.5303,-2.5726,-2.6351,-2.6351,-2.6794,-2.7294,-2.6601,-2.6813,-2.7178,-2.5774,-2.637,-2.7525,-2.6813,-2.7082,-2.764,-2.764,-2.8121,-2.8659,-2.8832,-2.939,-3.0006,-3.0321,-3.0275,-3.0198,-3.0359,-3.0398,-3.0398,-3.0398,-3.0398,-3.0398,-3.0398,-3.0398,-3.0398,-3.0398,-3.0398,-3.0398,-3.0398,-3.0398,-3.0398,-3.0398,-3.0398,-3.0398,-3.0398,-3.0398,-3.0398,-3.0398,-3.0398,-3.0398,-3.0398,-3.0398,-3.0398,-3.0398,-3.0398,-3.0398,-3.0398,-3.0398,-3.0398,-3.0398,-3.0398,-3.0398,-1.6808,-1.7201,-1.7467,-1.6066,-1.6686,-1.6951,-1.4221,0.0,-1.4022,-1.2784,0.0,-1.2655,-1.3566,0.0,0.0,-1.4676,-1.5668,-1.6294,-1.611,-1.6947,-1.8106,-1.9619,-2.1096,-2.1761,-2.113,-2.1071,-2.1402,-2.2219,-2.229,-2.27,-2.3581,-2.4324,-2.4847,-2.5084,-2.5107,-2.5171,-2.5303,-2.5303,-2.5303,-2.5303,-2.5303,-2.5303,-2.5303,-2.5303,-2.5303,-2.5303,-2.5303,-2.5303,-2.5303,-2.5303,-2.5303,-2.5303,-2.5303,-2.536,-2.5437,-2.5437,-2.5514,-2.5572,-2.5476,-2.5514,-2.5553,-2.536,-2.5967,-2.6736,-2.664,-2.6678,-2.6755,-2.6755,-2.6813,-2.7063,-2.7832,-2.8102,-2.8563,-3.0063,-2.9813,-2.9467,-3.0237,-3.0398,-3.0398,-3.0398,-3.0398,-3.0398,-3.0398,-3.0398,-3.0398,-3.0398,-3.0398,-3.0398,-3.0398,-3.0398,-3.0398,-3.0398,-3.0398,-3.0398,-3.0398,-3.0398,-3.0398,-3.0398,-3.0398,-3.0398,-3.0398,-3.0398,-3.0398,-3.0398,-3.0398,-3.0398,-3.0398,-3.0398,-3.0398,-3.0398,-3.0398,-3.0398,-1.7055,-1.7073,-1.7136,-1.6547,-1.6488,-1.6242,-1.4983,-1.4591,-1.4444,-1.4224,0.0,0.0,0.0,0.0,0.0,0.0,-1.489,-1.5251,-1.3853,-1.5152,-1.6687,-1.7908,-1.8675,-1.9355,-1.9981,-2.0051,-2.0604,-2.1906,-2.109,-2.1358,-2.3225,-2.3746,-2.426,-2.4842,-2.5012,-2.5138,-2.5182,-2.5253,-2.5303,-2.5303,-2.5303,-2.5303,-2.5303,-2.5303,-2.5303,-2.5303,-2.5303,-2.5303,-2.5303,-2.5303,-2.5303,-2.5303,-2.5303,-2.5303,-2.5303,-2.5303,-2.5303,-2.5303,-2.5303,-2.5303,-2.5303,-2.5303,-2.5553,-2.5851,-2.5851,-2.5851,-2.5851,-2.5851,-2.6217,-2.6678,-2.7044,-2.7525,-2.8082,-2.8775,-2.9025,-2.9198,-2.9563,-3.0044,-3.0398,-3.0398,-3.0398,-3.0398,-3.0398,-3.0398,-3.0398,-3.0398,-3.0398,-3.0398,-3.0398,-3.0398,-3.0398,-3.0398,-3.0398,-3.0398,-3.0398,-3.0398,-3.0398,-3.0398,-3.0398,-3.0398,-3.0398,-3.0398,-3.0398,-3.0398,-3.0398,-3.0398,-3.0398,-3.0398,-3.0398,-3.0398,-3.0398,-3.0398,-1.7521,-1.7312,-1.7124,-1.6827,-1.6211,-1.5594,-1.5314,-1.4976,-1.4872,-1.5436,-1.518,0.0,0.0,0.0,-1.4627,0.0,0.0,-1.4683,-1.2701,-1.3747,-1.5037,-1.5888,-1.638,-1.7256,-1.8689,-1.8424,-1.885,-2.0537,-1.9328,-1.9606,-2.2092,-2.2772,-2.348,-2.4351,-2.4755,-2.5019,-2.5037,-2.5138,-2.5212,-2.5243,-2.5243,-2.5264,-2.5303,-2.5303,-2.5303,-2.5303,-2.5303,-2.5303,-2.5303,-2.5303,-2.5303,-2.5303,-2.5303,-2.5303,-2.5303,-2.5303,-2.5303,-2.5303,-2.5303,-2.5303,-2.5303,-2.5303,-2.5303,-2.5303,-2.5303,-2.5303,-2.5303,-2.5303,-2.5774,-2.6294,-2.6544,-2.689,-2.7313,-2.7794,-2.8159,-2.8467,-2.8717,-2.9448,-3.0044,-3.0044,-3.0237,-3.0398,-3.0398,-3.0398,-3.0398,-3.0398,-3.0398,-3.0398,-3.0398,-3.0398,-3.0398,-3.0398,-3.0398,-3.0398,-3.0398,-3.0398,-3.0398,-3.0398,-3.0398,-3.0398,-3.0398,-3.0398,-3.0398,-3.0398,-3.0398,-3.0398,-3.0398,-3.0398,-3.0398,-3.0398,-3.0398,-3.0398,-1.8681,-1.8735,-1.836,-1.6806,-1.6395,-1.5969,-1.4502,-1.4688,-1.519,-1.5208,-1.5764,-1.6246,-1.6281,-1.642,0.0,0.0,0.0,0.0,0.0,-1.2655,-1.2499,-1.3317,-1.4851,-1.6165,-1.7002,-1.5672,-1.5443,-1.7133,-1.6496,-1.7102,-1.9583,-2.1198,-2.2517,-2.3506,-2.4309,-2.4779,-2.4915,-2.4915,-2.4994,-2.5115,-2.5115,-2.5171,-2.5303,-2.5303,-2.5303,-2.5303,-2.5303,-2.5303,-2.5303,-2.5303,-2.5303,-2.5303,-2.5303,-2.5303,-2.5303,-2.5303,-2.5303,-2.5303,-2.5303,-2.5303,-2.5303,-2.5303,-2.5303,-2.5303,-2.5303,-2.5303,-2.5303,-2.5303,-2.5322,-2.5534,-2.639,-2.5986,-2.5813,-2.7505,-2.7274,-2.6909,-2.7755,-2.8563,-2.914,-2.914,-2.9813,-3.0398,-3.0398,-3.0398,-3.0398,-3.0398,-3.0398,-3.0398,-3.0398,-3.0398,-3.0398,-3.0398,-3.0398,-3.0398,-3.0398,-3.0398,-3.0398,-3.0398,-3.0398,-3.0398,-3.0398,-3.0398,-3.0398,-3.0398,-3.0398,-3.0398,-3.0398,-3.0398,-3.0398,-3.0398,-3.0398,-3.0398,-1.8752,-1.8697,-1.8355,-1.7363,-1.6656,-1.597,-1.5036,-1.5015,-1.5211,-1.5211,-1.5704,-1.6184,-1.6284,-1.5843,0.0,0.0,0.0,0.0,0.0,-1.1489,-1.1599,-1.2407,-1.3992,-1.4899,-1.4633,-1.4615,-1.5069,-1.6164,-1.5979,-1.6917,-1.9388,-2.109,-2.2399,-2.3281,-2.4214,-2.4704,-2.4764,-2.4861,-2.4981,-2.5096,-2.5096,-2.5171,-2.5303,-2.5303,-2.5303,-2.5303,-2.5303,-2.5303,-2.5303,-2.5303,-2.5303,-2.5303,-2.5303,-2.5303,-2.5303,-2.5303,-2.5303,-2.5303,-2.5303,-2.5303,-2.5303,-2.5303,-2.5303,-2.5303,-2.5303,-2.5303,-2.5303,-2.5303,-2.5303,-2.536,-2.5649,-2.5514,-2.5437,-2.6043,-2.639,-2.6678,-2.6986,-2.7717,-2.8448,-2.8986,-2.9333,-2.9717,-3.0302,-3.0398,-3.0398,-3.0398,-3.0398,-3.0398,-3.0398,-3.0398,-3.0398,-3.0398,-3.0398,-3.0398,-3.0398,-3.0398,-3.0398,-3.0398,-3.0398,-3.0398,-3.0398,-2.9852,-2.9813,-3.0379,-2.9833,-2.9813,-3.0398,-3.0398,-3.0398,-3.0398,-3.0398,-3.0398,-1.8544,-1.8485,-1.8301,-1.7854,-1.7288,-1.6603,-1.5659,-1.564,-1.5763,-1.5466,-1.5941,-1.6533,-1.6832,-1.6273,0.0,0.0,0.0,0.0,0.0,-1.115,-1.1306,-1.1251,-1.2712,0.0,-1.3779,-1.3477,-1.3856,-1.5242,-1.484,-1.5732,-1.8485,-1.994,-2.1328,-2.2739,-2.367,-2.4313,-2.4631,-2.4704,-2.4818,-2.4968,-2.5019,-2.5103,-2.5233,-2.5274,-2.5303,-2.5303,-2.5303,-2.5303,-2.5303,-2.5303,-2.5303,-2.5303,-2.5303,-2.5303,-2.5303,-2.5303,-2.5303,-2.5303,-2.5303,-2.5303,-2.5303,-2.5303,-2.5303,-2.5303,-2.5303,-2.5303,-2.5303,-2.5303,-2.5303,-2.5303,-2.5303,-2.5303,-2.5303,-2.5303,-2.5726,-2.614,-2.614,-2.6813,-2.7582,-2.8102,-2.8448,-2.8852,-2.941,-2.9506,-2.9717,-3.0302,-3.0398,-3.0398,-3.0398,-3.014,-3.0063,-3.0359,-3.0121,-3.0063,-3.0359,-3.0398,-3.0275,-2.9967,-2.9948,-2.9813,-2.9525,-2.8967,-2.8929,-2.9506,-2.9236,-2.9371,-2.9948,-2.9948,-2.9948,-2.9929,-2.964,-2.9506]}]]